[[{"header":{"parameterUnit":"m.s-1","parameterCategory":1,"la1":30.6,"la2":28.766,"lo1":-90.7593,"lo2":-88.6598,"dy":0.0162,"dx":0.0183,"nx":116,"ny":114,"refTime":"2023-09-16T18:00:00:Z","depth":0,"parameterNumber":2,"parameterNumberName":"U-component_of_WINDS"},"data":[0.0,0.0,0.0,0.0,0.0,0.0,0.0,0.0,0.0,0.0,0.0,0.0,0.0,0.0,0.0,0.0,0.0,0.0,0.0,0.0,0.0,0.0,0.0,0.0,0.0,0.0,0.0,0.0,0.0,0.0,0.0,0.0,0.0,0.0,0.0,0.0,0.0,0.0,0.0,0.0,0.0,0.0,0.0,0.0,0.0,0.0,0.0,0.0,0.0,0.0,0.0,0.0,0.0,0.0,0.0,0.0,0.0,0.0,0.0,0.0,0.0,0.0,0.0,0.0,0.0,0.0,0.0,0.0,0.0,0.0,0.0,0.0,0.0,0.0,0.0,0.0,0.0,0.0,0.0,0.0,0.0,0.0,0.0,0.0,0.0,0.0,0.0,0.0,0.0,0.0,0.0,0.0,0.0,0.0,0.0,0.0,0.0,0.0,0.0,0.0,0.0,0.0,0.0,0.0,0.0,0.0,0.0,0.0,0.0,0.0,0.0,0.0,0.0,0.0,0.0,0.0,0.0,0.0,0.0,0.0,0.0,0.0,0.0,0.0,0.0,0.0,0.0,0.0,0.0,0.0,0.0,0.0,0.0,0.0,0.0,0.0,0.0,0.0,0.0,0.0,0.0,0.0,0.0,0.0,0.0,0.0,0.0,0.0,0.0,0.0,0.0,0.0,0.0,0.0,0.0,0.0,0.0,0.0,0.0,0.0,0.0,0.0,0.0,0.0,0.0,0.0,0.0,0.0,0.0,0.0,0.0,0.0,0.0,0.0,0.0,0.0,0.0,0.0,0.0,0.0,0.0,0.0,0.0,0.0,0.0,0.0,0.0,0.0,0.0,0.0,0.0,0.0,0.0,0.0,0.0,0.0,0.0,0.0,0.0,0.0,0.0,0.0,0.0,0.0,0.0,0.0,0.0,0.0,0.0,0.0,0.0,0.0,0.0,0.0,0.0,0.0,0.0,0.0,0.0,0.0,0.0,0.0,0.0,0.0,0.0,0.0,0.0,0.0,0.0,0.0,0.0,0.0,0.0,0.0,0.0,0.0,0.0,0.0,0.0,0.0,0.0,0.0,0.0,0.0,0.0,0.0,0.0,0.0,0.0,0.0,0.0,0.0,0.0,0.0,0.0,0.0,0.0,0.0,0.0,0.0,0.0,0.0,0.0,0.0,0.0,0.0,0.0,0.0,0.0,0.0,0.0,0.0,0.0,0.0,0.0,0.0,0.0,0.0,0.0,0.0,0.0,0.0,0.0,0.0,0.0,0.0,0.0,0.0,0.0,0.0,0.0,0.0,0.0,0.0,0.0,0.0,0.0,0.0,0.0,0.0,0.0,0.0,0.0,0.0,0.0,0.0,0.0,0.0,0.0,0.0,0.0,0.0,0.0,0.0,0.0,0.0,0.0,0.0,0.0,0.0,0.0,0.0,0.0,0.0,0.0,0.0,0.0,0.0,0.0,0.0,0.0,0.0,0.0,0.0,0.0,0.0,0.0,0.0,0.0,0.0,0.0,0.0,0.0,0.0,0.0,0.0,0.0,0.0,0.0,0.0,0.0,0.0,0.0,0.0,0.0,0.0,0.0,0.0,0.0,0.0,0.0,0.0,0.0,0.0,0.0,0.0,0.0,0.0,0.0,0.0,0.0,0.0,0.0,0.0,0.0,0.0,0.0,0.0,0.0,0.0,0.0,0.0,0.0,0.0,0.0,0.0,0.0,0.0,0.0,0.0,0.0,0.0,0.0,0.0,0.0,0.0,0.0,0.0,0.0,0.0,0.0,0.0,0.0,0.0,0.0,0.0,0.0,0.0,0.0,0.0,0.0,0.0,0.0,0.0,0.0,0.0,0.0,0.0,0.0,0.0,0.0,0.0,0.0,0.0,0.0,0.0,0.0,0.0,0.0,0.0,0.0,0.0,0.0,0.0,0.0,0.0,0.0,0.0,0.0,0.0,0.0,0.0,0.0,0.0,0.0,0.0,0.0,0.0,0.0,0.0,0.0,0.0,0.0,0.0,0.0,0.0,0.0,0.0,0.0,0.0,0.0,0.0,0.0,0.0,0.0,0.0,0.0,0.0,0.0,0.0,0.0,0.0,0.0,0.0,0.0,0.0,0.0,0.0,0.0,0.0,0.0,0.0,0.0,0.0,0.0,0.0,0.0,0.0,0.0,0.0,0.0,0.0,0.0,0.0,0.0,0.0,0.0,0.0,0.0,0.0,0.0,0.0,0.0,0.0,0.0,0.0,0.0,0.0,0.0,0.0,0.0,0.0,0.0,0.0,0.0,0.0,0.0,0.0,0.0,0.0,0.0,0.0,0.0,0.0,0.0,0.0,0.0,0.0,0.0,0.0,0.0,0.0,0.0,0.0,0.0,0.0,0.0,0.0,0.0,0.0,0.0,0.0,0.0,0.0,0.0,0.0,0.0,0.0,0.0,0.0,0.0,0.0,0.0,0.0,0.0,0.0,0.0,0.0,0.0,0.0,0.0,0.0,0.0,0.0,0.0,0.0,0.0,0.0,0.0,0.0,0.0,0.0,0.0,0.0,0.0,0.0,0.0,0.0,0.0,0.0,0.0,0.0,0.0,0.0,0.0,0.0,0.0,0.0,0.0,0.0,0.0,0.0,0.0,0.0,0.0,0.0,0.0,0.0,0.0,0.0,0.0,0.0,0.0,0.0,0.0,0.0,0.0,0.0,0.0,0.0,0.0,0.0,0.0,0.0,0.0,0.0,0.0,0.0,0.0,0.0,0.0,0.0,0.0,0.0,0.0,0.0,0.0,0.0,0.0,0.0,0.0,0.0,0.0,0.0,0.0,0.0,0.0,0.0,0.0,0.0,0.0,0.0,0.0,0.0,0.0,0.0,0.0,0.0,0.0,0.0,0.0,0.0,0.0,0.0,0.0,0.0,0.0,0.0,0.0,0.0,0.0,0.0,0.0,0.0,0.0,0.0,0.0,0.0,0.0,0.0,0.0,0.0,0.0,0.0,0.0,0.0,0.0,0.0,0.0,0.0,0.0,0.0,0.0,0.0,0.0,0.0,0.0,0.0,0.0,0.0,0.0,0.0,0.0,0.0,0.0,0.0,0.0,0.0,0.0,0.0,0.0,0.0,0.0,0.0,0.0,0.0,0.0,0.0,0.0,0.0,0.0,0.0,0.0,0.0,0.0,0.0,0.0,0.0,0.0,0.0,0.0,0.0,0.0,0.0,0.0,0.0,0.0,0.0,0.0,0.0,0.0,0.0,0.0,0.0,0.0,0.0,0.0,0.0,0.0,0.0,0.0,0.0,0.0,0.0,0.0,0.0,0.0,0.0,0.0,0.0,0.0,0.0,0.0,0.0,0.0,0.0,0.0,0.0,0.0,0.0,0.0,0.0,0.0,0.0,0.0,0.0,0.0,0.0,0.0,0.0,0.0,0.0,0.0,0.0,0.0,0.0,0.0,0.0,0.0,0.0,0.0,0.0,0.0,0.0,0.0,0.0,0.0,0.0,0.0,0.0,0.0,0.0,0.0,0.0,0.0,0.0,0.0,0.0,0.0,0.0,0.0,0.0,0.0,0.0,0.0,0.0,0.0,0.0,0.0,0.0,0.0,0.0,0.0,0.0,0.0,0.0,0.0,0.0,0.0,0.0,0.0,0.0,0.0,0.0,0.0,0.0,0.0,0.0,0.0,0.0,0.0,0.0,0.0,0.0,0.0,0.0,0.0,0.0,0.0,0.0,0.0,0.0,0.0,0.0,0.0,0.0,0.0,0.0,0.0,0.0,0.0,0.0,0.0,0.0,0.0,0.0,0.0,0.0,0.0,0.0,0.0,0.0,0.0,0.0,0.0,0.0,0.0,0.0,0.0,0.0,0.0,0.0,0.0,0.0,0.0,0.0,0.0,0.0,0.0,0.0,0.0,0.0,0.0,0.0,0.0,0.0,0.0,0.0,0.0,0.0,0.0,0.0,0.0,0.0,0.0,0.0,0.0,0.0,0.0,0.0,0.0,0.0,0.0,0.0,0.0,0.0,0.0,0.0,0.0,0.0,0.0,0.0,0.0,0.0,0.0,0.0,0.0,0.0,0.0,0.0,0.0,0.0,0.0,0.0,0.0,0.0,0.0,0.0,0.0,0.0,0.0,0.0,0.0,0.0,0.0,0.0,0.0,0.0,0.0,0.0,0.0,0.0,0.0,0.0,0.0,0.0,0.0,0.0,0.0,0.0,0.0,0.0,0.0,0.0,0.0,0.0,0.0,0.0,0.0,0.0,0.0,0.0,0.0,0.0,0.0,0.0,0.0,0.0,0.0,0.0,0.0,0.0,0.0,0.0,0.0,0.0,0.0,0.0,0.0,0.0,0.0,0.0,0.0,0.0,0.0,0.0,0.0,0.0,0.0,0.0,0.0,0.0,0.0,0.0,0.0,0.0,0.0,0.0,0.0,0.0,0.0,0.0,0.0,0.0,0.0,0.0,0.0,0.0,0.0,0.0,0.0,0.0,0.0,0.0,0.0,0.0,0.0,0.0,0.0,0.0,0.0,0.0,0.0,0.0,0.0,0.0,0.0,0.0,0.0,0.0,0.0,0.0,0.0,0.0,0.0,0.0,0.0,0.0,0.0,0.0,0.0,0.0,0.0,0.0,0.0,0.0,0.0,0.0,0.0,0.0,0.0,0.0,0.0,0.0,0.0,0.0,0.0,0.0,0.0,0.0,0.0,0.0,0.0,0.0,0.0,0.0,0.0,0.0,0.0,0.0,0.0,0.0,0.0,0.0,0.0,0.0,0.0,0.0,0.0,0.0,0.0,0.0,0.0,0.0,0.0,0.0,0.0,0.0,0.0,0.0,0.0,0.0,0.0,0.0,0.0,0.0,0.0,0.0,0.0,0.0,0.0,0.0,0.0,0.0,0.0,0.0,0.0,0.0,0.0,0.0,0.0,0.0,0.0,0.0,0.0,0.0,0.0,0.0,0.0,0.0,0.0,0.0,0.0,0.0,0.0,0.0,0.0,0.0,0.0,0.0,0.0,0.0,0.0,0.0,0.0,0.0,0.0,0.0,0.0,0.0,0.0,0.0,0.0,0.0,0.0,0.0,0.0,0.0,0.0,0.0,0.0,0.0,0.0,0.0,0.0,0.0,0.0,0.0,0.0,0.0,0.0,0.0,0.0,0.0,0.0,0.0,0.0,0.0,0.0,0.0,0.0,0.0,0.0,0.0,0.0,0.0,0.0,0.0,0.0,0.0,0.0,0.0,0.0,0.0,0.0,0.0,0.0,0.0,0.0,0.0,0.0,0.0,0.0,0.0,0.0,0.0,0.0,0.0,0.0,0.0,0.0,0.0,0.0,0.0,0.0,0.0,0.0,0.0,0.0,0.0,0.0,0.0,0.0,0.0,0.0,0.0,0.0,0.0,0.0,0.0,0.0,0.0,0.0,0.0,0.0,0.0,0.0,0.0,0.0,0.0,0.0,0.0,0.0,0.0,0.0,0.0,0.0,0.0,0.0,0.0,0.0,0.0,0.0,0.0,0.0,0.0,0.0,0.0,0.0,0.0,0.0,0.0,0.0,0.0,0.0,0.0,0.0,0.0,0.0,0.0,0.0,0.0,0.0,0.0,0.0,0.0,0.0,0.0,0.0,0.0,0.0,0.0,0.0,0.0,0.0,0.0,0.0,0.0,0.0,0.0,0.0,0.0,0.0,0.0,0.0,0.0,0.0,0.0,0.0,0.0,0.0,0.0,0.0,0.0,0.0,0.0,0.0,0.0,0.0,0.0,0.0,0.0,0.0,0.0,0.0,0.0,0.0,0.0,0.0,0.0,0.0,0.0,0.0,0.0,0.0,0.0,0.0,0.0,0.0,0.0,0.0,0.0,0.0,0.0,0.0,0.0,0.0,0.0,0.0,0.0,0.0,0.0,0.0,0.0,0.0,0.0,0.0,0.0,0.0,0.0,0.0,0.0,0.0,0.0,0.0,0.0,0.0,0.0,0.0,0.0,0.0,0.0,0.0,0.0,0.0,0.0,0.0,0.0,0.0,0.0,0.0,0.0,0.0,0.0,0.0,0.0,0.0,0.0,0.0,0.0,0.0,0.0,0.0,0.0,0.0,0.0,0.0,0.0,0.0,0.0,-3.0626,0.0,0.0,0.0,0.0,0.0,0.0,0.0,0.0,0.0,0.0,0.0,0.0,0.0,0.0,0.0,0.0,0.0,0.0,0.0,0.0,0.0,0.0,0.0,0.0,0.0,0.0,0.0,0.0,0.0,0.0,0.0,0.0,0.0,0.0,0.0,0.0,0.0,0.0,0.0,0.0,0.0,0.0,0.0,0.0,0.0,0.0,0.0,0.0,0.0,0.0,0.0,0.0,0.0,0.0,0.0,0.0,0.0,0.0,0.0,0.0,0.0,0.0,0.0,0.0,0.0,0.0,0.0,0.0,0.0,0.0,0.0,0.0,0.0,0.0,0.0,0.0,0.0,0.0,0.0,0.0,0.0,0.0,0.0,0.0,0.0,0.0,0.0,0.0,0.0,0.0,0.0,0.0,0.0,0.0,0.0,0.0,0.0,0.0,0.0,0.0,0.0,0.0,0.0,0.0,0.0,0.0,0.0,0.0,0.0,0.0,0.0,0.0,0.0,0.0,0.0,0.0,-3.0282,0.0,0.0,0.0,0.0,0.0,0.0,0.0,0.0,0.0,0.0,0.0,0.0,0.0,0.0,0.0,0.0,0.0,0.0,0.0,0.0,0.0,0.0,0.0,0.0,0.0,0.0,0.0,0.0,0.0,0.0,0.0,0.0,0.0,0.0,0.0,0.0,0.0,0.0,0.0,0.0,0.0,0.0,0.0,0.0,0.0,0.0,0.0,0.0,0.0,0.0,0.0,0.0,0.0,0.0,0.0,0.0,0.0,0.0,0.0,0.0,0.0,0.0,0.0,0.0,0.0,0.0,0.0,0.0,0.0,0.0,0.0,0.0,0.0,0.0,0.0,0.0,0.0,0.0,0.0,0.0,0.0,0.0,0.0,0.0,0.0,0.0,0.0,0.0,0.0,0.0,0.0,0.0,0.0,0.0,0.0,0.0,0.0,0.0,0.0,0.0,0.0,0.0,0.0,0.0,0.0,0.0,0.0,0.0,-4.0976,-4.0578,-3.9629,-3.932,-3.8595,-3.7482,-3.5169,-3.3422,-3.2039,-3.0488,0.0,0.0,0.0,0.0,0.0,0.0,0.0,0.0,0.0,0.0,0.0,0.0,0.0,0.0,0.0,0.0,0.0,0.0,0.0,0.0,0.0,0.0,0.0,0.0,0.0,0.0,0.0,0.0,0.0,0.0,0.0,0.0,0.0,0.0,0.0,0.0,0.0,0.0,-2.7977,-2.9167,-2.9405,-2.8766,-2.649,0.0,0.0,0.0,0.0,0.0,0.0,0.0,0.0,0.0,0.0,0.0,0.0,0.0,0.0,0.0,0.0,0.0,0.0,0.0,0.0,0.0,0.0,0.0,0.0,0.0,0.0,0.0,0.0,0.0,0.0,0.0,0.0,0.0,0.0,0.0,0.0,0.0,0.0,0.0,0.0,0.0,0.0,0.0,-3.3041,-3.4689,0.0,0.0,0.0,0.0,0.0,0.0,0.0,0.0,0.0,0.0,0.0,0.0,0.0,-4.1803,-4.2691,-4.3805,-4.3956,-4.3245,-4.4459,-4.4436,-4.3274,-4.2557,-4.198,-4.147,-3.9962,0.0,-3.3608,-3.3278,0.0,0.0,0.0,0.0,0.0,0.0,0.0,0.0,0.0,0.0,0.0,0.0,0.0,0.0,0.0,0.0,0.0,0.0,0.0,0.0,0.0,0.0,0.0,0.0,0.0,0.0,0.0,0.0,0.0,0.0,0.0,0.0,0.0,0.0,0.0,0.0,-2.469,-2.7158,-2.8301,-2.935,-3.0023,-3.0215,-2.8777,-2.7425,-2.6092,-2.3927,0.0,0.0,0.0,0.0,0.0,0.0,0.0,0.0,0.0,0.0,0.0,0.0,0.0,0.0,0.0,0.0,0.0,0.0,0.0,0.0,0.0,0.0,0.0,0.0,0.0,0.0,0.0,0.0,0.0,0.0,0.0,0.0,0.0,0.0,0.0,0.0,0.0,0.0,0.0,-3.1821,-3.435,-3.3968,-3.4916,-3.5014,0.0,0.0,0.0,0.0,0.0,0.0,0.0,0.0,0.0,-4.4032,-4.4248,-4.4959,-4.6321,-4.6897,-4.6779,-4.5961,-4.6566,-4.6097,-4.4675,-4.4314,-4.3813,-4.3204,-4.2457,-4.0775,-3.8477,-3.6558,-3.5013,-3.3671,0.0,0.0,0.0,0.0,-3.1681,-3.2138,0.0,0.0,0.0,0.0,0.0,0.0,0.0,0.0,0.0,0.0,0.0,0.0,0.0,0.0,0.0,-1.4984,0.0,0.0,0.0,0.0,0.0,0.0,0.0,0.0,0.0,0.0,0.0,0.0,-2.5779,-2.7328,-2.8595,-2.9512,-3.0296,-3.0926,-3.0622,-2.9253,-2.7023,-2.5044,-2.2555,0.0,0.0,0.0,0.0,0.0,0.0,0.0,0.0,0.0,0.0,0.0,0.0,0.0,0.0,0.0,0.0,0.0,0.0,0.0,0.0,0.0,0.0,0.0,0.0,0.0,0.0,0.0,0.0,0.0,0.0,0.0,0.0,0.0,0.0,0.0,0.0,0.0,0.0,-3.3401,-3.5688,-3.4159,-3.6569,-3.7296,0.0,0.0,0.0,0.0,0.0,0.0,-4.259,-4.3189,-4.466,-4.7214,-4.7429,-4.821,-4.9758,-4.9621,-4.9123,-4.8323,-4.7983,-4.6984,-4.537,-4.537,-4.4846,-4.3868,-4.3818,-4.3351,-4.2381,-3.948,-3.7757,-3.6809,-3.5102,-3.4265,-3.4053,-3.4185,-3.4211,-3.4506,0.0,0.0,0.0,0.0,0.0,0.0,0.0,0.0,0.0,0.0,0.0,0.0,0.0,0.0,-1.5816,-1.9993,-2.0452,-1.9814,0.0,0.0,0.0,0.0,0.0,0.0,0.0,0.0,0.0,-2.4463,-2.5915,-2.7431,-2.9083,-3.0294,-3.1027,-3.1359,-3.1278,-3.0282,-2.8461,-2.5072,-2.2644,-2.0684,0.0,0.0,0.0,0.0,0.0,0.0,0.0,0.0,0.0,0.0,0.0,0.0,0.0,0.0,0.0,0.0,0.0,0.0,0.0,0.0,0.0,0.0,0.0,0.0,0.0,0.0,0.0,0.0,0.0,0.0,0.0,0.0,0.0,0.0,0.0,0.0,0.0,0.0,0.0,-3.7738,-4.0719,0.0,0.0,0.0,0.0,-4.1366,-4.2449,-4.438,-4.7565,-4.7777,-4.8952,-5.151,-5.1228,-5.1478,-5.2412,-5.1574,-5.078,-4.998,-4.8827,-4.7426,-4.5865,-4.5865,-4.5001,-4.3569,-4.4305,-4.4176,-4.3296,-4.1629,-4.0169,-3.8938,-3.809,-3.7164,-3.6331,-3.6325,-3.6483,-3.662,0.0,0.0,0.0,0.0,0.0,0.0,0.0,0.0,0.0,0.0,0.0,0.0,0.0,-1.5561,-2.0998,-2.3303,-2.3317,-2.1911,-1.8882,0.0,0.0,0.0,0.0,0.0,0.0,0.0,-2.2118,-2.3798,-2.5428,-2.6911,-2.8228,-2.8991,-2.9677,-3.0254,-3.0221,-2.9326,-2.7775,-2.6541,-2.4343,-2.1379,-1.8421,-1.5664,0.0,0.0,0.0,0.0,0.0,0.0,0.0,0.0,0.0,0.0,0.0,0.0,0.0,0.0,0.0,0.0,0.0,0.0,0.0,0.0,0.0,0.0,0.0,0.0,0.0,0.0,0.0,0.0,0.0,0.0,0.0,0.0,0.0,0.0,0.0,0.0,0.0,-4.0901,-4.3652,0.0,-4.3489,-4.3885,-4.4675,-4.5778,-4.7197,-4.8757,-5.0471,-5.0548,-5.1331,-5.3087,-5.2729,-5.281,-5.3353,-5.2308,-5.1355,-5.0562,-4.9577,-4.7994,-4.592,-4.6452,-4.5516,-4.3534,-4.436,-4.425,-4.3442,-4.2873,-4.2383,-4.1862,-4.069,-3.9833,-3.9177,-3.8798,-3.8448,-3.821,0.0,0.0,0.0,0.0,0.0,0.0,0.0,0.0,0.0,0.0,0.0,-0.4974,-1.3009,-1.9839,-2.4112,-2.4797,-2.4163,-2.2395,-1.9318,0.0,0.0,0.0,0.0,0.0,0.0,-2.1391,-2.237,-2.3115,-2.4477,-2.5557,-2.6421,-2.6901,-2.7523,-2.8266,-2.838,-2.7876,-2.6864,-2.6718,-2.4672,-2.1346,-1.8437,-1.5705,-1.3176,0.0,0.0,0.0,0.0,0.0,0.0,0.0,0.0,0.0,0.0,0.0,0.0,0.0,0.0,0.0,0.0,0.0,0.0,0.0,0.0,0.0,0.0,0.0,0.0,0.0,0.0,0.0,0.0,0.0,0.0,0.0,0.0,0.0,0.0,0.0,-4.3178,-4.312,-4.611,-4.7721,-4.6547,-4.774,-4.8933,-4.976,-5.1164,-5.2337,-5.3145,-5.3039,-5.3383,-5.4211,-5.3838,-5.3691,-5.3795,-5.273,-5.1738,-5.0802,-4.9976,-4.8434,-4.6324,-4.6874,-4.5938,-4.392,-4.447,-4.425,-4.3497,-4.3497,-4.3497,-4.3424,-4.2504,-4.1863,-4.1314,-4.0691,-3.9945,-3.9194,0.0,0.0,0.0,0.0,0.0,0.0,0.0,0.0,0.0,0.0,-0.1409,-0.8198,-1.5682,-2.1729,-2.5026,-2.442,-2.2866,-2.1155,-1.9427,-1.8453,0.0,0.0,0.0,0.0,-2.0737,-2.2061,-2.2637,-2.2547,-2.313,-2.357,-2.3902,-2.4216,-2.4808,-2.5558,-2.5979,-2.6075,-2.5961,-2.5352,-2.3496,-2.0625,-1.6857,-1.4425,-1.2815,0.0,0.0,0.0,0.0,0.0,0.0,0.0,0.0,0.0,0.0,0.0,0.0,0.0,0.0,0.0,0.0,0.0,0.0,0.0,0.0,0.0,0.0,0.0,0.0,0.0,0.0,0.0,0.0,0.0,0.0,0.0,0.0,0.0,-3.7719,-4.1567,-4.4453,-4.4511,-4.824,-5.0164,-4.8509,-5.0567,-5.2375,-5.3222,-5.4068,-5.4876,-5.5665,-5.5306,-5.5088,-5.5088,-5.4682,-5.4217,-5.3777,-5.2939,-5.1899,-5.0747,-4.9939,-4.8673,-4.7076,-4.7075,-4.6232,-4.4672,-4.4709,-4.425,-4.3497,-4.3497,-4.3497,-4.3497,-4.3497,-4.316,-4.258,-4.1985,-4.0876,-3.9548,0.0,0.0,0.0,0.0,0.0,0.0,0.0,0.0,0.0,0.0,-0.3645,-0.9643,-1.8144,-2.2269,-2.4232,-2.3721,-2.1505,-1.982,-1.9182,0.0,0.0,0.0,0.0,0.0,-2.2147,-2.2536,-2.2877,-2.3295,-2.3375,-2.3429,-2.3544,-2.3866,-2.418,-2.4364,-2.478,-2.4578,-2.3874,-2.2802,-2.1549,-2.0026,-1.7885,-1.5623,-1.3255,0.0,0.0,0.0,0.0,0.0,0.0,0.0,0.0,0.0,0.0,0.0,0.0,0.0,0.0,0.0,0.0,0.0,0.0,0.0,0.0,0.0,0.0,0.0,0.0,0.0,0.0,0.0,0.0,0.0,0.0,0.0,0.0,-4.1269,-4.1128,-4.4661,-4.7805,-4.9277,-5.183,-5.3491,-5.3606,-5.4241,-5.4741,-5.4991,-5.5222,-5.5472,-5.5684,-5.5306,-5.5088,-5.5088,-5.3798,-5.3045,-5.292,-5.125,-5.0243,-4.9903,-4.9058,-4.7792,-4.625,-4.6838,-4.5902,-4.3864,-4.4452,-4.425,-4.3497,-4.3497,-4.3497,-4.3497,-4.3497,-4.2595,-4.1225,-4.1085,-3.9582,-3.7461,0.0,0.0,0.0,0.0,0.0,0.0,0.0,0.0,0.0,0.0,-0.4625,-0.9745,-1.8355,-2.1356,-2.2278,-2.1015,-1.9698,-1.8645,-1.8016,0.0,0.0,0.0,0.0,-2.22,-2.2975,-2.2776,-2.2614,-2.2477,-2.2124,-2.1879,-2.1804,-2.202,-2.2392,-2.2945,-2.2992,-2.272,-2.2155,-2.1039,-2.0,-1.8866,-1.719,-1.572,-1.4248,-1.1845,-1.0706,-1.0238,-0.9356,-0.955,-1.0365,-1.1264,0.0,0.0,0.0,0.0,0.0,0.0,0.0,0.0,0.0,0.0,0.0,0.0,0.0,0.0,0.0,0.0,0.0,0.0,0.0,0.0,0.0,0.0,0.0,0.0,-4.304,-4.544,-4.6336,-4.7986,-4.9917,-5.2133,-5.3644,-5.4818,-5.5607,-5.5703,-5.5703,-5.5703,-5.5703,-5.564,-5.5466,-5.5061,-5.4867,-5.4867,-5.3395,-5.2621,-5.2621,-5.0768,-4.9767,-4.9572,-4.8379,-4.7315,-4.6416,-4.6195,-4.5333,0.0,-4.414,-4.392,-4.3497,-4.3497,-4.3497,0.0,0.0,0.0,0.0,0.0,-3.7819,-3.6129,0.0,0.0,0.0,0.0,0.0,0.0,0.0,0.0,0.0,0.0,0.0,-0.9065,-1.6782,-1.9183,-1.9428,-1.7477,-1.7648,-1.7474,0.0,0.0,0.0,-2.2048,-2.2781,-2.3181,-2.3235,-2.2819,-2.2043,-2.0905,-2.0229,-1.9788,-1.953,-1.9579,-2.0218,-2.1352,-2.1118,-2.0926,-2.078,-1.9878,-1.8782,-1.7465,-1.5635,-1.5102,-1.51,-1.2448,-1.1439,-1.13,-1.0376,-1.0516,-1.1352,-1.2572,0.0,0.0,0.0,0.0,0.0,0.0,0.0,0.0,0.0,0.0,0.0,0.0,0.0,0.0,0.0,0.0,0.0,0.0,0.0,0.0,0.0,0.0,0.0,0.0,-4.712,-4.9786,-5.1832,-5.1151,-5.1307,-5.3608,-5.4338,-5.4914,-5.5626,-5.5703,-5.5703,-5.5703,-5.5703,-5.5512,-5.5115,0.0,0.0,0.0,0.0,-5.2548,-5.2621,-5.0948,-4.9971,-4.9554,-4.7994,-4.715,-4.6929,-4.5498,-4.4745,-4.4525,-4.3809,-4.3497,-4.3497,-4.3497,-4.3497,-4.3461,-4.3173,-4.2341,-4.0903,-3.7614,-3.6028,-3.5301,0.0,0.0,0.0,0.0,0.0,0.0,0.0,0.0,0.0,-0.1878,-0.511,-0.8752,-1.3712,-1.5303,-1.6018,-1.6123,-1.5389,-1.5853,0.0,0.0,-2.1357,-2.1981,-2.1835,-2.1833,-2.2003,-2.1954,-2.1558,-2.0905,-2.0229,-1.9666,-1.9202,-1.9479,-1.9748,-2.0028,-2.0715,-2.0567,-1.9834,-1.9221,-1.8055,-1.6572,-1.5269,-1.4482,-1.3999,-1.2685,-1.2175,-1.2212,-1.2302,-1.2434,-1.2895,-1.4796,-1.6434,-1.8069,-1.9982,0.0,0.0,0.0,0.0,0.0,0.0,0.0,0.0,0.0,0.0,0.0,0.0,0.0,0.0,0.0,0.0,0.0,0.0,0.0,0.0,-4.6047,-4.8862,-5.1433,-5.32,-5.2948,-5.3043,-5.4227,-5.5028,-5.553,-5.5684,-5.5703,-5.5703,-5.5703,-5.5703,-5.5512,-5.5115,-5.472,-5.4503,-5.4503,-5.2958,-5.2246,-5.2621,-5.0675,-4.9671,-4.9572,0.0,0.0,-4.6122,-4.581,-4.4966,-4.3718,-4.3552,-4.3497,-4.3497,-4.3497,-4.3497,-4.3281,-4.1175,-4.0221,-3.9629,-3.681,-3.5304,-3.459,0.0,0.0,0.0,0.0,0.0,0.0,0.0,0.0,0.0,0.0,-0.6856,-1.0738,-1.3247,-1.481,-1.5585,-1.5397,-1.5737,0.0,0.0,-2.0925,-2.218,-2.2048,-2.216,-2.2274,-2.2406,-2.136,-2.0564,-1.999,-1.907,-1.844,-1.8221,-1.8361,-1.8707,-1.9214,-1.9432,-1.9396,-1.9141,-1.8034,-1.7137,-1.625,-1.4812,-1.4068,-1.371,-1.2707,-1.2492,-1.2623,-1.239,-1.2747,-1.3558,-1.5136,-1.7362,-1.9743,-2.1551,-2.3378,-2.5136,0.0,0.0,0.0,0.0,0.0,0.0,0.0,0.0,0.0,0.0,0.0,0.0,0.0,0.0,-3.8662,0.0,0.0,-4.6576,-4.9566,-5.1659,-5.3334,-5.4575,-5.4587,-5.4537,-5.4762,-5.515,-5.5489,-5.5684,-5.5703,-5.5703,-5.5703,-5.5703,-5.5512,-5.5115,-5.4924,-5.472,-5.4503,-5.2677,-5.1807,-5.2006,-4.9953,-4.8948,-4.893,-4.8104,-4.7297,-4.6471,-4.5681,-4.4856,-4.4085,-4.3663,-4.3497,-4.3497,-4.3497,-4.3497,-4.3245,-4.0889,-3.9807,-3.9208,-3.608,-3.4508,-3.3795,0.0,0.0,0.0,0.0,0.0,0.0,0.0,0.0,0.0,0.0,-0.8261,-1.215,-1.3121,-1.4699,-1.542,0.0,0.0,0.0,0.0,-2.1373,-2.2467,-2.1466,-2.2166,-2.2413,-2.2094,-2.0504,-1.9379,-1.8742,-1.7785,-1.7229,-1.7146,-1.7229,-1.772,-1.8503,-1.8235,-1.826,-1.8412,-1.6985,-1.6262,-1.5947,-1.4389,-1.3732,-1.3536,-1.272,-1.2686,-1.2924,-1.2376,-1.2835,-1.3905,-1.5349,-1.7982,-2.1027,-2.3126,-2.5108,-2.6996,-2.8553,-2.8608,0.0,0.0,0.0,0.0,0.0,0.0,0.0,0.0,0.0,-3.5398,-3.7525,-3.9321,-4.1461,-4.4508,-4.6606,-4.9095,-5.2839,-5.4167,-5.4955,-5.5607,-5.5568,-5.5327,-5.4912,-5.4944,-5.5134,-5.5535,-5.5508,-5.553,-5.5684,-5.5703,-5.5435,-5.4886,-5.4859,-5.4553,-5.3917,-5.2255,-5.1338,-5.1285,-4.9472,-4.8545,-4.8545,-4.7737,-4.726,-4.7076,-4.5608,-4.4856,-4.4672,-4.3846,-4.3497,-4.3497,-4.3497,-4.3497,-4.3279,-4.125,-4.011,-3.9195,-3.588,-3.4106,-3.3237,0.0,0.0,0.0,0.0,0.0,0.0,0.0,0.0,0.0,0.0,0.0,0.0,0.0,0.0,0.0,0.0,0.0,0.0,-1.8074,-2.0078,-2.0574,-1.9042,-2.0023,-1.9928,-1.8512,-1.8823,-1.8517,-1.7487,-1.738,-1.7076,-1.6595,-1.7076,-1.734,-1.7504,-1.7894,-1.7854,-1.7409,-1.6689,-1.5828,-1.4835,-1.4097,-1.3457,-1.2978,-1.2881,-1.3053,-1.3468,-1.3719,-1.3949,-1.4491,-1.6735,-1.9162,-2.1898,-2.5679,-2.7467,-2.8588,-3.085,0.0,-2.8894,-2.9706,-3.0281,-3.1231,-3.3672,-3.4242,-3.5267,0.0,0.0,-4.0023,-4.2071,-4.3769,-4.5497,-4.7482,-4.9757,-5.2011,-5.4032,-5.5032,-5.5588,-5.5684,-5.5066,-5.4487,-5.4079,-5.435,-5.4725,-5.511,-5.4837,-5.4934,-5.5645,-5.5703,-5.5186,-5.4001,-5.3963,-5.3233,-5.1705,-5.143,-5.1176,-5.0864,-4.9924,-4.9444,-4.9426,-4.8581,-4.781,-4.7095,-4.6177,-4.5388,-4.4672,-4.3846,-4.3497,-4.3497,-4.3497,-4.3497,-4.3332,-4.165,-4.042,-3.9319,-3.7027,-3.5015,-3.3389,0.0,0.0,0.0,0.0,0.0,0.0,0.0,0.0,0.0,0.0,0.0,0.0,0.0,0.0,0.0,0.0,0.0,0.0,-1.7518,-1.8844,-1.9,-1.7734,-1.8449,-1.8579,-1.7906,-1.7953,-1.7572,-1.6786,-1.6446,-1.6027,-1.5478,-1.5664,-1.5784,-1.5784,-1.6378,-1.6348,-1.5784,-1.5531,-1.4949,-1.4097,-1.3034,-1.2463,-1.2209,-1.1637,-1.1558,-1.1846,-1.2991,-1.367,0.0,0.0,-1.9754,-2.2764,-2.5717,-2.7412,-2.8509,-2.9734,-2.955,0.0,-3.109,-3.2621,0.0,0.0,-3.6607,-3.8047,-4.0167,-4.0766,-4.1457,-4.3434,-4.5178,-4.7041,-4.9273,-5.0914,-5.2797,0.0,-5.5821,-5.5876,-5.6379,-5.5124,-5.3809,-5.2897,-5.2685,-5.2911,-5.3579,-5.3697,-5.3876,-5.4222,-5.4241,-5.4005,-5.3491,-5.3449,-5.2908,-5.1724,-5.1273,-5.0701,-5.0086,-4.926,-4.8838,-4.882,-4.8012,-4.7443,-4.7076,-4.5792,-4.4764,-4.3975,-4.3644,-4.3497,-4.3497,-4.3497,-4.3497,-4.3332,-4.1735,-4.0474,-3.9341,-3.7034,-3.5007,-3.3339,0.0,0.0,0.0,0.0,0.0,0.0,0.0,0.0,0.0,0.0,0.0,0.0,0.0,0.0,0.0,0.0,0.0,0.0,0.0,-1.7423,-1.7313,-1.6213,-1.6619,-1.6862,-1.6794,-1.6679,-1.63,-1.5648,-1.5274,-1.4744,-1.4136,-1.4136,-1.4239,-1.4446,-1.4892,-1.4949,-1.4698,-1.4318,-1.382,-1.309,-1.1769,-1.1266,-1.1208,-1.0246,-1.014,-1.0714,-1.2225,-1.3267,0.0,0.0,-2.0185,-2.3325,-2.5564,-2.708,-2.8217,-2.9055,-2.9361,-2.9969,-3.2397,0.0,0.0,-3.7223,-3.9037,-4.0665,-4.1207,-4.1973,-4.2967,-4.4432,-4.5871,-4.7542,-4.9656,-5.0875,-5.2521,-5.5472,-5.5624,-5.5682,-5.6513,-5.503,-5.3372,-5.1999,-5.1305,-5.1005,-5.118,-5.2183,-5.2933,-5.3183,-5.3203,-5.3106,-5.2856,-5.2837,-5.2407,-5.149,-5.0789,-5.0089,-4.9417,-4.8456,-4.7976,-4.7976,-4.7168,-4.6783,-4.6728,-4.5333,-4.4268,-4.3497,-4.3497,-4.3497,-4.3497,-4.3497,-4.3369,-4.302,-4.1473,-4.0203,-3.9004,-3.6653,-3.4809,-3.3322,0.0,0.0,0.0,0.0,0.0,0.0,0.0,0.0,0.0,0.0,0.0,0.0,0.0,0.0,0.0,0.0,0.0,0.0,0.0,-1.576,-1.5299,-1.4145,-1.425,-1.4203,-1.4046,-1.4564,-1.4508,-1.3788,-1.3742,-1.3429,-1.2752,-1.2752,-1.3114,-1.3742,-1.3742,-1.41,-1.4606,-1.3396,-1.2425,-1.163,-1.0319,-0.9909,-1.0022,-0.8884,-0.9467,-1.1037,-1.1985,0.0,0.0,0.0,-2.0589,-2.3436,-2.5911,-2.7155,0.0,-2.9984,-3.0547,-3.1047,-3.3341,0.0,-3.6055,-3.9513,-4.1493,-4.2881,-4.3929,-4.4848,-4.5528,-4.5719,-4.6371,-4.7197,-4.8195,-4.9663,-5.1289,-5.3023,-5.4015,-5.4818,-5.5624,-5.463,-5.3216,-5.1584,-5.0589,-4.9394,0.0,-5.026,-5.228,-5.3145,-5.3203,-5.2837,-5.1991,-5.1952,-5.1406,-5.0207,-4.9776,-4.9333,-4.8934,-4.7721,-4.715,-4.715,-4.6324,-4.5938,-4.5902,-4.5094,-4.4268,-4.3497,-4.3497,-4.3497,-4.3497,-4.3497,-4.3039,-4.2216,-4.0835,-3.955,-3.8199,-3.6107,-3.45,-3.3406,0.0,0.0,0.0,0.0,0.0,0.0,0.0,0.0,0.0,0.0,0.0,0.0,0.0,0.0,0.0,0.0,0.0,0.0,0.0,-1.4273,-1.3607,-1.2462,-1.2134,-1.228,-1.2851,-1.2185,-1.1924,-1.2101,-1.1336,-1.064,-1.007,-1.007,-1.0171,-1.0422,-1.0789,-1.0888,-1.0723,-1.0706,-1.068,-1.0557,-0.948,-0.8732,-0.814,-0.7149,-0.7989,-1.013,0.0,0.0,0.0,-1.9386,-2.1898,-2.3931,-2.5374,-2.6013,-2.661,-2.8515,-2.9882,-3.1457,-3.4452,-3.6618,-3.8728,-4.157,-4.3038,-4.3866,-4.4222,-4.4528,-4.4607,-4.4109,-4.2846,-4.2482,-4.4474,-4.5726,-4.7566,-5.1003,-5.3212,-5.4965,-5.6379,-5.4721,-5.2908,-5.1554,-5.0609,0.0,0.0,0.0,0.0,-5.0606,-5.0683,-5.0798,-5.1087,-5.0567,-4.9825,-4.8913,-4.8229,-4.7541,-4.6908,-4.6507,-4.6305,-4.6287,-4.5498,-4.4819,-4.4287,-4.403,-4.3754,-4.3497,-4.3497,-4.3497,-4.3442,-4.291,-4.2317,-4.1597,-4.0112,-3.8843,-3.7737,-3.6481,-3.4929,-3.3339,0.0,0.0,0.0,0.0,0.0,0.0,0.0,0.0,0.0,0.0,0.0,0.0,0.0,0.0,0.0,0.0,0.0,0.0,0.0,0.0,-1.1836,-1.1287,-1.0266,-1.0333,-1.1665,-0.9468,-0.8112,-0.7777,-0.6497,-0.5512,-0.4904,-0.5126,-0.5513,-0.6071,-0.7568,-0.7811,-0.7102,-0.7522,-0.7808,-0.7929,-0.7031,-0.6504,-0.6274,-0.601,-0.7872,0.0,0.0,0.0,0.0,-2.1152,-2.3096,-2.4574,-2.5613,-2.6406,-2.7324,-2.916,-3.0918,-3.3066,-3.6738,-3.9041,-4.103,-4.3509,-4.4224,-4.4263,-4.4186,-4.3915,-4.3431,-4.2494,-4.0603,-3.9624,-4.1281,-4.2098,-4.3705,-4.7396,-4.9875,-5.2222,-5.4818,-5.3249,-5.1836,-5.1839,-5.0931,-4.9706,0.0,0.0,0.0,-4.8913,-4.951,-4.9971,-5.0221,-4.9585,-4.901,-4.8522,-4.7674,-4.6894,-4.6131,-4.5956,-4.5608,-4.5039,-4.4525,-4.3993,-4.3497,-4.3497,-4.3497,-4.3497,-4.3497,-4.3332,-4.302,-4.2506,-4.1663,-4.0528,-3.9319,-3.8146,-3.704,-3.6086,-3.4721,-3.3339,0.0,0.0,0.0,0.0,0.0,0.0,0.0,0.0,0.0,0.0,0.0,0.0,0.0,0.0,0.0,0.0,0.0,0.0,0.0,0.0,0.0,-1.0529,-0.8588,-0.8379,-1.0311,-0.6553,-0.3362,-0.0876,0.0351,0.135,0.2137,0.1426,0.046,-0.0928,-0.3831,-0.4658,-0.3841,-0.3956,-0.4,-0.4031,-0.3182,-0.3495,-0.4477,-0.5615,0.0,0.0,0.0,0.0,0.0,-2.2874,-2.4233,-2.5563,-2.6815,-2.8426,-3.0195,-3.1933,-3.3632,-3.5859,-3.9961,-4.1641,-4.2812,-4.5216,-4.5049,-4.4224,-4.3936,-4.3145,-4.2162,-4.0921,-3.9487,-3.8469,0.0,0.0,-4.0011,-4.2618,-4.4658,-4.7364,-5.1448,-5.0664,-5.0374,0.0,0.0,0.0,0.0,0.0,0.0,-4.8182,0.0,-5.0279,-4.951,-4.9054,-4.8838,-4.8796,-4.7953,-4.7127,-4.6363,-4.5985,-4.5002,-4.3497,-4.3497,-4.3497,-4.3497,-4.3442,-4.3424,-4.3424,-4.3387,-4.2928,-4.2249,-4.2194,-4.0935,-3.9031,-3.8536,-3.7532,-3.6205,-3.501,-3.4083,-3.3457,0.0,0.0,0.0,0.0,0.0,0.0,0.0,0.0,0.0,0.0,0.0,0.0,0.0,0.0,0.0,0.0,0.0,0.0,0.0,0.0,0.0,0.0,0.0,0.0,0.0,0.0,0.0,0.0,0.0,0.2637,0.4288,0.4131,0.3853,0.3493,0.2682,0.1974,0.1259,0.0711,-0.0165,-0.116,0.0,-0.2561,-0.3178,0.0,0.0,0.0,0.0,0.0,0.0,0.0,0.0,0.0,-3.0892,-3.2252,-3.3523,-3.5325,-3.7074,-3.8947,-4.1385,-4.3066,-4.4396,-4.5563,-4.5163,-4.4241,-4.3464,-4.2129,-4.04,-3.8218,-3.5491,-3.3531,0.0,0.0,0.0,-4.16,-4.6715,0.0,-5.3494,-5.3475,0.0,-5.2641,0.0,-5.0249,-4.8942,-4.9205,0.0,0.0,-4.9106,-4.9913,-5.0337,-4.8805,-4.7829,-4.756,-4.5865,-4.4716,-4.4273,-4.4154,-4.3901,-4.3497,-4.3497,-4.3497,-4.3461,-4.2873,-4.2598,-4.2561,-4.1974,-4.1607,-4.1368,-4.0763,-3.9763,-3.8518,-3.778,-3.6818,-3.5749,-3.5447,-3.4861,-3.4134,0.0,0.0,0.0,0.0,0.0,0.0,0.0,0.0,0.0,0.0,0.0,0.0,0.0,0.0,0.0,0.0,0.0,0.0,0.0,0.0,0.0,0.0,0.0,0.0,0.0,0.0,0.0,0.0,0.0,0.0,0.0,0.7269,0.757,0.7587,0.7396,0.6671,0.5604,0.0,0.0,0.0,0.0,0.0,0.0,0.0,0.0,0.0,0.0,0.0,0.0,0.0,0.0,-3.2081,-3.3878,-3.5195,-3.642,-3.8206,0.0,-4.1231,-4.2987,-4.4394,-4.5463,-4.5807,-4.5195,-4.3895,-4.1601,-4.0099,-3.8188,-3.4717,-3.2054,0.0,-3.0882,-3.3186,0.0,0.0,0.0,0.0,-5.185,-5.2124,-5.2212,0.0,-5.1954,0.0,-4.9499,-4.9943,-4.9843,0.0,-4.9488,-5.001,-5.0106,-4.8369,-4.7296,-4.7106,-4.5289,-4.4214,-4.403,-4.3663,-4.3497,-4.3497,-4.3497,-4.3314,-4.2947,-4.2506,-4.2121,-4.1754,0.0,-4.091,-4.0543,-4.0084,-3.9114,-3.7831,-3.7388,-3.6545,-3.5622,-3.5622,-3.5131,-3.4387,0.0,0.0,0.0,0.0,0.0,0.0,0.0,0.0,0.0,0.0,0.0,0.0,0.0,0.0,0.0,0.0,0.0,0.0,0.0,0.0,0.0,0.0,0.0,0.0,0.0,0.0,0.0,0.0,0.0,0.0,0.0,0.0,0.0,0.0,0.0,0.0,0.0,0.0,0.0,0.0,0.0,0.0,0.0,0.0,0.0,0.0,0.0,0.0,0.0,0.0,-3.3639,-3.4966,-3.6614,-3.8075,-3.9491,-4.1141,-4.2247,-4.329,-4.4882,-4.5801,-4.6269,-4.6113,-4.5209,-4.334,-3.9445,-3.7881,-3.5952,-3.1397,0.0,-2.8975,-2.9738,-3.1425,-3.366,-3.6583,0.0,-4.4613,-4.9106,-4.9431,-5.0157,-5.2755,-5.2349,-5.1337,-5.0046,-5.0474,-5.0412,-4.9416,-4.9885,-4.9948,-4.9296,-4.7821,-4.6883,-4.6629,-4.5282,-4.4544,-4.4544,-4.3846,-4.3497,-4.3497,-4.3497,-4.3075,-4.2304,-4.2194,-4.1699,-4.0946,-4.0836,0.0,-3.9735,-3.9575,-3.8574,-3.7173,-3.7029,-3.6325,-3.5487,-3.5588,-3.5081,-3.4252,0.0,0.0,0.0,0.0,0.0,0.0,0.0,0.0,0.0,0.0,-0.7424,0.0,0.0,0.0,0.0,0.0,0.0,0.0,0.0,0.0,0.0,0.0,0.0,0.0,0.0,0.0,0.0,0.0,0.0,0.0,0.0,0.0,0.0,0.0,0.0,0.0,0.0,0.0,0.0,0.0,0.0,0.0,0.0,0.0,0.0,0.0,0.0,0.0,0.0,0.0,-3.6408,-3.9008,-4.0856,-4.2757,-4.4523,-4.5603,-4.6132,-4.6596,-4.7718,-4.7695,-4.7285,-4.7031,-4.5267,-4.2787,-3.9634,-3.7315,0.0,0.0,-2.9558,-2.9094,-2.9236,-3.0574,-3.3244,-3.8068,-4.1107,-4.4879,-5.0644,-5.1395,-5.158,0.0,0.0,0.0,0.0,0.0,0.0,0.0,0.0,-4.7957,-4.8477,-4.7285,-4.5829,-4.4173,-4.3858,-4.3699,-4.3699,-4.3552,-4.3497,-4.3497,-4.3497,-4.3075,-4.2286,-4.1625,-4.0873,-4.0065,-3.9405,0.0,-3.8823,-3.7758,-3.7271,-3.7082,-3.6064,-3.5218,-3.4759,-3.5402,-3.4759,-3.3575,0.0,0.0,0.0,0.0,0.0,0.0,0.0,0.0,0.0,-0.6965,-0.6401,-0.5935,0.0,0.0,0.0,0.0,0.0,0.0,0.0,0.0,0.0,0.0,0.0,0.0,0.0,0.0,0.0,0.0,0.0,0.0,0.0,0.0,0.0,0.0,0.0,0.0,0.0,0.0,0.0,0.0,0.0,0.0,0.0,0.0,0.0,0.0,0.0,0.0,0.0,0.0,-3.5847,-3.9386,-4.2579,-4.4395,-4.5543,-4.6621,-4.7393,-4.7967,-4.845,-4.8769,-4.8672,-4.748,-4.5626,-4.2844,-3.8101,0.0,0.0,0.0,-2.7783,-2.7881,-2.8786,-3.0521,0.0,-3.6117,-3.9353,0.0,0.0,0.0,0.0,0.0,0.0,0.0,0.0,0.0,0.0,0.0,0.0,-4.7043,-4.7645,-4.6529,-4.5162,-4.355,-4.3497,-4.3497,-4.3497,-4.3497,-4.3497,-4.3497,-4.3497,-4.2855,-4.1662,-4.1295,-4.0432,-3.9239,-3.8872,0.0,-3.8231,-3.7615,-3.7131,-3.6676,-3.5687,-3.4964,-3.4489,-3.4472,-3.4015,-3.3355,0.0,0.0,0.0,0.0,0.0,0.0,0.0,-0.6691,-0.551,-0.5504,-0.4904,-0.4488,-0.4481,-0.4748,-0.487,0.0,0.0,0.0,0.0,0.0,0.0,0.0,0.0,0.0,0.0,0.0,0.0,0.0,0.0,0.0,0.0,0.0,0.0,0.0,0.0,0.0,0.0,0.0,0.0,0.0,0.0,0.0,0.0,0.0,0.0,0.0,0.0,0.0,0.0,0.0,-3.4274,-3.7509,-4.1487,-4.3714,-4.4972,-4.5605,-4.7087,-4.8552,-4.8724,-4.9473,-4.9766,-4.793,-4.5938,-4.2804,-3.66,-3.3862,0.0,-2.7146,-2.6376,-2.6992,-2.8689,-3.0273,-3.1941,0.0,-3.6536,-3.9909,0.0,0.0,0.0,0.0,0.0,0.0,0.0,0.0,0.0,0.0,0.0,0.0,-4.6561,-4.5525,-4.4471,-4.3532,-4.3497,-4.3497,-4.3497,-4.3497,-4.3406,-4.3222,-4.3222,-4.2396,-4.0855,-4.0855,-4.0065,-3.8707,-3.8578,0.0,0.0,-3.7254,-3.6622,-3.5861,-3.4979,-3.4401,-3.3964,-3.3558,-3.3203,-3.2865,0.0,0.0,0.0,0.0,0.0,0.0,0.0,0.0154,-0.032,-0.1768,-0.1882,-0.1989,-0.2439,-0.3724,-0.4519,0.0,0.0,0.0,0.0,0.0,0.0,0.0,0.0,0.0,0.0,0.0,0.0,0.0,0.0,0.0,0.0,0.0,0.0,0.0,0.0,0.0,0.0,0.0,0.0,0.0,0.0,0.0,0.0,0.0,0.0,0.0,0.0,0.0,0.0,0.0,0.0,-3.3506,-3.5955,-4.0056,-4.3784,-4.2616,0.0,0.0,-4.9466,-4.9922,-4.9902,-4.8691,-4.5938,-4.2055,-3.6479,0.0,-3.0914,-2.773,-2.725,-2.7842,-2.9344,-2.899,-2.9646,0.0,0.0,-3.5303,0.0,0.0,0.0,0.0,0.0,0.0,0.0,0.0,0.0,0.0,0.0,0.0,-4.4886,-4.4134,-4.3621,-4.3497,-4.3497,-4.3497,-4.3497,-4.3497,-4.313,-4.2415,-4.2415,-4.157,-4.001,-4.001,-3.9533,-3.8658,-3.8183,0.0,0.0,-3.5185,-3.4471,-3.4285,-3.3031,-3.2557,-3.256,-3.3186,-3.256,-3.1478,0.0,0.0,0.0,0.0,0.0,0.0,0.0,0.5788,0.3496,0.2288,-0.022,-0.1661,-0.0945,-0.3019,-0.4497,0.0,0.0,0.0,0.0,0.0,0.0,0.0,0.0,0.0,0.0,0.0,0.0,0.0,0.0,0.0,0.0,0.0,0.0,0.0,0.0,0.0,0.0,0.0,0.0,0.0,0.0,0.0,0.0,0.0,0.0,0.0,0.0,0.0,0.0,0.0,0.0,0.0,-3.0821,-3.3961,0.0,0.0,-4.3901,-4.6619,-4.8512,-4.9531,-4.9707,-4.8105,-4.4723,-4.0641,-3.6363,0.0,-3.0018,-2.7682,-2.7539,-2.8187,-2.9315,-2.9052,-2.923,0.0,0.0,0.0,-3.8023,0.0,0.0,0.0,0.0,0.0,0.0,0.0,0.0,0.0,0.0,0.0,-4.3956,-4.3663,-4.3497,-4.3497,-4.3497,-4.3497,-4.3497,-4.3497,-4.3094,-4.2304,-4.2304,-4.146,-3.99,-3.99,-3.9296,-3.8216,-3.798,0.0,0.0,-3.5238,-3.4562,-3.4017,-3.2804,-3.2313,-3.2256,-3.2121,-3.1698,-3.1241,0.0,0.0,0.0,0.0,0.0,0.0,1.246,0.9493,0.6694,0.5354,0.1953,-0.0053,0.06,-0.1704,-0.3274,-0.3186,0.0,0.0,0.0,0.0,0.0,0.0,0.0,0.0,0.0,0.0,0.0,0.0,0.0,0.0,0.0,0.0,0.0,0.0,0.0,0.0,0.0,0.0,0.0,0.0,0.0,0.0,0.0,0.0,0.0,0.0,0.0,0.0,0.0,0.0,0.0,0.0,0.0,0.0,0.0,0.0,-4.0866,-4.4017,-4.6072,-4.7949,-4.8943,-4.7557,-4.3951,-3.9876,0.0,0.0,-2.9522,-2.7828,-2.7811,-2.8338,-2.9145,-2.9127,-2.9127,0.0,0.0,-3.1212,-3.4267,0.0,0.0,0.0,0.0,0.0,0.0,0.0,0.0,0.0,0.0,0.0,-4.3497,-4.3497,-4.3497,-4.3497,-4.3497,-4.3497,-4.3497,-4.3497,-4.2983,-4.1956,-4.1956,-4.1111,-3.9551,-3.9551,-3.9026,-3.8099,-3.7572,0.0,0.0,-3.4783,-3.4047,-3.3304,-3.2338,-3.1952,-3.1901,-3.1376,-3.119,-3.119,0.0,0.0,0.0,0.0,0.0,0.0,0.0,1.0829,0.9342,0.7065,0.5232,0.3655,0.2301,0.0633,-0.0322,-0.0055,0.0,0.0,0.0,0.0,0.0,0.0,0.0,0.0,0.0,0.0,0.0,0.0,0.0,0.0,0.0,0.0,0.0,0.0,0.0,0.0,0.0,0.0,0.0,0.0,0.0,0.0,0.0,0.0,0.0,0.0,0.0,0.0,0.0,0.0,0.0,0.0,0.0,0.0,0.0,0.0,-3.5475,-4.1142,-4.2025,-4.4883,-4.7562,-4.727,-4.4013,-4.012,0.0,0.0,-2.9646,-2.835,-2.8095,-2.8301,-2.8902,-2.8994,-2.909,-2.9352,0.0,0.0,-3.2637,0.0,0.0,0.0,0.0,0.0,0.0,0.0,0.0,0.0,0.0,0.0,-4.3497,-4.3497,-4.3497,-4.3497,-4.3497,-4.3497,-4.3497,-4.3497,-4.269,-4.113,-4.113,-4.0286,-3.8707,-3.8707,-3.8707,0.0,0.0,0.0,0.0,-3.3239,-3.2132,-3.177,-3.1368,-3.1207,-3.1207,-3.119,-3.119,-3.119,0.0,0.0,0.0,0.0,0.0,0.0,0.0,1.1977,1.0942,0.9339,0.761,0.5765,0.3785,0.3206,0.2572,0.161,0.0,0.0,0.0,0.0,0.0,0.0,0.0,0.0,0.0,0.0,0.0,0.0,0.0,0.0,0.0,0.0,0.0,0.0,0.0,0.0,0.0,0.0,0.0,0.0,0.0,0.0,0.0,0.0,0.0,0.0,0.0,0.0,0.0,0.0,0.0,0.0,0.0,0.0,0.0,0.0,0.0,0.0,-3.7995,-3.9551,-4.0544,-4.0998,-3.8725,-3.5933,-3.4199,-3.1714,-2.9474,-2.8338,-2.8429,-2.8769,-2.8957,-2.8994,-2.9035,-2.9108,-2.9522,0.0,0.0,0.0,0.0,0.0,0.0,0.0,0.0,0.0,0.0,0.0,0.0,0.0,-4.3497,-4.3497,-4.3497,-4.3497,-4.3497,-4.3222,-4.269,-4.2671,-4.1864,-4.0286,-4.0286,-3.9735,-3.8689,-3.812,-3.7512,0.0,0.0,0.0,0.0,-3.2823,-3.229,-3.2213,-3.1487,-3.119,-3.119,-3.119,-3.119,-3.119,0.0,0.0,0.0,0.0,0.0,0.0,0.0,1.247,1.18,1.0622,0.9096,0.7346,0.5322,0.4687,0.4025,0.3171,0.0,0.0,0.0,0.0,0.0,0.0,0.0,0.0,0.0,0.0,0.0,0.0,0.0,0.0,0.0,0.0,0.0,0.0,0.0,0.0,0.0,0.0,0.0,0.0,0.0,0.0,-2.4998,0.0,0.0,0.0,0.0,0.0,0.0,0.0,0.0,0.0,0.0,0.0,0.0,0.0,-2.854,-3.0706,0.0,-3.5664,-3.6836,-3.7617,-3.5803,0.0,0.0,-3.0993,-2.9072,-2.8544,-2.8732,-2.8994,-2.8994,-2.8994,-2.8994,-2.8994,-2.9407,0.0,0.0,0.0,0.0,0.0,0.0,0.0,0.0,0.0,0.0,0.0,0.0,0.0,-4.3497,-4.3497,-4.3369,-4.3059,-4.3057,-4.2653,-4.1864,-4.1864,-4.1185,-3.99,-3.99,-3.9478,-3.867,-3.7863,-3.7067,0.0,0.0,0.0,0.0,-3.2351,-3.2049,-3.2196,-3.1466,-3.119,-3.119,-3.119,-3.119,-3.119,0.0,0.0,0.0,0.0,0.0,0.0,0.0,0.0,0.0,0.0,0.9803,0.8423,0.68,0.5191,0.434,0.0,0.0,0.0,0.0,0.0,0.0,0.0,0.0,0.0,0.0,0.0,0.0,-0.811,-0.8897,-0.9778,-1.069,0.0,0.0,0.0,0.0,0.0,0.0,0.0,0.0,0.0,0.0,0.0,0.0,0.0,0.0,0.0,0.0,0.0,0.0,0.0,0.0,0.0,0.0,0.0,0.0,0.0,0.0,0.0,0.0,-3.2988,-3.5625,-3.6366,-3.4724,0.0,0.0,0.0,0.0,-2.8938,-2.8994,-2.9012,-2.9072,-2.909,-2.9108,-2.9163,0.0,0.0,0.0,0.0,0.0,0.0,0.0,0.0,0.0,0.0,0.0,0.0,0.0,0.0,-4.3497,-4.3442,-4.3059,-4.2242,-4.2145,-4.1791,-4.1038,-4.0987,-4.0616,-3.9808,-3.9808,-3.9423,-3.867,-3.7863,-3.7192,0.0,0.0,0.0,0.0,-3.1836,-3.1466,-3.1858,-3.1368,-3.1157,-3.1123,-3.1123,-3.1089,-3.1038,0.0,0.0,0.0,0.0,0.0,0.0,0.0,0.0,0.0,0.0,0.989,0.8677,0.706,0.5687,0.4771,0.0,0.0,0.0,0.0,0.0,0.0,0.0,0.0,0.0,0.0,0.0,0.0,-1.0043,-1.0258,-1.1465,-1.352,-1.3903,0.0,0.0,0.0,0.0,0.0,0.0,0.0,0.0,0.0,0.0,0.0,0.0,0.0,0.0,-2.8526,-2.8847,0.0,0.0,0.0,0.0,0.0,0.0,0.0,0.0,-2.8017,-2.7168,-2.8398,0.0,-3.1184,-3.1926,-3.1592,-3.1022,0.0,0.0,0.0,0.0,0.0,0.0,0.0,0.0,0.0,0.0,0.0,0.0,0.0,0.0,0.0,0.0,0.0,0.0,0.0,0.0,0.0,0.0,0.0,-4.3497,-4.3497,-4.2915,-4.2223,-4.1407,-4.0781,-4.0372,-4.0198,-4.0198,-3.9777,-3.8982,-3.8982,-3.8891,-3.867,-3.7863,-3.6721,0.0,0.0,0.0,-3.2176,-3.1496,-3.1449,-3.177,-3.1351,-3.0852,-3.0362,-3.0362,-2.9989,-2.9499,0.0,0.0,0.0,0.0,0.0,0.0,0.0,0.0,0.0,0.0,0.0,0.0,0.0,0.0,0.0,0.0,0.0,0.0,0.0,0.0,0.0,0.0,0.0,0.0,0.0,0.0,0.0,0.0,0.0,-1.3857,0.0,0.0,0.0,0.0,0.0,0.0,0.0,0.0,0.0,0.0,-2.4647,0.0,0.0,0.0,0.0,0.0,-2.8283,-2.8695,0.0,-2.954,-2.97,-2.978,0.0,0.0,0.0,0.0,-2.8187,-2.707,-2.7871,-2.8769,-2.9636,-3.0376,-3.0467,-3.0364,-3.0312,0.0,0.0,0.0,0.0,0.0,0.0,0.0,0.0,0.0,-3.2145,0.0,0.0,0.0,0.0,0.0,0.0,0.0,0.0,0.0,0.0,0.0,0.0,-4.3169,-4.2459,-4.2333,-4.1782,-4.0573,-3.9768,-3.9163,-3.8797,-3.8805,-3.8383,-3.7613,-3.7606,-3.7606,-3.7569,-3.6529,-3.5453,0.0,0.0,0.0,-3.1507,-3.1291,-3.1312,-3.1473,-3.0917,-3.0446,-3.0074,-2.9719,-2.933,-2.9011,0.0,0.0,0.0,0.0,0.0,0.0,0.0,0.0,0.0,0.0,0.0,0.0,0.0,0.0,0.0,0.0,0.0,0.0,0.0,0.0,0.0,0.0,0.0,0.0,0.0,0.0,0.0,0.0,0.0,0.0,0.0,0.0,-1.7931,0.0,0.0,0.0,0.0,0.0,0.0,0.0,-2.5197,0.0,0.0,0.0,0.0,0.0,0.0,0.0,0.0,-2.9504,-2.9662,-2.9771,-3.0148,0.0,0.0,0.0,0.0,0.0,-2.793,-2.9032,-2.9946,-3.0231,-3.0343,-3.0445,-3.074,0.0,0.0,0.0,0.0,0.0,0.0,-3.0478,0.0,0.0,0.0,0.0,0.0,0.0,0.0,0.0,0.0,0.0,0.0,0.0,0.0,0.0,0.0,-4.2546,-4.1172,-4.1622,-4.1244,-3.9737,-3.894,-3.8059,-3.7149,-3.725,-3.6974,-3.6289,-3.6292,-3.6303,-3.6266,-3.5115,-3.4275,-3.3649,0.0,0.0,-3.1038,-3.114,-3.1055,-3.0801,-3.0311,-2.9973,-2.9685,-2.9042,-2.8738,-2.8636,0.0,0.0,0.0,0.0,0.0,0.0,0.0,0.0,0.0,0.0,0.0,0.0,0.0,0.0,0.0,0.0,0.0,0.0,0.0,0.0,0.0,0.0,0.0,0.0,0.0,0.0,0.0,0.0,0.0,0.0,-2.1681,-2.0715,-1.9438,-1.8033,0.0,0.0,-1.937,-2.0915,-2.25,-2.4016,-2.436,0.0,0.0,0.0,0.0,0.0,0.0,0.0,0.0,-2.9352,-2.9568,-2.9644,-2.9337,0.0,0.0,0.0,0.0,0.0,-2.8224,-3.0357,-3.1606,-2.9842,-3.0266,-3.0893,-3.0088,0.0,0.0,0.0,0.0,0.0,0.0,-3.1228,-3.1813,0.0,0.0,0.0,0.0,0.0,0.0,0.0,0.0,0.0,0.0,0.0,0.0,0.0,0.0,-4.1374,-4.1099,-4.0584,-3.9834,-3.8921,-3.8114,-3.6941,-3.5395,-3.6113,-3.6436,-3.6321,-3.6303,-3.6303,-3.6285,-3.5678,-3.4778,-3.3684,0.0,-3.1898,-3.0328,-3.0937,-3.0446,-2.9381,-2.9905,-2.9313,-2.8127,-2.8044,-2.7588,-2.7046,0.0,0.0,0.0,0.0,0.0,0.0,0.0,0.0,0.0,0.0,0.0,0.0,0.0,0.0,0.0,0.0,0.0,0.0,0.0,0.0,0.0,0.0,0.0,0.0,0.0,0.0,0.0,0.0,0.0,-2.2086,-2.4064,-2.2776,-2.1068,-1.9148,0.0,-1.9826,-2.0462,-2.101,-2.2378,-2.4216,0.0,0.0,0.0,0.0,0.0,0.0,0.0,0.0,0.0,0.0,-2.8857,-2.9136,-2.9554,0.0,0.0,0.0,0.0,0.0,-2.6964,-2.8548,-2.9978,-2.983,-3.2052,-3.4054,-3.3242,0.0,0.0,0.0,0.0,0.0,0.0,0.0,0.0,0.0,0.0,0.0,0.0,0.0,0.0,0.0,0.0,0.0,0.0,0.0,0.0,0.0,0.0,0.0,-3.9213,-3.9625,-3.9124,-3.7454,-3.7037,-3.6058,-3.4367,-3.4312,-3.451,-3.4945,-3.4064,-3.388,-3.4257,-3.3184,-3.2585,-3.2378,0.0,-3.1189,-3.0683,-3.0632,-3.0209,-2.955,-2.9059,-2.8397,-2.7739,-2.7368,-2.6996,-2.6691,0.0,0.0,0.0,0.0,0.0,0.0,0.0,0.0,0.0,0.0,0.0,0.0,0.0,0.0,0.0,0.0,0.0,0.0,0.0,0.0,0.0,0.0,0.0,0.0,0.0,0.0,-1.9648,-2.1487,-2.3043,-2.4298,-2.5179,-2.41,-2.2329,0.0,0.0,0.0,-2.1553,-2.1698,-2.2986,-2.4855,0.0,0.0,0.0,0.0,0.0,0.0,0.0,0.0,0.0,0.0,0.0,0.0,0.0,0.0,0.0,-2.8012,-2.7128,-2.6326,-2.5645,-2.6762,-2.8464,-2.971,0.0,-3.5407,-3.5837,-3.5002,0.0,0.0,0.0,0.0,0.0,0.0,0.0,0.0,0.0,0.0,0.0,0.0,0.0,0.0,0.0,0.0,0.0,0.0,0.0,0.0,0.0,0.0,-3.7319,-3.8394,-3.8113,-3.6067,-3.6002,-3.5206,-3.3543,-3.2736,-3.2643,-3.322,-3.199,-3.1689,-3.2172,-3.0814,-3.0455,-3.0841,-3.0155,-3.0057,-3.0378,-3.0006,-2.9634,-2.9211,-2.8178,-2.7671,-2.7486,-2.6911,-2.659,-2.6471,0.0,0.0,0.0,0.0,0.0,0.0,0.0,0.0,0.0,0.0,0.0,0.0,0.0,0.0,0.0,0.0,0.0,0.0,0.0,0.0,0.0,0.0,0.0,0.0,0.0,-2.0261,-2.1856,-2.2967,-2.4968,-2.5407,-2.4293,-2.4184,-2.2963,-2.0889,0.0,0.0,-2.2291,-2.3594,-2.4753,-2.5687,-2.548,0.0,0.0,0.0,0.0,0.0,0.0,0.0,0.0,0.0,0.0,0.0,0.0,0.0,-2.8707,-2.7088,-2.6517,-2.6181,-2.5059,-2.6795,-2.8943,-2.9138,-3.0026,0.0,-3.5296,-3.4761,0.0,-3.6608,0.0,0.0,0.0,0.0,0.0,0.0,0.0,0.0,0.0,0.0,0.0,0.0,0.0,0.0,0.0,0.0,0.0,0.0,0.0,0.0,-3.6389,-3.6509,-3.6113,-3.5133,-3.511,-3.4326,-3.2709,-3.1888,-3.1513,-3.1568,-3.1458,-3.1269,-3.1002,-3.0463,-3.0047,-2.9709,-2.9278,-2.8687,-2.8112,-2.8789,-2.823,-2.6996,-2.7588,-2.7385,-2.6776,-2.6708,-2.6268,-2.5795,0.0,0.0,0.0,0.0,0.0,0.0,0.0,0.0,0.0,0.0,0.0,0.0,0.0,0.0,0.0,0.0,0.0,0.0,0.0,0.0,0.0,0.0,0.0,-2.1512,-2.1536,-2.2714,-2.3755,-2.4584,-2.6122,-2.657,-2.6003,-2.6003,0.0,0.0,0.0,0.0,0.0,-2.4375,-2.5288,-2.6654,-2.645,-2.6265,0.0,0.0,0.0,0.0,0.0,0.0,0.0,0.0,-2.694,-2.7245,0.0,-2.9034,-2.8981,0.0,-2.6028,-2.5335,-2.3947,-2.5161,-2.7147,-2.8442,-2.9733,0.0,0.0,-3.7274,-3.7214,-3.8281,-3.9292,0.0,0.0,0.0,0.0,0.0,0.0,0.0,0.0,0.0,0.0,0.0,0.0,0.0,0.0,0.0,0.0,0.0,0.0,0.0,-3.4779,-3.4754,-3.4138,-3.2782,-3.3243,-3.2723,-3.1114,-3.0825,-3.0134,-2.9163,-2.9677,-2.9965,-3.0071,-2.918,-2.8789,-2.883,-2.8441,-2.8366,-2.8535,-2.8332,-2.7909,-2.7385,-2.7199,-2.6945,-2.6691,-2.6691,-2.6234,-2.5642,0.0,0.0,0.0,0.0,0.0,0.0,0.0,0.0,0.0,0.0,0.0,0.0,0.0,0.0,0.0,0.0,0.0,0.0,0.0,0.0,0.0,0.0,0.0,-2.2588,-2.3526,-2.4036,-2.4692,-2.5544,-2.6601,-2.6995,-2.6753,0.0,0.0,0.0,0.0,0.0,0.0,-2.5684,-2.6294,-2.7547,-2.7366,-2.7083,0.0,0.0,0.0,0.0,0.0,0.0,0.0,0.0,-2.646,0.0,0.0,0.0,0.0,0.0,0.0,-2.3883,-2.2425,-2.3409,-2.5576,0.0,0.0,0.0,-3.7983,-3.8979,-3.9226,-4.0962,-4.1029,0.0,0.0,0.0,0.0,0.0,0.0,0.0,0.0,0.0,0.0,0.0,0.0,0.0,0.0,0.0,0.0,0.0,0.0,0.0,0.0,-3.3037,-3.2416,-3.1066,-3.1556,-3.1065,-2.9457,-2.9439,-2.8772,-2.742,-2.7862,-2.8161,-2.8264,-2.7504,-2.7151,-2.7152,-2.6893,-2.7199,-2.7875,-2.7334,-2.7249,-2.7385,-2.664,-2.6353,-2.6319,-2.6082,-2.5541,-2.4949,0.0,0.0,0.0,0.0,0.0,0.0,0.0,0.0,0.0,0.0,0.0,0.0,0.0,0.0,0.0,0.0,0.0,0.0,0.0,0.0,0.0,0.0,0.0,-2.3556,-2.3897,-2.3964,-2.4548,-2.5592,-2.6336,-2.6438,-2.6034,-2.6783,0.0,0.0,0.0,0.0,0.0,-2.7811,-2.8095,-2.8361,-2.819,-2.8273,-2.8327,0.0,0.0,0.0,0.0,0.0,0.0,0.0,-2.6775,-2.7393,0.0,0.0,0.0,-2.284,-2.2095,-2.1699,-2.0436,-2.1842,-2.4694,0.0,0.0,0.0,-3.9236,-3.9325,-3.9703,-4.4997,0.0,-3.9765,0.0,0.0,0.0,0.0,0.0,0.0,0.0,0.0,0.0,0.0,0.0,0.0,0.0,0.0,0.0,0.0,0.0,0.0,0.0,-3.1372,-3.1011,-3.0199,-3.0162,-2.9402,-2.7787,-2.7787,-2.7383,-2.6573,-2.6236,-2.5877,-2.5508,-2.5508,-2.5122,-2.4506,-2.4506,-2.4898,-2.5592,-2.5592,-2.6031,-2.6607,-2.5879,-2.5592,-2.5507,-2.4763,-2.4019,-2.3494,0.0,0.0,0.0,0.0,0.0,0.0,0.0,0.0,0.0,0.0,0.0,0.0,0.0,0.0,0.0,0.0,0.0,0.0,0.0,0.0,0.0,0.0,0.0,0.0,0.0,0.0,-2.5708,-2.5269,-2.5709,-2.6118,0.0,0.0,0.0,-2.738,0.0,0.0,0.0,-2.7745,-2.8095,-2.8439,-2.8987,-2.8907,-2.8411,0.0,0.0,0.0,0.0,0.0,0.0,0.0,0.0,0.0,0.0,0.0,0.0,-2.244,-2.1276,-2.0412,-2.0657,-2.3764,0.0,-3.0043,0.0,0.0,0.0,-4.0256,0.0,0.0,0.0,0.0,0.0,0.0,0.0,0.0,0.0,0.0,0.0,0.0,0.0,0.0,0.0,0.0,0.0,0.0,0.0,0.0,0.0,0.0,0.0,-2.9172,-2.8516,-2.7679,-2.7669,-2.7445,-2.6951,-2.6951,-2.6442,-2.5397,-2.529,-2.5333,-2.5508,-2.5287,-2.4959,-2.4506,-2.4506,-2.4611,-2.4814,-2.4814,-2.4949,-2.515,-2.4898,-2.4814,-2.478,-2.4591,-2.4019,-2.338,0.0,0.0,0.0,0.0,0.0,0.0,0.0,0.0,0.0,0.0,0.0,0.0,0.0,0.0,0.0,0.0,0.0,0.0,0.0,0.0,0.0,0.0,0.0,0.0,0.0,-2.5229,-2.5414,0.0,0.0,0.0,0.0,0.0,0.0,-2.7974,0.0,-2.8486,0.0,0.0,-2.7947,-2.8457,-2.8957,-2.9083,-2.89,0.0,0.0,0.0,0.0,0.0,0.0,0.0,0.0,0.0,0.0,0.0,0.0,-2.2364,-2.1394,-2.1007,-2.2164,-2.5488,0.0,-3.2931,-3.5993,-3.8899,-4.1776,0.0,0.0,0.0,0.0,0.0,0.0,0.0,0.0,0.0,0.0,0.0,0.0,0.0,0.0,0.0,0.0,0.0,0.0,0.0,0.0,0.0,0.0,0.0,0.0,-2.7578,-2.6958,-2.6136,-2.6135,-2.5976,-2.5663,-2.5502,-2.5096,-2.4424,-2.4147,-2.4145,-2.4366,-2.4216,-2.3966,-2.363,-2.3934,-2.4052,-2.41,-2.4388,-2.4506,-2.4472,-2.4201,-2.4052,-2.4019,-2.3714,-2.3342,-2.2924,0.0,0.0,0.0,0.0,0.0,0.0,0.0,0.0,0.0,0.0,0.0,0.0,0.0,0.0,0.0,0.0,0.0,0.0,0.0,0.0,0.0,0.0,0.0,0.0,0.0,0.0,0.0,0.0,0.0,0.0,0.0,0.0,-2.7464,-2.7923,0.0,-2.8459,-2.9109,-2.7827,-2.77,-2.8361,-2.8424,-2.8931,-2.9605,-2.8844,0.0,0.0,0.0,0.0,0.0,0.0,0.0,0.0,-2.8124,-2.631,-2.414,-2.2637,-2.23,-2.2747,-2.4562,0.0,0.0,-3.6915,-3.9509,0.0,-4.3066,-4.4811,-4.5995,-4.5792,0.0,0.0,0.0,0.0,0.0,0.0,0.0,0.0,0.0,0.0,0.0,0.0,0.0,0.0,0.0,0.0,0.0,0.0,0.0,0.0,0.0,-2.6475,-2.6115,-2.5318,-2.5299,-2.4948,-2.4208,-2.3862,-2.3679,-2.3638,-2.3,-2.2695,-2.2643,-2.2643,-2.2527,-2.2344,-2.3004,-2.3291,-2.3342,-2.4002,-2.432,-2.4235,-2.3562,-2.3291,-2.3224,-2.2547,-2.231,-2.2282,0.0,0.0,0.0,0.0,0.0,0.0,0.0,0.0,0.0,0.0,0.0,0.0,0.0,0.0,0.0,0.0,0.0,0.0,0.0,0.0,0.0,0.0,0.0,0.0,0.0,0.0,0.0,0.0,0.0,0.0,0.0,0.0,0.0,-2.5863,0.0,-2.7108,-2.6792,-2.7131,-2.7583,-2.8062,-2.8533,-2.9104,-2.9699,-2.9658,-2.9423,0.0,0.0,0.0,0.0,0.0,0.0,0.0,-2.8332,-2.6086,-2.387,-2.3802,-2.3401,-2.3623,-2.6807,-3.0451,0.0,0.0,-4.17,-4.3705,-4.4161,-4.4231,-4.3984,0.0,0.0,0.0,0.0,0.0,0.0,0.0,0.0,0.0,0.0,0.0,0.0,0.0,0.0,0.0,0.0,0.0,0.0,0.0,0.0,0.0,-2.5291,-2.552,-2.5299,-2.4485,-2.4467,-2.4374,-2.419,-2.3884,-2.3573,0.0,-2.2892,-2.2599,-2.2388,-2.2388,-2.2332,-2.231,-2.2479,-2.2547,-2.2564,-2.2716,-2.2784,-2.2767,-2.2598,-2.2547,-2.253,-2.2361,-2.231,-2.2254,0.0,0.0,0.0,0.0,0.0,0.0,0.0,0.0,0.0,0.0,0.0,0.0,0.0,0.0,0.0,0.0,0.0,0.0,0.0,0.0,0.0,0.0,0.0,0.0,0.0,0.0,0.0,0.0,0.0,0.0,0.0,0.0,0.0,-2.5357,0.0,-2.6205,-2.6169,-2.6539,-2.6911,-2.7281,-2.7859,-2.8562,-2.9277,-2.9488,-2.9558,-2.9605,-3.0186,0.0,0.0,0.0,0.0,0.0,0.0,0.0,-2.5963,-2.6019,-2.5841,-2.6169,-2.8594,0.0,0.0,-4.044,0.0,-4.4399,-4.3963,-4.3355,0.0,0.0,0.0,0.0,0.0,0.0,0.0,0.0,0.0,0.0,0.0,0.0,0.0,0.0,0.0,0.0,0.0,0.0,0.0,0.0,0.0,-2.4856,-2.4576,-2.4725,-2.4633,-2.4208,-2.419,-2.4135,-2.3969,-2.3635,-2.33,-2.2962,-2.264,-2.2453,-2.231,-2.231,-2.231,-2.231,-2.231,-2.231,-2.231,-2.231,-2.231,-2.231,-2.231,-2.231,-2.231,-2.231,-2.2163,-2.1928,0.0,0.0,0.0,0.0,0.0,0.0,0.0,0.0,0.0,0.0,0.0,0.0,0.0,0.0,0.0,0.0,0.0,0.0,0.0,0.0,0.0,0.0,0.0,0.0,0.0,0.0,0.0,0.0,0.0,0.0,0.0,0.0,0.0,-2.5198,0.0,-2.5615,-2.5974,-2.5889,-2.6044,-2.6438,-2.6959,-2.7723,-2.8597,-2.8914,-2.9414,-2.9941,-3.0222,-3.0628,-3.0915,-3.0162,0.0,0.0,0.0,0.0,-2.8324,-2.8147,-2.8208,-2.8652,-3.0047,0.0,-3.6616,-4.151,-4.3227,0.0,-4.2768,-4.1989,0.0,0.0,0.0,0.0,0.0,0.0,0.0,0.0,0.0,0.0,0.0,0.0,0.0,0.0,0.0,0.0,0.0,0.0,0.0,0.0,0.0,-2.3837,-2.4095,-2.4171,-2.419,-2.419,-2.419,-2.4042,-2.3692,-2.3367,-2.3017,-2.27,-2.244,-2.231,-2.231,-2.231,-2.231,-2.231,-2.231,-2.231,-2.231,-2.231,-2.231,-2.231,-2.231,-2.231,-2.231,-2.231,-2.2003,-2.1582,0.0,0.0,0.0,0.0,0.0,0.0,0.0,0.0,0.0,0.0,0.0,0.0,0.0,0.0,0.0,0.0,0.0,0.0,-2.2028,0.0,0.0,-2.4447,-2.4678,-2.4863,0.0,0.0,0.0,0.0,0.0,0.0,0.0,0.0,0.0,-2.3904,0.0,0.0,-2.4683,-2.5129,-2.5527,-2.5929,-2.6404,-2.7002,-2.7684,-2.853,-2.913,-2.9622,-2.9954,-2.9984,-3.0012,-3.0544,-3.029,0.0,0.0,0.0,-2.8376,-2.8749,-2.8519,-2.8662,0.0,0.0,-3.8518,0.0,-4.094,-4.06,0.0,0.0,0.0,0.0,0.0,0.0,0.0,0.0,0.0,0.0,0.0,0.0,0.0,0.0,0.0,0.0,0.0,0.0,0.0,0.0,0.0,0.0,-2.3365,-2.3721,-2.3765,-2.4042,-2.419,-2.419,-2.419,-2.4042,-2.3692,-2.3375,-2.3024,-2.27,-2.244,-2.231,-2.231,-2.231,-2.231,-2.231,-2.231,-2.231,-2.231,-2.231,-2.231,-2.231,-2.231,-2.231,-2.231,-2.231,-2.2003,-2.1582,0.0,0.0,0.0,0.0,0.0,0.0,0.0,0.0,0.0,0.0,0.0,0.0,0.0,0.0,0.0,-2.1553,-2.2158,-2.2677,-2.2948,-2.3179,-2.3569,-2.4156,-2.3676,-2.3441,-2.3578,0.0,0.0,0.0,0.0,0.0,0.0,-2.4804,-2.5003,0.0,0.0,0.0,0.0,0.0,0.0,-2.5045,-2.556,-2.6233,-2.696,-2.7522,-2.8294,-2.9142,-2.9401,-3.0096,-3.0862,-3.0768,-3.0825,-3.082,-3.0085,0.0,0.0,0.0,-2.8342,0.0,-3.1228,-3.3848,-3.6512,0.0,-3.9852,-3.9848,-3.9678,0.0,0.0,0.0,0.0,0.0,0.0,0.0,0.0,0.0,0.0,0.0,0.0,0.0,0.0,0.0,0.0,0.0,0.0,0.0,0.0,0.0,-2.3524,-2.3785,-2.3969,-2.4135,-2.419,-2.419,-2.4024,-2.3747,-2.3416,-2.309,-2.2779,-2.2474,-2.2361,-2.231,-2.231,-2.231,-2.2163,-2.1899,-2.1899,-2.1781,-2.1554,-2.1554,-2.1705,-2.1899,-2.1899,-2.1899,-2.1928,-2.2209,-2.1705,-2.0894,0.0,0.0,0.0,0.0,0.0,0.0,0.0,0.0,0.0,0.0,0.0,0.0,0.0,0.0,0.0,0.0,-2.2539,-2.3194,-2.3835,-2.3549,-2.3497,-2.3858,-2.3216,-2.2784,-2.2619,0.0,0.0,0.0,0.0,0.0,-2.3876,-2.4855,-2.5414,0.0,-2.5622,0.0,0.0,0.0,0.0,0.0,0.0,0.0,0.0,0.0,-2.7324,-2.8342,-2.8576,-2.9724,-3.1103,-3.0715,-3.1037,-3.1428,-3.0148,-2.9536,0.0,0.0,0.0,0.0,0.0,0.0,-3.3622,-3.6509,-3.7716,-3.8229,0.0,0.0,0.0,0.0,0.0,0.0,0.0,0.0,0.0,0.0,0.0,0.0,0.0,0.0,0.0,0.0,0.0,0.0,0.0,0.0,0.0,0.0,-2.3785,-2.395,-2.419,-2.419,-2.419,-2.419,-2.3969,-2.363,-2.3192,-2.2799,-2.2491,-2.231,-2.231,-2.231,-2.231,-2.231,-2.1994,-2.1444,-2.1562,-2.1368,-2.0991,-2.0991,-2.1181,-2.143,-2.143,-2.1491,-2.1628,-2.1886,-2.1354,-2.0516,0.0,0.0,0.0,0.0,0.0,0.0,0.0,0.0,0.0,0.0,0.0,0.0,0.0,-2.127,-2.1701,-2.1701,-2.2322,-2.32,-2.4278,-2.4319,-2.4328,-2.4348,-2.4315,0.0,-2.3542,0.0,0.0,0.0,0.0,0.0,-2.4557,-2.4605,-2.5,-2.5606,-2.5586,-2.5224,-2.4521,0.0,0.0,0.0,0.0,0.0,0.0,0.0,0.0,0.0,0.0,-2.8317,-2.9539,-3.0261,-3.0597,-3.0595,-3.0268,-2.9323,-2.8291,0.0,0.0,0.0,0.0,-2.9837,0.0,-3.2139,0.0,0.0,0.0,0.0,0.0,0.0,0.0,0.0,0.0,0.0,0.0,0.0,0.0,0.0,0.0,0.0,0.0,0.0,0.0,0.0,0.0,0.0,0.0,0.0,-2.3987,-2.4171,-2.419,-2.419,-2.419,-2.419,-2.4171,-2.3862,-2.3213,-2.2626,-2.231,-2.231,-2.231,-2.231,-2.231,-2.231,-2.1832,-2.1055,-2.144,-2.1368,-2.0991,-2.0991,-2.0991,-2.1023,-2.1023,-2.1275,-2.1568,-2.1181,-2.1023,-2.0894,0.0,0.0,0.0,0.0,0.0,0.0,0.0,0.0,0.0,0.0,0.0,0.0,0.0,-2.1668,-2.2178,-2.173,-2.1903,-2.2539,-2.3743,-2.35,-2.3631,-2.4358,-2.3723,-2.3197,-2.3011,0.0,0.0,0.0,0.0,-2.3507,-2.3949,-2.4387,-2.4747,-2.4987,-2.539,-2.5209,-2.4552,-2.4133,0.0,0.0,0.0,0.0,0.0,0.0,0.0,0.0,0.0,0.0,0.0,-2.911,-2.9591,-2.9977,-2.9403,-2.8851,-2.814,-2.7113,0.0,0.0,0.0,0.0,0.0,-2.9697,-3.1162,0.0,0.0,0.0,0.0,0.0,0.0,0.0,0.0,0.0,0.0,0.0,0.0,0.0,0.0,0.0,0.0,0.0,0.0,0.0,0.0,0.0,0.0,0.0,0.0,-2.4245,-2.4393,-2.4282,-2.419,-2.419,-2.3785,-2.3267,-2.2632,-2.2423,-2.231,-2.231,-2.231,-2.231,-2.231,-2.231,-2.1591,-2.036,-2.0503,-2.0397,-2.0189,-2.0189,-2.0316,-2.0543,-2.0561,-2.0649,-2.0765,-2.0959,-2.0648,-2.0112,0.0,0.0,0.0,0.0,0.0,0.0,0.0,0.0,0.0,0.0,0.0,0.0,0.0,0.0,-2.2759,-2.2091,-2.1816,-2.2163,-2.3169,-2.2891,-2.3111,-2.4111,-2.3404,-2.2993,-2.2993,0.0,0.0,0.0,0.0,0.0,0.0,-2.4074,-2.4283,-2.4298,-2.4747,-2.4791,0.0,0.0,0.0,-2.3566,0.0,0.0,-2.4142,0.0,0.0,0.0,0.0,0.0,0.0,0.0,0.0,0.0,-2.831,0.0,0.0,0.0,0.0,0.0,-2.4906,0.0,0.0,0.0,0.0,0.0,0.0,0.0,0.0,0.0,0.0,0.0,0.0,0.0,0.0,0.0,0.0,0.0,0.0,0.0,0.0,0.0,0.0,0.0,0.0,0.0,0.0,0.0,0.0,0.0,-2.4504,-2.4374,-2.4208,-2.4042,-2.3497,-2.294,-2.244,-2.2344,-2.231,-2.231,-2.231,-2.231,-2.231,-2.204,-2.1222,-1.9996,-1.9743,-1.9538,-1.9337,-1.9337,-1.966,-2.0101,-1.9852,-1.9854,-2.0007,-1.9905,-1.9646,-1.9231,0.0,0.0,0.0,0.0,0.0,0.0,0.0,0.0,0.0,0.0,0.0,0.0,0.0,0.0,0.0,-2.2717,-2.2062,-2.1961,-2.2643,-2.2701,-2.2978,-2.358,-2.3595,-2.3595,-2.3551,0.0,0.0,0.0,0.0,0.0,0.0,0.0,-2.3595,-2.3595,-2.358,-2.394,-2.4476,0.0,-2.3066,-2.3538,0.0,-2.3016,-2.3565,0.0,0.0,0.0,-2.462,-2.5613,0.0,-2.5754,0.0,0.0,0.0,0.0,0.0,0.0,0.0,0.0,0.0,0.0,0.0,0.0,0.0,0.0,0.0,0.0,0.0,0.0,0.0,0.0,0.0,0.0,0.0,0.0,0.0,0.0,0.0,0.0,0.0,0.0,0.0,0.0,0.0,0.0,0.0,0.0,-2.4805,-2.4708,-2.4524,-2.4485,-2.4245,-2.371,-2.3375,-2.3039,-2.27,-2.244,-2.231,-2.231,-2.231,-2.231,-2.2265,-2.1541,-2.0777,-1.9942,-1.9212,-1.8796,-1.8643,-1.8687,-1.9066,-1.9621,-1.8957,-1.8958,-1.9213,-1.8117,-1.8003,-1.8315,0.0,0.0,0.0,0.0,0.0,0.0,0.0,0.0,0.0,0.0,0.0,0.0,0.0,0.0,-2.2133,-2.1901,-2.1356,-2.1333,-2.1931,-2.2439,-2.2978,-2.358,-2.3595,-2.3407,-2.2946,0.0,0.0,0.0,0.0,0.0,0.0,0.0,0.0,0.0,-2.3154,-2.3024,-2.3201,-2.2862,0.0,0.0,-2.2893,-2.2717,0.0,0.0,0.0,0.0,0.0,-2.401,-2.5105,0.0,-2.5755,-2.7076,0.0,0.0,0.0,0.0,0.0,0.0,-2.2778,0.0,0.0,0.0,0.0,0.0,0.0,0.0,0.0,0.0,0.0,0.0,0.0,0.0,0.0,0.0,0.0,0.0,0.0,0.0,0.0,0.0,0.0,0.0,0.0,0.0,0.0,0.0,-2.4841,-2.4791,-2.4718,-2.4429,-2.4116,-2.371,-2.3375,-2.3039,-2.27,-2.244,-2.231,-2.231,-2.231,-2.231,-2.2265,-2.1541,-2.0622,-1.9583,-1.8605,-1.7985,-1.7745,-1.8406,-1.8802,-1.8973,-1.8771,-1.847,-1.8132,-1.7822,-1.7779,-1.7815,0.0,0.0,0.0,0.0,0.0,0.0,0.0,0.0,0.0,0.0,0.0,0.0,0.0,0.0,0.0,-2.2032,-2.1479,-2.1462,-2.2073,-2.2468,-2.2863,-2.3201,-2.348,-2.3334,0.0,0.0,0.0,0.0,0.0,0.0,0.0,0.0,0.0,0.0,0.0,0.0,0.0,0.0,0.0,0.0,-2.2362,0.0,0.0,-2.2505,-2.2407,0.0,0.0,0.0,-2.3865,-2.3134,-2.4109,0.0,0.0,0.0,0.0,0.0,0.0,0.0,0.0,0.0,0.0,0.0,0.0,0.0,-2.5485,-2.6749,0.0,0.0,0.0,0.0,0.0,0.0,0.0,0.0,0.0,0.0,0.0,0.0,0.0,0.0,0.0,0.0,0.0,-2.4962,-2.5037,-2.513,-2.505,-2.4955,-2.4814,-2.4409,-2.4042,-2.371,-2.3508,-2.3171,-2.27,-2.2553,-2.2423,-2.231,-2.231,-2.231,-2.2276,-2.1187,-2.0252,-1.9447,-1.8335,-1.7655,-1.7341,-1.8022,-1.8268,-1.8256,-1.7957,-1.7623,-1.7249,-1.7012,-1.6907,-1.6862,0.0,0.0,0.0,0.0,0.0,0.0,0.0,0.0,0.0,0.0,0.0,0.0,0.0,0.0,0.0,0.0,-2.2066,-2.1988,-2.2644,-2.2702,0.0,0.0,-2.3127,-2.311,0.0,0.0,0.0,0.0,0.0,0.0,0.0,0.0,0.0,0.0,0.0,0.0,0.0,0.0,0.0,-2.1354,-2.1432,-2.1446,0.0,0.0,-2.2268,-2.2125,-2.1785,-2.2334,-2.2952,-2.1548,-2.2117,0.0,0.0,0.0,0.0,0.0,-2.2671,0.0,0.0,0.0,0.0,0.0,0.0,0.0,-2.5244,-2.543,-2.591,0.0,0.0,0.0,0.0,0.0,0.0,0.0,0.0,0.0,0.0,0.0,0.0,0.0,0.0,0.0,-2.5041,-2.5203,-2.5303,-2.5303,-2.5274,-2.5141,-2.4839,-2.4448,-2.4099,-2.3803,-2.369,-2.3356,-2.2771,-2.2677,-2.2553,-2.231,-2.231,-2.2271,-2.2163,-2.0779,-1.9941,-1.9539,-1.847,-1.7762,-1.7389,-1.7567,-1.7632,-1.7537,-1.6921,-1.6667,-1.6547,-1.5994,-1.5799,-1.5799,0.0,0.0,0.0,0.0,0.0,0.0,0.0,0.0,0.0,0.0,0.0,0.0,0.0,0.0,0.0,0.0,-2.1968,-2.1938,-2.2588,-2.2683,0.0,-2.2678,-2.2297,-2.1787,0.0,0.0,0.0,0.0,0.0,0.0,0.0,0.0,0.0,0.0,0.0,0.0,0.0,0.0,0.0,-1.9354,-1.9811,0.0,-1.9984,-2.0157,-1.992,-1.958,-2.0532,-2.1325,-2.1977,-2.2658,-2.2821,-2.2862,0.0,0.0,0.0,-2.3054,0.0,0.0,0.0,0.0,0.0,0.0,0.0,0.0,-2.4317,-2.4748,-2.5032,0.0,0.0,0.0,0.0,0.0,0.0,0.0,0.0,0.0,0.0,0.0,0.0,0.0,0.0,0.0,-2.528,-2.5351,-2.539,-2.539,-2.5171,-2.503,-2.4962,-2.462,-2.4412,-2.4337,-2.365,-2.3231,-2.3091,-2.2613,-2.2344,-2.231,-2.231,-2.2107,-2.1709,-2.1199,-2.0711,-2.0262,-1.9495,-1.8647,-1.7772,-1.7547,-1.7239,-1.6892,-1.6758,-1.6383,-1.5978,-1.5844,-1.5799,-1.5799,0.0,0.0,0.0,0.0,0.0,0.0,0.0,0.0,0.0,0.0,0.0,0.0,0.0,0.0,0.0,0.0,0.0,0.0,0.0,0.0,0.0,-2.1783,-2.1738,-2.1434,-2.0819,-2.1093,0.0,0.0,0.0,0.0,0.0,0.0,0.0,0.0,0.0,0.0,0.0,0.0,-1.8484,-1.8196,-1.8505,0.0,-1.8999,-1.9088,-1.9088,-1.9133,-1.9936,-2.0627,-2.1319,-2.2552,-2.3041,0.0,0.0,-2.3894,-2.3947,0.0,-2.2976,-2.29,0.0,0.0,0.0,-2.289,0.0,0.0,0.0,-2.4124,-2.4307,-2.4286,0.0,0.0,0.0,0.0,0.0,0.0,0.0,0.0,0.0,0.0,0.0,0.0,0.0,0.0,-2.5186,-2.5367,-2.5437,-2.5399,-2.5146,-2.4998,-2.4998,-2.4782,-2.4604,-2.4504,-2.3908,-2.3466,-2.3189,-2.2746,-2.232,-2.1936,-2.1947,-2.172,-2.1279,-2.0774,-2.0533,-2.0438,-1.9553,-1.8664,-1.7865,-1.7506,-1.6914,-1.6258,-1.6263,-1.6069,-1.5799,-1.5799,-1.5799,-1.5799,-1.7567,0.0,0.0,0.0,0.0,0.0,0.0,0.0,0.0,0.0,0.0,0.0,0.0,0.0,0.0,0.0,0.0,0.0,0.0,0.0,0.0,0.0,0.0,-2.1122,-2.0605,-2.0605,0.0,0.0,0.0,0.0,0.0,0.0,0.0,0.0,0.0,0.0,0.0,0.0,0.0,-1.7402,0.0,-1.7556,-1.8148,-1.8598,-1.8931,-1.9258,-1.9772,-2.0345,-2.1011,-2.2206,-2.2933,-2.3459,-2.3636,-2.4009,0.0,0.0,0.0,0.0,0.0,0.0,0.0,0.0,0.0,-2.3189,0.0,0.0,0.0,-2.4117,0.0,0.0,0.0,0.0,0.0,0.0,0.0,0.0,0.0,0.0,0.0,0.0,0.0,0.0,0.0,-2.527,-2.5482,-2.539,-2.5187,-2.5072,-2.5072,-2.4885,-2.4731,-2.4554,-2.41,-2.359,-2.31,-2.2685,-2.2152,-2.1482,-2.1471,-2.1279,-2.0846,-2.0337,-2.0224,-2.0413,-1.9436,-1.8646,-1.7948,-1.7499,-1.672,-1.5799,-1.5799,-1.5799,-1.5799,-1.5799,-1.5799,-1.5799,-1.7183,-1.8827,0.0,0.0,0.0,0.0,0.0,0.0,0.0,0.0,0.0,0.0,0.0,0.0,0.0,0.0,0.0,0.0,-2.4548,0.0,0.0,0.0,0.0,0.0,-1.99,-1.99,-1.9926,0.0,0.0,0.0,0.0,0.0,0.0,0.0,-1.8434,0.0,0.0,0.0,-1.6382,0.0,-1.5894,-1.6314,0.0,-1.8635,-1.8776,-1.8604,-2.0075,-2.0974,-2.155,0.0,-2.2652,-2.2825,0.0,-2.3688,-2.3531,-2.2617,0.0,0.0,0.0,0.0,0.0,0.0,-2.2201,0.0,0.0,0.0,-2.3341,-2.3714,0.0,0.0,0.0,0.0,0.0,0.0,0.0,0.0,0.0,0.0,0.0,0.0,0.0,0.0,0.0,-2.4959,-2.5447,-2.5322,-2.5341,-2.5322,-2.5264,-2.4965,-2.4793,-2.4777,-2.3804,-2.3087,-2.2667,-2.2023,-2.1505,-2.1071,-2.1071,-2.0828,-2.0382,-2.0733,-2.0653,-2.0293,-2.0003,-1.9289,-1.8281,-1.7657,-1.6763,-1.5799,-1.5799,-1.5799,-1.5799,-1.5799,-1.5799,-1.5741,-1.6359,-1.754,0.0,0.0,0.0,0.0,0.0,0.0,0.0,0.0,0.0,0.0,0.0,0.0,0.0,0.0,0.0,-2.4556,0.0,0.0,0.0,0.0,0.0,0.0,-2.0335,-1.9977,-1.9798,0.0,-1.9798,0.0,0.0,0.0,0.0,0.0,-1.7917,0.0,-1.6485,0.0,-1.6359,0.0,0.0,0.0,0.0,-1.8506,-1.9364,-2.0229,-2.094,-2.1319,-2.169,0.0,-2.315,0.0,0.0,0.0,0.0,0.0,0.0,0.0,0.0,0.0,0.0,0.0,0.0,0.0,-2.2529,0.0,-2.3236,0.0,0.0,0.0,0.0,0.0,0.0,0.0,-1.8263,0.0,0.0,0.0,0.0,0.0,0.0,0.0,0.0,0.0,0.0,0.0,-2.5438,-2.5434,-2.5356,-2.5109,-2.4828,-2.4509,-2.3784,-2.3035,-2.2319,-2.1845,-2.1259,-2.0583,-2.0333,-2.0093,-1.9929,-1.9814,-1.9791,-1.9758,-1.9202,-1.8513,-1.7753,-1.7039,-1.6381,-1.5799,-1.5799,-1.5799,-1.5799,-1.5799,-1.5799,-1.5741,-1.5654,0.0,0.0,0.0,0.0,0.0,0.0,0.0,0.0,0.0,0.0,0.0,-2.5813,-2.5847,0.0,0.0,-2.6557,-2.5704,0.0,0.0,-2.2807,0.0,0.0,0.0,0.0,0.0,-1.9977,0.0,0.0,0.0,0.0,0.0,0.0,0.0,0.0,-1.658,-1.5653,0.0,0.0,-1.6564,-1.7091,-1.7845,-1.8669,-1.8892,-2.0106,-2.1748,-2.1968,-2.2026,-2.2206,-2.3622,-2.3865,0.0,-2.4369,0.0,0.0,0.0,0.0,0.0,-2.117,0.0,0.0,0.0,0.0,0.0,0.0,0.0,0.0,0.0,0.0,0.0,0.0,0.0,0.0,0.0,0.0,-1.7598,0.0,0.0,0.0,0.0,0.0,0.0,0.0,0.0,0.0,-2.5359,-2.5422,-2.5447,-2.5401,-2.5155,-2.4803,-2.4337,-2.3617,-2.2835,-2.1922,-2.1364,-2.0684,-1.9919,-1.9426,-1.9273,-1.9479,-1.908,-1.9022,-1.916,-1.8406,-1.7731,-1.7144,-1.6468,-1.6011,-1.5799,-1.5799,-1.5799,-1.5799,-1.5799,-1.5712,-1.5551,-1.541,-1.6035,0.0,0.0,0.0,0.0,0.0,0.0,0.0,0.0,0.0,0.0,0.0,0.0,0.0,0.0,0.0,-2.6989,-2.6465,0.0,-2.3223,0.0,0.0,-2.097,0.0,0.0,0.0,0.0,0.0,0.0,0.0,0.0,0.0,0.0,0.0,-1.576,-1.5419,-1.578,-1.6123,-1.657,-1.7314,-1.8366,-1.9599,0.0,-2.1008,-2.239,-2.3067,0.0,0.0,-2.4918,-2.4582,0.0,0.0,0.0,0.0,0.0,0.0,0.0,0.0,0.0,0.0,-2.002,0.0,0.0,0.0,0.0,-2.2327,0.0,0.0,0.0,0.0,0.0,0.0,0.0,0.0,0.0,0.0,0.0,0.0,0.0,0.0,0.0,0.0,0.0,0.0,-2.4997,-2.526,-2.5402,-2.541,-2.5023,-2.4685,-2.4417,-2.3253,-2.2282,-2.1526,-2.0289,-1.9405,-1.893,-1.8405,-1.8405,-1.893,-1.8893,-1.8856,-1.8657,-1.8014,-1.7356,-1.6697,-1.6068,-1.5799,-1.5799,-1.5799,-1.5799,-1.5799,-1.5799,-1.5507,-1.5074,0.0,0.0,0.0,0.0,0.0,0.0,0.0,-1.8041,0.0,0.0,0.0,0.0,0.0,-2.7287,-2.7861,0.0,0.0,-2.7952,-2.7087,-2.5264,0.0,0.0,0.0,-1.9982,0.0,0.0,0.0,0.0,0.0,0.0,0.0,0.0,0.0,0.0,0.0,-1.6757,0.0,0.0,0.0,0.0,0.0,-1.9611,-2.0495,0.0,0.0,-2.1907,-2.3003,-2.2852,0.0,-2.3708,-2.364,-2.3057,-2.3718,-2.3789,-2.3475,-2.2862,-2.2724,0.0,0.0,0.0,-2.0931,-2.0475,0.0,0.0,0.0,0.0,0.0,0.0,0.0,0.0,0.0,0.0,0.0,0.0,0.0,0.0,0.0,0.0,0.0,0.0,0.0,0.0,0.0,0.0,0.0,-2.4091,-2.4825,-2.5255,-2.5202,-2.4954,-2.4563,-2.4025,-2.3088,-2.2141,-2.118,-2.0131,-1.9368,-1.8893,-1.838,-1.838,-1.8878,-1.8461,-1.8156,-1.7981,-1.7324,-1.6667,-1.6084,-1.5888,-1.5799,-1.5799,-1.5799,-1.561,-1.5359,-1.5359,-1.5225,-1.5013,-1.5083,0.0,0.0,0.0,0.0,0.0,0.0,0.0,0.0,0.0,-2.4204,0.0,-2.6519,0.0,-2.7384,0.0,-2.8391,-2.7861,-2.6077,-2.4908,0.0,-2.1732,-2.0736,0.0,0.0,0.0,0.0,0.0,0.0,-1.915,0.0,0.0,0.0,0.0,0.0,-1.6819,-1.6569,0.0,-1.7832,0.0,0.0,-2.0067,0.0,0.0,-2.1699,-2.1684,0.0,-2.2474,-2.1767,-2.2873,-2.2838,-2.2392,-2.2801,-2.2935,-2.2863,-2.2469,-2.2497,-2.2464,-2.1345,-2.0988,0.0,-2.02,-1.9996,0.0,-2.022,0.0,0.0,0.0,0.0,0.0,0.0,0.0,0.0,0.0,0.0,0.0,0.0,-1.7427,0.0,0.0,0.0,0.0,0.0,0.0,-2.3456,-2.3714,-2.455,-2.5046,0.0,0.0,-2.4407,-2.3768,-2.2829,-2.1821,-2.0716,-1.9626,-1.8925,-1.8612,-1.8066,-1.8288,-1.9126,-1.8534,-1.8144,-1.7909,-1.7312,-1.6593,-1.5799,-1.5799,-1.5799,-1.577,-1.561,-1.5359,-1.5104,-1.5104,-1.4907,-1.4596,-1.521,0.0,0.0,0.0,-1.7137,0.0,0.0,0.0,-2.2168,0.0,-2.4315,-2.5612,-2.6145,-2.6819,-2.7024,-2.6506,-2.7406,-2.6741,-2.3773,-2.392,0.0,0.0,-2.0576,-2.0129,-1.8273,0.0,0.0,0.0,0.0,0.0,0.0,0.0,0.0,0.0,-1.661,0.0,-1.6104,-1.6825,-1.7462,-1.807,-1.9285,-1.9786,-1.9901,-2.0497,-2.1088,-2.1641,-2.2339,-2.2141,-2.1665,-2.2396,-2.2242,-2.1697,-2.1697,-2.1697,-2.1697,-2.1697,-2.2132,-2.2243,-2.0436,-2.0359,-2.0477,-1.9238,0.0,0.0,0.0,0.0,-2.0416,0.0,0.0,0.0,0.0,0.0,0.0,0.0,0.0,0.0,0.0,0.0,0.0,0.0,0.0,0.0,0.0,-2.1853,-2.2396,-2.3747,-2.4426,-2.4779,0.0,0.0,-2.4245,-2.3638,-2.2534,-2.1384,-2.0252,-1.8858,-1.8145,-1.8145,-1.7666,-1.8182,-1.9585,-1.9133,-1.8758,-1.8423,-1.7925,-1.6967,-1.5844,-1.5785,-1.577,-1.5712,-1.5255,-1.5074,-1.5043,-1.5043,-1.4533,-1.3802,-1.4586,-1.6398,-1.7881,0.0,-1.7524,-1.8017,0.0,0.0,0.0,0.0,-2.4663,-2.5189,-2.4923,-2.5456,-2.5812,-2.569,-2.608,0.0,0.0,0.0,0.0,-2.06,-1.9448,-1.8248,-1.7161,-1.777,-1.7392,-1.5968,0.0,0.0,-1.7285,0.0,0.0,0.0,0.0,0.0,-1.7081,-1.7664,-1.8253,-1.8769,-1.9058,-1.9748,0.0,0.0,-2.0436,-2.1083,-2.17,-2.1511,-2.1106,-2.1753,-2.1835,-2.1697,-2.1697,-2.1697,-2.1697,-2.1697,-2.1546,-2.1248,-2.0778,-1.9812,-1.9085,-1.9541,-1.8967,-1.8574,0.0,0.0,0.0,0.0,0.0,0.0,0.0,0.0,0.0,0.0,0.0,0.0,0.0,0.0,0.0,-1.7747,0.0,0.0,-1.878,-2.0355,-2.1403,-2.168,-2.3235,-2.4321,-2.4559,0.0,0.0,-2.3845,-2.2914,-2.1972,-2.1042,-1.9457,-1.8688,-1.8688,-1.891,-1.9207,-1.9591,-1.969,-1.9513,-1.9075,-1.7975,-1.7105,-1.6428,-1.5609,-1.5285,-1.5225,-1.4814,-1.447,-1.4214,-1.4214,-1.3868,-1.3357,-1.4698,0.0,0.0,-1.8802,0.0,0.0,-2.0744,0.0,0.0,-2.3422,-2.4079,0.0,-2.3859,-2.4632,-2.4951,-2.4476,-2.4858,0.0,-2.3133,0.0,0.0,-1.939,-1.8458,-1.7519,-1.6465,-1.6848,0.0,-1.541,0.0,0.0,-1.6406,0.0,0.0,0.0,0.0,-1.6568,0.0,-1.751,-1.8166,-1.8694,-1.8932,0.0,0.0,-1.9611,-1.9559,-1.972,-2.003,-2.0105,-2.0008,-2.0109,-2.0159,-2.0199,-2.0452,-2.0545,-2.0545,-2.0545,-2.0496,-2.0332,-1.9592,-1.8861,-1.8446,-1.8983,-1.8607,-1.838,-1.9442,-1.969,-1.9747,0.0,0.0,0.0,0.0,0.0,0.0,0.0,0.0,0.0,0.0,0.0,0.0,0.0,-1.6714,0.0,-1.7107,-1.8982,-2.0435,-2.1013,-2.265,-2.3765,0.0,0.0,0.0,-2.3788,-2.3013,-2.207,-2.0942,-1.9603,-1.8987,-1.92,-1.9477,-1.9924,-2.0487,-2.0432,-2.0001,-1.9168,-1.8247,-1.724,-1.6219,-1.5445,-1.5104,-1.5043,-1.447,-1.3967,-1.3581,-1.3581,-1.3425,-1.3198,-1.5373,0.0,0.0,0.0,0.0,0.0,0.0,-2.169,0.0,-2.2914,0.0,-2.3238,-2.3125,-2.3974,-2.42,-2.3144,0.0,-2.2909,-2.0762,-2.0401,-1.9418,-1.7549,-1.7676,-1.7321,-1.6145,-1.6125,-1.585,0.0,0.0,0.0,0.0,0.0,0.0,0.0,0.0,0.0,0.0,-1.6901,-1.7702,-1.8242,-1.8731,-1.897,-1.897,-1.8895,-1.8631,-1.8191,-1.8129,-1.8455,-1.8795,-1.8367,-1.8204,-1.8292,-1.8769,-1.892,-1.892,-1.892,-1.9281,-1.9316,-1.7809,-1.7733,-1.806,-1.799,-1.8066,-1.838,-1.9369,-1.9603,-1.9603,-1.9603,-1.953,-1.9479,0.0,0.0,0.0,0.0,0.0,0.0,0.0,0.0,0.0,0.0,0.0,0.0,0.0,-1.7813,-1.9431,-2.0812,-2.2071,-2.2984,0.0,0.0,0.0,-2.3467,-2.2953,-2.2004,-2.0615,0.0,-1.9307,-1.9797,-1.9823,-2.0418,-2.1458,-2.1181,-2.0315,-1.8961,-1.8558,-1.7455,-1.586,-1.5268,-1.4937,-1.4783,-1.4084,-1.3547,-1.3198,-1.3198,-1.3198,-1.3198,-1.6867,0.0,0.0,0.0,0.0,-1.8871,-2.0516,-2.2023,-2.2859,-2.2656,-2.3217,-2.3554,-2.3114,-2.3271,-2.3154,-2.2678,-2.2053,0.0,0.0,0.0,0.0,-1.7939,-1.7238,-1.6671,-1.6135,-1.6125,-1.585,0.0,0.0,0.0,0.0,0.0,0.0,0.0,0.0,0.0,-1.5668,-1.6901,0.0,-1.8216,-1.8304,-1.8631,-1.8933,-1.853,-1.8292,-1.8141,-1.7689,-1.7877,-1.8342,-1.8242,-1.8204,-1.8229,-1.8317,-1.8355,-1.8355,-1.8355,-1.8109,-1.7796,-1.7471,-1.7112,-1.6923,-1.7338,-1.7787,-1.8263,-1.8893,-1.9043,-1.9043,-1.9043,-1.8688,-1.838,-1.838,0.0,0.0,0.0,0.0,0.0,0.0,0.0,0.0,0.0,0.0,-1.5739,0.0,0.0,-1.8218,0.0,0.0,0.0,0.0,0.0,0.0,0.0,-2.2914,0.0,0.0,0.0,-2.0288,-2.0778,-2.109,-2.107,-2.0719,-2.1244,-2.0559,-1.8901,-1.8542,-1.767,-1.6442,-1.5151,-1.4181,-1.3514,-1.3391,-1.3267,-1.3198,-1.3198,-1.3198,-1.3198,0.0,0.0,0.0,0.0,0.0,0.0,0.0,-2.0762,0.0,-2.1845,-2.2611,-2.3002,-2.2495,-2.2678,-2.2669,-2.2224,-2.1428,-2.0614,-1.9961,-1.872,-1.7708,-1.7009,-1.6592,-1.6184,-1.5732,-1.5723,-1.5625,-1.541,0.0,0.0,0.0,0.0,0.0,0.0,0.0,-1.4318,0.0,0.0,0.0,-1.6884,-1.752,-1.7728,-1.7664,-1.7772,-1.7589,-1.7287,-1.7036,-1.7099,-1.7325,-1.7325,-1.7325,-1.7375,-1.7689,-1.7777,-1.7777,-1.7777,-1.7589,-1.7313,-1.7024,-1.6735,-1.6637,-1.7146,-1.7504,-1.7827,-1.838,-1.8496,-1.8496,-1.8496,-1.8302,-1.8106,-1.8106,-1.8106,0.0,0.0,0.0,0.0,0.0,0.0,0.0,0.0,0.0,0.0,0.0,0.0,0.0,0.0,0.0,0.0,0.0,0.0,0.0,0.0,0.0,0.0,0.0,0.0,0.0,-2.1313,-2.1503,-2.1534,-2.1434,-2.1192,-2.0312,-1.8917,-1.82,-1.7106,-1.5779,-1.4657,-1.3802,-1.3198,-1.3198,-1.3198,-1.3198,-1.3198,-1.3198,-1.3198,0.0,-1.6565,0.0,0.0,-1.8096,0.0,-1.8411,-1.902,-1.9824,-2.0758,-2.1383,-2.1705,-2.1369,-2.1483,-2.1381,-2.1033,-2.04,-1.9545,-1.8566,-1.8016,-1.714,-1.5921,-1.5779,-1.5527,-1.5118,-1.4906,-1.4858,0.0,0.0,0.0,0.0,0.0,0.0,0.0,0.0,0.0,0.0,0.0,-1.5533,-1.5581,-1.6594,-1.6686,-1.6267,-1.6657,-1.6633,-1.6293,-1.6293,-1.638,-1.6522,-1.6522,-1.6522,-1.6597,-1.7049,-1.72,-1.72,-1.72,-1.72,-1.7099,-1.6635,-1.6522,-1.6595,-1.7034,-1.7229,-1.7435,-1.7827,-1.7947,-1.7947,-1.7947,-1.7827,-1.7787,-1.7907,-1.7827,0.0,0.0,0.0,0.0,0.0,0.0,0.0,0.0,0.0,0.0,-1.4503,0.0,0.0,0.0,0.0,0.0,-1.9188,0.0,0.0,0.0,0.0,-2.194,-2.1925,0.0,-2.1338,-2.1742,-2.1742,-2.1807,-2.1877,-2.0904,-1.9799,-1.8594,-1.7667,-1.6383,-1.493,-1.4187,-1.3609,-1.3198,-1.3198,-1.3198,-1.3198,-1.3198,-1.3198,-1.3198,0.0,0.0,0.0,0.0,0.0,0.0,-1.6999,-1.736,-1.8033,-1.9447,-1.9525,-1.9436,-1.9341,-1.8941,-1.843,-1.7938,-1.809,-1.7495,-1.5866,-1.6437,-1.6257,-1.504,-1.4574,-1.4351,-1.4332,-1.3336,-1.3162,0.0,0.0,-1.2987,0.0,0.0,0.0,0.0,0.0,0.0,0.0,-1.5037,-1.5488,-1.5533,-1.5629,-1.5629,-1.5525,-1.513,-1.5232,-1.5676,-1.5676,-1.6051,-1.6522,-1.6522,-1.6522,-1.6522,-1.6584,-1.6597,-1.6597,-1.6597,-1.6597,-1.6584,-1.6534,-1.6522,-1.6522,-1.6552,-1.6951,-1.7312,-1.7353,-1.7394,-1.7394,-1.7394,-1.6993,-1.6795,-1.7312,-1.6993,-1.6824,0.0,0.0,0.0,0.0,0.0,-1.5774,-1.5616,0.0,0.0,0.0,-1.3482,0.0,0.0,-1.5093,0.0,0.0,0.0,0.0,-2.0396,0.0,-2.147,-2.1632,-2.1568,-2.1787,-2.2214,-2.2214,-2.168,-2.0655,-2.024,-1.9127,-1.7432,-1.698,-1.5941,-1.4533,-1.4088,-1.3611,-1.3198,-1.3198,-1.3198,-1.3198,-1.3198,-1.3198,-1.3198,0.0,0.0,0.0,0.0,0.0,0.0,0.0,-1.5972,-1.6147,-1.669,-1.8009,-1.8598,-1.8213,-1.7929,-1.7743,-1.7752,-1.6905,-1.6436,-1.6565,-1.5469,-1.4739,-1.451,-1.383,-1.3493,-1.3485,-1.289,-1.2946,0.0,0.0,0.0,0.0,0.0,0.0,0.0,0.0,-1.3238,-1.3296,-1.4111,-1.4291,-1.4024,-1.4719,-1.4802,-1.4497,-1.4638,-1.4835,-1.505,-1.505,-1.5197,-1.5433,-1.5433,-1.5876,-1.6522,-1.6522,-1.6522,-1.6522,-1.6522,-1.6522,-1.6522,-1.6522,-1.6522,-1.6434,-1.6107,-1.6173,-1.6248,-1.5942,-1.5865,-1.5967,-1.626,-1.6452,-1.6552,-1.6795,-1.6637,-1.6562,0.0,0.0,0.0,0.0,0.0,0.0,0.0,0.0,-1.2994,0.0,-1.3798,-1.4122,-1.4318,0.0,0.0,0.0,0.0,0.0,-1.9824,0.0,-2.0955,-2.1591,-2.1877,-2.2119,-2.231,-2.2006,-2.1636,-2.1116,-1.9704,-1.7913,-1.5961,-1.5536,-1.4921,-1.412,-1.3643,-1.3361,-1.3198,-1.3198,-1.3198,-1.3198,-1.3198,-1.3198,-1.3198,-1.4548,0.0,-1.4949,0.0,-1.5172,-1.5057,-1.5278,-1.4967,-1.4724,-1.4767,-1.6023,-1.6844,-1.6578,-1.6273,-1.6296,-1.6773,-1.5746,-1.54,-1.6034,-1.4637,-1.3714,-1.3365,-1.2761,0.0,-1.2679,-1.2158,-1.2321,-1.3229,-1.2599,0.0,0.0,0.0,0.0,0.0,-1.2881,-1.2881,-1.2929,-1.3324,-1.3286,-1.2978,-1.3836,-1.3931,-1.36,-1.4014,-1.4294,-1.4422,-1.4422,-1.456,-1.4698,-1.4698,-1.5242,-1.602,-1.6194,-1.638,-1.6522,-1.6522,-1.6522,-1.6522,-1.6522,-1.6396,-1.6183,-1.5793,-1.5567,-1.5354,-1.5004,-1.4916,-1.5016,-1.5379,-1.5894,-1.6271,-1.6271,-1.6409,-1.6471,-1.6308,0.0,0.0,0.0,0.0,0.0,0.0,-1.2904,-1.2966,-1.3515,-1.4317,-1.4856,0.0,0.0,0.0,0.0,0.0,0.0,0.0,0.0,0.0,0.0,-2.1877,-2.2023,-2.1911,-2.1703,-2.1363,-2.087,-1.8687,-1.6755,-1.5081,-1.4552,-1.4164,-1.3857,-1.3377,-1.3091,-1.296,-1.296,-1.2854,-1.2749,-1.2914,-1.2867,-1.2761,-1.4202,-1.4529,-1.4623,-1.4923,-1.502,-1.5013,-1.5028,-1.4496,-1.4124,-1.4139,-1.3658,-1.3477,-1.4041,-1.3373,-1.321,-1.4171,-1.441,-1.4057,-1.3035,-1.3882,-1.3502,0.0,0.0,-1.1255,-1.1903,-1.0864,-1.0971,-1.2316,0.0,0.0,-1.2891,0.0,-1.2881,-1.2881,-1.2881,-1.2881,-1.2881,-1.2929,-1.2929,-1.2881,-1.2929,-1.2929,-1.2929,-1.2929,-1.3286,-1.3815,-1.3815,-1.419,-1.4698,-1.4698,-1.4698,-1.4835,-1.541,-1.6008,-1.6522,-1.6522,-1.6522,-1.6522,-1.6522,-1.612,-1.5706,-1.5693,-1.5279,-1.4916,-1.4916,-1.4916,-1.4916,-1.4916,-1.5329,-1.5706,-1.5706,-1.6145,-1.6333,-1.5793,0.0,0.0,0.0,0.0,0.0,-1.4594,-1.3077,-1.2654,-1.4507,-1.4876,0.0,0.0,0.0,0.0,0.0,0.0,0.0,-1.8728,-1.8803,0.0,-2.0988,-2.1401,-2.1401,-2.1033,-2.1401,-2.0857,-1.9349,-1.715,-1.5755,-1.5052,-1.4251,-1.3904,-1.3857,-1.3377,-1.2901,-1.2408,-1.2408,-1.2081,-1.1687,-1.222,-1.2128,-1.1792,-1.4402,-1.4823,-1.485,-1.495,-1.4676,-1.4409,-1.4388,-1.3841,-1.3454,-1.3493,-1.3192,-1.2995,-1.3201,-1.2726,-1.2782,0.0,-1.2714,-1.2429,0.0,-1.2062,-1.1325,-1.1066,-1.0399,-1.0158,-1.0401,-0.9827,-1.0253,-1.164,0.0,0.0,0.0,-1.2881,-1.2881,-1.2881,-1.2881,-1.2881,-1.2881,-1.2881,-1.2881,-1.2881,-1.2881,-1.2881,-1.2881,-1.2881,-1.3017,-1.32,-1.32,-1.3286,-1.3478,-1.3478,-1.4025,-1.4744,-1.4926,-1.5421,-1.5964,-1.638,-1.6522,-1.6434,-1.6057,-1.5831,-1.5517,-1.479,-1.4475,-1.4249,-1.3835,-1.4048,-1.4349,-1.4349,-1.479,-1.5254,-1.563,-1.5831,-1.6019,-1.622,-1.6258,0.0,0.0,0.0,0.0,-1.284,-1.3134,-1.379,-1.4822,-1.5599,0.0,0.0,0.0,0.0,0.0,0.0,0.0,0.0,-1.8426,0.0,-2.0035,-2.0821,-2.1134,-2.0988,-2.0815,-1.9698,-1.7792,-1.6621,-1.5445,-1.4284,-1.401,-1.3723,-1.3377,-1.2854,-1.256,-1.2414,-1.2415,-1.2091,-1.1715,-1.2263,-1.2168,-1.1803,-1.351,-1.3995,-1.405,-1.4396,-1.4162,-1.3888,-1.3774,-1.336,-1.3054,-1.3037,-1.2689,-1.2466,-1.2469,-1.2063,0.0,-1.3214,-1.2165,-1.1817,-1.2712,-1.1277,-1.035,-1.0248,-0.9674,-0.946,-0.9729,-0.9542,0.0,-1.1107,-1.1124,-1.1783,-1.2881,-1.2881,-1.2881,-1.2881,-1.2881,-1.2881,-1.2881,-1.2881,-1.2881,-1.2881,-1.2881,-1.2881,-1.2881,-1.2881,-1.2881,-1.2881,-1.2881,-1.2881,-1.2881,-1.2881,-1.3382,-1.4071,-1.4283,-1.4654,-1.5128,-1.5984,-1.6358,-1.6396,-1.5844,-1.5542,-1.5255,-1.4563,-1.4085,-1.3647,-1.3286,-1.3496,-1.3783,-1.3783,-1.4223,-1.4702,-1.5054,-1.5241,-1.5492,-1.5844,-1.5731,-1.5141,-1.3852,0.0,0.0,0.0,0.0,0.0,0.0,-1.6138,-1.6522,0.0,0.0,0.0,0.0,0.0,0.0,-1.7282,-1.7922,0.0,-1.9015,-1.9999,-2.0404,-2.0193,-1.9459,-1.8268,-1.669,-1.571,-1.4764,-1.3904,-1.3723,-1.3484,-1.3151,-1.2618,-1.227,-1.2063,-1.171,-1.1281,-1.0902,-1.1467,-1.1388,-1.1043,-1.1679,-1.2202,-1.2566,0.0,-1.3512,0.0,-1.322,-1.2913,-1.2752,-1.2775,-1.2278,-1.188,-1.1902,-1.1383,-1.1587,-1.2994,0.0,0.0,0.0,-1.1178,-1.0297,-0.9218,-0.8951,-0.9106,-0.971,-0.971,-1.0064,-1.0813,-1.1458,-1.2187,-1.2881,-1.2881,-1.2881,-1.2881,-1.2881,-1.2881,-1.2881,-1.2881,-1.2881,-1.2881,-1.2881,-1.2881,-1.2881,-1.2881,-1.2881,-1.2881,-1.2881,-1.2881,-1.2881,-1.2842,-1.288,-1.3016,-1.3595,-1.3811,-1.4141,-1.5298,-1.6015,-1.6333,-1.5743,-1.5229,-1.489,-1.4815,-1.3986,-1.3198,-1.3198,-1.3198,-1.3198,-1.3198,-1.3647,-1.4035,-1.4072,-1.4513,-1.4865,-1.4903,-1.4475,-1.4135,-1.4099,0.0,0.0,0.0,0.0,0.0,0.0,-1.6522,-1.6522,0.0,0.0,0.0,0.0,0.0,-1.6739,-1.7213,-1.7282,-1.7544,-1.8035,-1.8994,-1.9258,-1.876,-1.7577,-1.6646,-1.595,-1.4544,-1.3869,-1.3844,-1.3377,-1.3198,-1.3138,-1.256,-1.1995,-1.1489,-1.0521,-0.9846,-0.9431,-1.0032,-0.9964,-0.9648,0.0,0.0,-1.204,-1.2128,-1.2627,-1.2939,-1.2866,-1.2599,-1.2418,-1.2438,-1.2103,-1.1902,-1.1931,-1.1383,-1.1058,-1.12,-1.0875,-1.0483,-1.0235,-0.9848,-0.9412,-0.8918,-0.8844,-0.8857,-0.9008,-0.9061,-0.9614,-1.0813,-1.1458,-1.2187,-1.2881,-1.2881,-1.2881,-1.2881,-1.2881,-1.2881,-1.2881,-1.2881,-1.2881,-1.2881,-1.2881,-1.2881,-1.2881,-1.2881,-1.2881,-1.2881,-1.2881,-1.2881,-1.2832,-1.25,-1.2679,-1.3072,-1.3244,-1.365,-1.4169,-1.4803,-1.545,-1.568,-1.4739,-1.4689,-1.4676,-1.3835,-1.3386,-1.3198,-1.3198,-1.3198,-1.3198,-1.3198,-1.3298,-1.3546,-1.4009,-1.4186,-1.4412,-1.484,-1.4802,-1.4587,-1.4165,-1.4344,0.0,0.0,-1.5319,-1.5782,-1.6416,-1.6522,-1.6522,0.0,0.0,0.0,0.0,-1.6522,-1.6547,-1.6683,-1.7106,-1.7362,-1.75,-1.8125,-1.8201,-1.767,-1.6445,-1.559,-1.507,-1.4256,-1.3689,-1.3364,-1.3257,-1.3198,-1.3091,-1.1849,-1.1264,-1.1055,-1.0123,-0.9438,-0.9095,-0.9655,-0.9338,-0.8714,-0.9303,-1.0362,-1.1205,-1.1537,-1.2311,-1.2775,-1.2565,-1.2291,-1.2104,-1.2104,-1.176,-1.1465,-1.1476,-1.0937,-1.0547,-1.0395,-1.0241,-0.9905,-0.9484,-0.9279,-0.9057,-0.8824,-0.8804,-0.8804,-0.8804,-0.8804,-0.9316,-1.0364,-1.1015,-1.1674,-1.2393,-1.2725,-1.2881,-1.2881,-1.2881,-1.2881,-1.2881,-1.2881,-1.2881,-1.2881,-1.2881,-1.2881,-1.2881,-1.2881,-1.2881,-1.2881,-1.2881,-1.2881,-1.2812,-1.2383,-1.2437,-1.266,-1.2491,-1.2816,-1.3367,-1.3628,-1.4494,-1.5128,-1.4311,-1.4311,-1.4324,-1.3411,-1.3198,-1.3198,-1.3198,-1.3198,-1.3198,-1.3198,-1.3198,-1.3286,-1.3622,-1.3672,-1.3772,-1.4074,-1.4362,-1.445,-1.416,-1.4759,0.0,-1.5315,-1.574,-1.6183,-1.6484,-1.6522,-1.6522,-1.6522,-1.6522,0.0,-1.6095,-1.6095,-1.6238,-1.6479,-1.6764,-1.6913,-1.6913,-1.7213,-1.7062,-1.6466,-1.5618,-1.4888,-1.4353,-1.3844,-1.3437,-1.3198,-1.3198,-1.3079,-1.2783,-1.1526,-1.0876,-1.0561,-0.9439,-0.8861,-0.8643,-0.8784,-0.8521,-0.8137,-0.8158,-0.9165,-1.011,-1.0856,-1.166,-1.2207,-1.2109,-1.1834,-1.1721,-1.187,-1.1356,-1.0995,-1.0995,-1.0468,-1.01,-1.0053,-1.0013,-0.9773,-0.9216,-0.9143,-0.9065,-0.8818,-0.8804,-0.8804,-0.8804,-0.8804,-0.9113,-0.9814,-1.0466,-1.1166,-1.1814,-1.2559,-1.2881,-1.2881,-1.2881,-1.2881,-1.2881,-1.2881,-1.2881,-1.2881,-1.2881,-1.2881,-1.2881,-1.2881,-1.2881,-1.2871,-1.2803,-1.2783,-1.2705,-1.2197,-1.1986,-1.1963,-1.1582,-1.1809,-1.2235,-1.2352,-1.3403,-1.4437,-1.4085,-1.3959,-1.3846,-1.3311,-1.3198,-1.3198,-1.3198,-1.3198,-1.3198,-1.3198,-1.3198,-1.3198,-1.3198,-1.3198,-1.3223,-1.3311,-1.3783,-1.4148,-1.4311,0.0,-1.5731,-1.5806,-1.6233,-1.6522,-1.6522,-1.6522,-1.6522,-1.6522,-1.6522,-1.6238,-1.5632,-1.5548,-1.57,-1.6127,-1.6262,-1.6373,-1.6386,-1.6208,-1.5853,-1.5263,-1.4793,-1.4293,-1.3783,-1.3377,-1.3198,-1.3198,-1.3032,-1.2795,-1.2408,-1.1214,-1.0519,-1.0097,-0.8741,-0.8176,-0.8098,-0.7812,-0.7627,-0.751,-0.6623,-0.7561,-0.8312,-0.8358,-0.9214,-1.0089,-1.0944,-1.0791,-1.0916,-1.1793,-1.1356,-1.0995,-1.0995,-1.0468,-1.002,-0.9773,-0.9519,-0.9283,-0.919,-0.9011,-0.8851,-0.8811,-0.8804,-0.8804,-0.8804,-0.8804,-0.9113,-0.9814,-1.0466,-1.1166,-1.1814,-1.2559,-1.2881,-1.2881,-1.2881,-1.2881,-1.2881,-1.2881,-1.2881,-1.2881,-1.2881,-1.2881,-1.2881,-1.2881,-1.2881,-1.2832,-1.2461,-1.2334,-1.2207,-1.1387,-1.1113,-1.1103,-1.1035,-1.1105,-1.1388,-1.2174,-1.2635,-1.295,-1.3231,-1.3323,-1.3311,-1.3223,-1.3198,-1.3198,-1.3198,-1.3198,-1.3198,-1.3198,-1.3198,-1.3198,-1.3198,-1.3198,-1.3348,-1.3883,-1.4035,-1.4412,-1.5304,0.0,-1.5869,-1.6333,-1.6471,-1.6522,-1.6522,-1.6522,-1.6522,-1.6522,-1.6522,-1.6238,-1.5632,-1.527,-1.4903,-1.4497,-1.5305,-1.5752,-1.5819,-1.4942,-1.4401,-1.4293,-1.3736,-1.3389,-1.3317,-1.3245,-1.3198,-1.3151,-1.2349,-1.2186,-1.2351,-1.023,-0.9536,-0.9654,-0.8323,-0.7579,-0.7279,-0.7227,-0.679,-0.6191,-0.6386,-0.7288,-0.8019,-0.7939,-0.8595,-0.9337,-0.9849,-0.9532,-0.95,-0.9921,-0.9667,-0.9509,-0.9812,-0.9444,-0.9277,-0.9409,-0.9178,-0.9005,-0.9005,-0.8884,-0.8804,-0.8804,-0.8804,-0.8804,-0.8804,-0.8804,-0.8956,-0.9263,-0.9909,-1.0618,-1.1266,-1.1999,-1.252,-1.2881,-1.2881,-1.2881,-1.2881,-1.2881,-1.2881,-1.2881,-1.2881,-1.2881,-1.2852,-1.2617,-1.2529,-1.2471,-1.2031,-1.1865,-1.1768,-1.1123,-1.0908,-1.0869,-1.0645,-1.0966,-1.1511,-1.1957,-1.2469,-1.2908,-1.3129,-1.3198,-1.3198,-1.3198,-1.3198,-1.3198,-1.3198,-1.3198,-1.3198,-1.3198,-1.3198,-1.3198,-1.3198,-1.3198,-1.3421,-1.3997,-1.4337,0.0,0.0,-1.5957,-1.6233,-1.6484,-1.6522,-1.6522,-1.6522,-1.6245,-1.607,-1.607,-1.5806,-1.5373,-1.4767,-1.4292,-1.3735,-1.3141,-1.4227,-1.4666,-1.4396,-1.42,-1.3796,-1.3245,-1.3198,-1.3198,-1.3198,-1.3198,-1.3079,-1.2795,-1.2349,-1.201,-1.1572,-0.9999,-0.9223,-0.8872,-0.7734,-0.7057,-0.6748,-0.6532,-0.6215,-0.5885,-0.6363,-0.6958,-0.748,-0.7524,-0.7948,-0.8447,-0.8665,-0.8334,-0.8135,-0.8348,-0.8083,-0.8112,-0.8676,-0.854,-0.8604,-0.9147,-0.8971,-0.8804,-0.8804,-0.8804,-0.8804,-0.8804,-0.8804,-0.8804,-0.8804,-0.8804,-0.8804,-0.8804,-0.9458,-1.0064,-1.0568,-1.1233,-1.195,-1.2657,-1.2657,-1.2725,-1.2881,-1.2881,-1.2881,-1.2871,-1.2773,-1.2725,-1.2686,-1.2246,-1.207,-1.2021,-1.1572,-1.1449,-1.1381,-1.0908,-1.0762,-1.0713,-1.0381,-1.085,-1.1516,-1.1737,-1.2473,-1.3198,-1.3198,-1.3198,-1.3198,-1.3198,-1.3198,-1.3198,-1.3198,-1.3198,-1.3198,-1.3198,-1.3198,-1.3235,-1.3396,-1.3421,-1.3647,-1.4362,0.0,0.0,0.0,-1.6258,-1.6522,-1.6522,-1.6522,-1.6459,-1.6308,-1.5932,-1.5643,-1.5517,-1.5155,-1.4592,-1.3865,-1.3333,-1.271,-1.2027,-1.2998,-1.3443,-1.3283,-1.3461,-1.3161,-1.2337,-1.269,-1.2854,-1.2867,-1.2973,-1.2783,-1.2315,-1.2213,-1.1731,-1.0903,-0.9746,-0.8921,-0.831,-0.7299,-0.67,-0.6427,-0.6106,-0.5931,-0.5822,-0.6034,-0.6022,-0.5967,-0.6108,-0.6072,-0.6384,-0.73,-0.7203,-0.7274,-0.8132,-0.7906,-0.7931,-0.8545,-0.835,-0.8471,-0.9128,-0.8971,-0.8804,-0.8804,-0.8804,-0.8804,-0.8804,-0.8804,-0.8804,-0.8804,-0.8804,-0.8804,-0.8804,-0.9458,-0.9814,-0.9865,-1.0568,-1.1216,-1.1864,-1.1864,-1.2236,-1.2881,-1.2881,-1.2881,-1.2842,-1.2441,-1.2229,-1.2227,-1.1777,-1.1655,-1.1596,-1.1113,-1.0957,-1.0889,-1.0469,-1.0332,-1.0322,-1.0293,-1.0361,-1.0582,-1.1516,-1.2473,-1.3198,-1.3198,-1.3198,-1.3198,-1.3198,-1.3198,-1.3198,-1.3198,-1.3198,-1.3198,-1.3198,-1.3198,-1.3348,-1.3934,-1.4022,-1.4374,-1.5392,0.0,0.0,-1.6384,-1.6497,-1.6522,-1.6522,-1.6522,-1.6325,-1.5802,-1.5709,-1.548,-1.5016,-1.4928,-1.4411,-1.3313,-1.2884,-1.2152,-1.1134,-1.1612,-1.2318,-1.3283,-1.2424,-1.1931,-1.1849,-1.1895,-1.1907,-1.1907,-1.2349,-1.2291,-1.1838,-1.1378,-1.1148,-1.0871,-0.9065,-0.835,-0.831,-0.7306,-0.6648,-0.6309,-0.6293,-0.6041,-0.5673,-0.5878,-0.584,-0.582,-0.5878,-0.5769,-0.5807,-0.6154,-0.5993,-0.5921,-0.6237,-0.6079,-0.6203,-0.6827,-0.6793,-0.6972,-0.7548,-0.7895,-0.8121,-0.8121,-0.854,-0.8804,-0.8804,-0.8804,-0.8804,-0.8804,-0.8804,-0.8804,-0.8804,-0.9061,-0.9413,-0.9814,-1.0064,-1.0517,-1.1166,-1.1166,-1.1442,-1.1873,-1.1873,-1.1959,-1.2096,-1.1885,-1.1816,-1.1768,-1.1328,-1.1162,-1.1103,-1.0674,-1.0518,-1.0498,-1.0332,-1.0107,-0.9959,-1.0558,-1.0745,-1.105,-1.2295,-1.2908,-1.3123,-1.2785,-1.2935,-1.3198,-1.3198,-1.3198,-1.3198,-1.3198,-1.3198,-1.3198,-1.3198,-1.3198,-1.3396,-1.3984,-1.4085,-1.445,-1.5517,0.0,-1.5881,-1.6446,-1.6522,-1.6522,-1.6522,-1.6522,-1.6421,-1.6212,-1.5595,-1.496,-1.445,-1.3801,-1.3091,-1.2361,-1.1877,-1.1426,-1.1019,-1.0882,-1.119,-1.1881,-1.1806,-1.1621,-1.1324,-1.1656,-1.1812,-1.1823,-1.1979,-1.1782,-1.1273,-1.1132,-1.0693,-0.9973,-0.8928,-0.823,-0.7716,-0.698,-0.653,-0.625,-0.6222,-0.5895,-0.5458,-0.5718,-0.5694,-0.5677,-0.5728,-0.5572,-0.5443,-0.5443,-0.5226,-0.5047,-0.4999,-0.4908,-0.5078,-0.5648,-0.568,-0.597,-0.6544,-0.7074,-0.7348,-0.7348,-0.7794,-0.8271,-0.8752,-0.8745,-0.8692,-0.8804,-0.8804,-0.8751,-0.8682,-0.8682,-0.8896,-0.9365,-0.9264,-0.961,-1.0348,-1.0236,-1.0439,-1.0816,-1.1001,-1.1086,-1.1095,-1.132,-1.1271,-1.1085,-1.0838,-1.0713,-1.0674,-1.0381,-1.0195,-1.0078,-1.0078,-0.9785,-0.9554,-1.0314,-1.0756,-1.1203,-1.2171,-1.2684,-1.2822,-1.2303,-1.2522,-1.2947,-1.2947,-1.2947,-1.2985,-1.316,-1.3198,-1.3198,-1.3198,-1.3198,-1.3458,-1.4211,-1.4337,-1.4702,-1.5781,-1.5957,-1.6082,-1.6471,-1.6522,-1.6522,-1.6522,-1.6522,-1.6434,-1.6275,-1.5595,-1.4769,-1.3922,-1.3176,-1.2409,-1.159,-1.1057,-1.0802,-1.0802,-1.0467,-1.0456,-1.0797,-1.1138,-1.1126,-1.0791,-1.1165,-1.1334,-1.1334,-1.1492,-1.1282,-1.0794,-1.0761,-1.0273,-0.9433,-0.8748,-0.8026,-0.7328,-0.6731,-0.6426,-0.6286,-0.5965,-0.5629,-0.536,-0.5525,-0.5464,-0.5406,-0.5559,-0.5332,-0.5128,-0.5128,-0.5009,-0.4863,-0.4711,-0.4691,-0.4912,-0.5454,-0.5487,-0.576,-0.6534,-0.6612,-0.6592,-0.6597,-0.6468,-0.7109,-0.8738,-0.8508,-0.8514,-0.8804,-0.8804,-0.8676,-0.8398,-0.8391,-0.8389,-0.8414,-0.8076,-0.8414,-0.9362,-0.9031,-0.9244,-0.9922,-1.0517,-1.0418,-0.997,-1.0634,-1.0558,-1.0094,-1.0242,-1.0283,-1.0283,-1.0312,-1.0,-0.9592,-0.9592,-0.931,-0.9062,-0.9455,-1.0155,-1.079,-1.0822,-1.1563,-1.2291,-1.1726,-1.1977,-1.2404,-1.2416,-1.2416,-1.2522,-1.3073,-1.3198,-1.3198,-1.3198,-1.3198,-1.3536,-1.4676,-1.4916,-1.5229,-1.6333,-1.6522,-1.6522,-1.6522,-1.6522,-1.6522,-1.6522,-1.6522,-1.63,-1.578,-1.5683,-1.503,-1.3402,-1.3281,-1.262,-1.1078,-1.0544,-1.0283,-1.0283,-1.0322,-1.0322,-1.0322,-1.0283,-1.0283,-1.0283,-1.0283,-1.0283,-1.0322,-1.0791,-1.0742,-1.0283,-1.0225,-0.9915,-0.9412,-0.8314,-0.7701,-0.7314,-0.6506,-0.6355,-0.6451,-0.5487,-0.5261,-0.5371,-0.5441,-0.5222,-0.5098,-0.5243,-0.5108,-0.4982,-0.4982,-0.4857,-0.4741,-0.4697,-0.4599,-0.4622,-0.4794,-0.4787,-0.4897,-0.5117,-0.5567,-0.6023,-0.643,-0.6123,-0.641,-0.7534,-0.7544,-0.7688,-0.8159,-0.8159,-0.8103,-0.8049,-0.8055,-0.8036,-0.807,-0.7942,-0.8073,-0.8338,-0.8241,-0.8403,-0.8793,-0.898,-0.9056,-0.911,-0.9699,-0.9824,-0.9732,-1.0137,-1.0283,-1.0244,-0.9932,-0.9709,-0.9554,-0.9287,-0.8916,-0.8684,-0.938,-1.0232,-1.0989,-1.129,-1.1597,-1.1713,-1.1136,-1.1098,-1.1382,-1.2215,-1.2416,-1.2522,-1.3073,-1.3198,-1.3198,-1.3198,-1.3198,-1.3536,-1.4676,-1.4916,-1.5229,-1.6333,-1.6522,-1.6522,-1.6522,-1.6522,-1.6522,-1.6522,-1.6522,-1.6446,-1.6288,-1.5519,-1.4606,-1.3478,-1.2029,-1.0984,-1.0544,-1.0636,-1.0735,-1.0713,-1.1018,-1.1225,-1.1225,-1.0595,-1.0283,-1.0283,-1.0283,-1.0283,-1.0283,-1.0439,-1.0118,-0.9367,-0.9367,-0.883,-0.7972,-0.7461,-0.6979,-0.6506,-0.6037,-0.5779,-0.5625,-0.5252,-0.4932,-0.468,-0.5043,-0.5126,-0.5088,-0.5047,-0.4938,-0.4836,-0.4836,-0.4701,-0.4602,-0.4602,-0.4577,-0.4519,-0.4519,-0.4519,-0.4519,-0.4519,-0.4802,-0.5147,-0.5511,-0.517,-0.5331,-0.6135,-0.6285,-0.6861,-0.7882,-0.7882,-0.7827,-0.7724,-0.7749,-0.7732,-0.7738,-0.7618,-0.7611,-0.776,-0.7583,-0.7627,-0.7784,-0.8039,-0.8084,-0.8094,-0.9088,-0.935,-0.9265,-1.0001,-1.0283,-1.0225,-0.9785,-0.9485,-0.9316,-0.8896,-0.868,-0.863,-0.912,-0.9875,-1.0611,-1.0865,-1.1073,-1.1123,-1.0531,-1.0531,-1.0919,-1.1864,-1.2077,-1.2228,-1.2747,-1.3048,-1.3198,-1.3198,-1.3198,-1.3536,-1.4676,-1.4709,-1.499,-1.6291,-1.6281,-1.6238,-1.6466,-1.6522,-1.6423,-1.6194,-1.6139,-1.6051,-1.5788,-1.5151,-1.4284,-1.312,-1.1355,-1.0283,-1.0283,-1.0518,-1.0755,-1.0909,-1.1175,-1.1404,-1.1612,-1.0896,-1.0529,-1.0537,-1.038,-1.0176,-0.9973,-0.9973,-0.9568,-0.8854,-0.8647,-0.8211,-0.7563,-0.6929,-0.6478,-0.613,-0.5611,-0.5308,-0.5165,-0.4734,-0.4437,-0.4197,-0.4157,-0.4799,-0.5043,-0.4745,-0.4677,-0.4687,-0.4749,-0.4615,-0.4519,-0.4519,-0.4519,-0.4519,-0.4519,-0.4519,-0.4519,-0.4519,-0.4291,-0.4157,-0.4174,-0.3947,-0.4039,-0.4639,-0.501,-0.597,-0.7651,-0.775,-0.7701,-0.7454,-0.7454,-0.7454,-0.7454,-0.7125,-0.717,-0.7455,-0.7124,-0.6979,-0.7027,-0.7602,-0.7504,-0.7154,-0.8725,-0.9073,-0.8791,-0.9779,-1.0205,-1.0166,-0.9687,-0.9277,-0.8887,-0.8467,-0.8508,-0.8761,-0.8789,-0.9277,-0.988,-0.9905,-1.0257,-1.0518,-1.0044,-1.027,-1.0756,-1.1362,-1.155,-1.1738,-1.2341,-1.2835,-1.3198,-1.3198,-1.3198,-1.3511,-1.4651,-1.4398,-1.4562,-1.6101,-1.5928,-1.5776,-1.6281,-1.6337,-1.6151,-1.5588,-1.5543,-1.532,-1.4744,-1.4596,-1.3971,-1.2595,-1.1146,-1.0332,-1.0332,-1.038,-1.0585,-1.0958,-1.1023,-1.1264,-1.1707,-1.1251,-1.0995,-1.0899,-1.0439,-0.9973,-0.9511,-0.946,-0.9133,-0.8548,-0.8051,-0.7816,-0.769,-0.6633,-0.6149,-0.6049,-0.5204,-0.4923,-0.4865,-0.4061,-0.3841,-0.3902,-0.1002,-0.2032,-0.2936,-0.3132,-0.329,-0.3666,-0.4468,-0.4546,-0.4519,-0.4519,-0.4519,-0.4519,-0.4519,-0.4519,-0.4519,-0.4519,-0.4233,-0.4049,-0.4036,-0.3806,-0.3899,-0.4454,-0.456,-0.499,-0.5857,-0.6742,-0.7167,-0.7118,-0.7118,-0.7118,-0.7118,-0.7027,-0.7045,-0.7115,-0.7032,-0.6979,-0.7021,-0.7125,-0.7118,-0.707,-0.7903,-0.8448,-0.8738,-0.9013,-0.9391,-0.9641,-0.8916,-0.8594,-0.8447,-0.8018,-0.8086,-0.8449,-0.8706,-0.9116,-0.9555,-0.9816,-0.9981,-1.0056,-0.9931,-0.9993,-1.0219,-1.0772,-1.1249,-1.1839,-1.2797,-1.3123,-1.3198,-1.3198,-1.3198,-1.3398,-1.4135,-1.45,-1.4814,-1.5133,-1.5425,-1.5499,-1.5152,-1.5107,-1.5017,-1.4926,-1.488,-1.4835,-1.4698,-1.3938,-1.3137,-1.2313,-1.1358,-1.0752,-1.0752,-1.1126,-1.1344,-1.1453,-1.2125,-1.2503,-1.2616,-1.2168,-1.1579,-1.0899,-1.007,-0.9616,-0.9481,-0.9076,-0.8445,-0.766,-0.7558,-0.7281,-0.6847,-0.6406,-0.5918,-0.5439,-0.5072,-0.4502,-0.3883,-0.352,-0.3529,-0.3669,-0.0,-0.0622,-0.118,-0.1373,-0.1524,-0.223,-0.4203,-0.4477,-0.4525,-0.4519,-0.4519,-0.4519,-0.4519,-0.4519,-0.4519,-0.4519,-0.4177,-0.3997,-0.3988,-0.3762,-0.3718,-0.3991,-0.4268,-0.4556,-0.4885,-0.5717,-0.6331,-0.6603,-0.6881,-0.6979,-0.6979,-0.6979,-0.6979,-0.6979,-0.6979,-0.6979,-0.6979,-0.6979,-0.6979,-0.707,-0.794,-0.8303,-0.8414,-0.8969,-0.9223,-0.9248,-0.8603,-0.8242,-0.8037,-0.7773,-0.8091,-0.8578,-0.8734,-0.917,-0.9659,-0.9854,-0.9905,-0.9905,-0.9905,-1.0094,-1.0433,-1.0998,-1.1563,-1.2128,-1.2672,-1.301,-1.3273,-1.3571,-1.3622,-1.38,-1.433,-1.4405,-1.4518,-1.4734,-1.4755,-1.4732,-1.4698,-1.4698,-1.4606,-1.4283,-1.4283,-1.4154,-1.3884,-1.3142,-1.2534,-1.2204,-1.1591,-1.1215,-1.1237,-1.1481,-1.1685,-1.1891,-1.2322,-1.2677,-1.2881,-1.2425,-1.1818,-1.1053,-1.0171,-0.9649,-0.9385,-0.8641,-0.7898,-0.7216,-0.7216,-0.707,-0.6748,-0.6056,-0.5566,-0.5237,-0.4534,-0.3947,-0.3453,-0.3439,-0.3526,-0.3585,-0.0,-0.0,-0.0,-0.0,-0.0,-0.0837,-0.336,-0.4147,-0.448,-0.4525,-0.4522,-0.4522,-0.4522,-0.4519,-0.4519,-0.4519,-0.4177,-0.3997,-0.3988,-0.3762,-0.3581,-0.3581,-0.4039,-0.4268,-0.4268,-0.483,-0.5446,-0.6042,-0.6596,-0.6881,-0.6881,-0.6972,-0.6979,-0.6979,-0.693,-0.693,-0.693,-0.6881,-0.6881,-0.693,-0.7898,-0.8111,-0.7932,-0.8732,-0.893,-0.8718,-0.8313,-0.7957,-0.7695,-0.7695,-0.8166,-0.8734,-0.8789,-0.9277,-0.9828,-0.9867,-0.9905,-0.9905,-0.9905,-1.0205,-1.0719,-1.1425,-1.1927,-1.2316,-1.2472,-1.2872,-1.3323,-1.3846,-1.3885,-1.3952,-1.4346,-1.4024,-1.3806,-1.415,-1.3914,-1.3799,-1.422,-1.4332,-1.4201,-1.3684,-1.3637,-1.3467,-1.2978,-1.2565,-1.2297,-1.2329,-1.1945,-1.168,-1.1687,-1.1704,-1.184,-1.2204,-1.2301,-1.2492,-1.2881,-1.2395,-1.1855,-1.1276,-1.0383,-0.97,-0.9098,-0.8238,-0.7567,-0.7075,-0.7018,-0.6985,-0.6836,-0.5875,-0.5335,-0.5058,-0.4108,-0.3578,-0.3353,-0.3547,-0.3595,-0.3595,-0.0,-0.0,-0.0,-0.0,-0.0,-0.0112,-0.0559,-0.2796,-0.4494,-0.449,-0.449,-0.449,-0.449,-0.4473,-0.4519,-0.4519,-0.4177,-0.3997,-0.3988,-0.3762,-0.3581,-0.3581,-0.367,-0.3718,-0.3718,-0.4224,-0.4797,-0.5439,-0.6037,-0.6319,-0.6319,-0.6784,-0.6979,-0.6979,-0.6742,-0.6645,-0.6645,-0.6409,-0.6319,-0.6319,-0.6458,-0.678,-0.7092,-0.6851,-0.7225,-0.7814,-0.7424,-0.7471,-0.7695,-0.7695,-0.8004,-0.8421,-0.8706,-0.9116,-0.9528,-0.9828,-0.9905,-0.9905,-0.9905,-0.9956,-1.027,-1.1324,-1.1638,-1.1952,-1.2872,-1.3148,-1.3223,-1.3286,-1.3,-1.2746,-1.2796,-1.2777,-1.2634,-1.2182,-1.271,-1.3036,-1.2613,-1.2912,-1.3104,-1.3017,-1.3017,-1.2968,-1.2929,-1.2861,-1.2793,-1.2803,-1.2378,-1.211,-1.2139,-1.211,-1.2139,-1.2186,-1.258,-1.2813,-1.2881,-1.2175,-1.1828,-1.1687,-1.021,-0.9137,-0.8396,-0.7842,-0.751,-0.7416,-0.7111,-0.6891,-0.6606,-0.6249,-0.5456,-0.4489,-0.4357,-0.3991,-0.3581,-0.3595,-0.3609,-0.3581,-0.0,-0.0,-0.0,-0.0,-0.0,-0.0,-0.0,-0.1845,-0.3193,-0.3188,-0.3188,-0.3188,-0.3188,-0.3962,-0.446,-0.4346,-0.4119,-0.3942,-0.3894,-0.3718,-0.3581,-0.3581,-0.3581,-0.3581,-0.3581,-0.3854,-0.41,-0.4357,-0.5275,-0.5782,-0.5947,-0.6175,-0.6367,-0.6548,-0.6416,-0.6388,-0.6376,-0.6254,-0.6211,-0.6218,-0.6543,-0.6642,-0.6631,-0.6729,-0.7001,-0.7372,-0.7407,-0.754,-0.7695,-0.7695,-0.7976,-0.8319,-0.8477,-0.8773,-0.9089,-0.9251,-0.9449,-0.9607,-0.9607,-0.9827,-1.0309,-1.1357,-1.1647,-1.1984,-1.2976,-1.3198,-1.3216,-1.3252,-1.3083,-1.2873,-1.256,-1.2516,-1.2338,-1.1747,-1.2176,-1.2497,-1.2236,-1.2607,-1.2881,-1.2881,-1.2881,-1.2881,-1.2881,-1.2881,-1.2881,-1.2881,-1.2686,-1.2609,-1.2609,-1.2609,-1.2609,-1.2609,-1.2803,-1.2686,-1.2283,-1.1945,-1.1427,-1.0643,-0.9955,-0.9385,-0.8867,-0.8066,-0.7647,-0.7473,-0.6982,-0.6642,-0.6312,-0.5538,-0.4872,-0.4372,-0.4076,-0.381,-0.3592,-0.3595,-0.2742,-0.1576]},{"header":{"parameterUnit":"m.s-1","parameterCategory":1,"la1":30.6,"la2":28.766,"lo1":-90.7593,"lo2":-88.6598,"dy":0.0162,"dx":0.0183,"nx":116,"ny":114,"refTime":"2023-09-16T18:00:00:Z","depth":0,"parameterNumber":3,"parameterNumberName":"V-component_of_WINDS"},"data":[0.0,0.0,0.0,0.0,0.0,0.0,0.0,0.0,0.0,0.0,0.0,0.0,0.0,0.0,0.0,0.0,0.0,0.0,0.0,0.0,0.0,0.0,0.0,0.0,0.0,0.0,0.0,0.0,0.0,0.0,0.0,0.0,0.0,0.0,0.0,0.0,0.0,0.0,0.0,0.0,0.0,0.0,0.0,0.0,0.0,0.0,0.0,0.0,0.0,0.0,0.0,0.0,0.0,0.0,0.0,0.0,0.0,0.0,0.0,0.0,0.0,0.0,0.0,0.0,0.0,0.0,0.0,0.0,0.0,0.0,0.0,0.0,0.0,0.0,0.0,0.0,0.0,0.0,0.0,0.0,0.0,0.0,0.0,0.0,0.0,0.0,0.0,0.0,0.0,0.0,0.0,0.0,0.0,0.0,0.0,0.0,0.0,0.0,0.0,0.0,0.0,0.0,0.0,0.0,0.0,0.0,0.0,0.0,0.0,0.0,0.0,0.0,0.0,0.0,0.0,0.0,0.0,0.0,0.0,0.0,0.0,0.0,0.0,0.0,0.0,0.0,0.0,0.0,0.0,0.0,0.0,0.0,0.0,0.0,0.0,0.0,0.0,0.0,0.0,0.0,0.0,0.0,0.0,0.0,0.0,0.0,0.0,0.0,0.0,0.0,0.0,0.0,0.0,0.0,0.0,0.0,0.0,0.0,0.0,0.0,0.0,0.0,0.0,0.0,0.0,0.0,0.0,0.0,0.0,0.0,0.0,0.0,0.0,0.0,0.0,0.0,0.0,0.0,0.0,0.0,0.0,0.0,0.0,0.0,0.0,0.0,0.0,0.0,0.0,0.0,0.0,0.0,0.0,0.0,0.0,0.0,0.0,0.0,0.0,0.0,0.0,0.0,0.0,0.0,0.0,0.0,0.0,0.0,0.0,0.0,0.0,0.0,0.0,0.0,0.0,0.0,0.0,0.0,0.0,0.0,0.0,0.0,0.0,0.0,0.0,0.0,0.0,0.0,0.0,0.0,0.0,0.0,0.0,0.0,0.0,0.0,0.0,0.0,0.0,0.0,0.0,0.0,0.0,0.0,0.0,0.0,0.0,0.0,0.0,0.0,0.0,0.0,0.0,0.0,0.0,0.0,0.0,0.0,0.0,0.0,0.0,0.0,0.0,0.0,0.0,0.0,0.0,0.0,0.0,0.0,0.0,0.0,0.0,0.0,0.0,0.0,0.0,0.0,0.0,0.0,0.0,0.0,0.0,0.0,0.0,0.0,0.0,0.0,0.0,0.0,0.0,0.0,0.0,0.0,0.0,0.0,0.0,0.0,0.0,0.0,0.0,0.0,0.0,0.0,0.0,0.0,0.0,0.0,0.0,0.0,0.0,0.0,0.0,0.0,0.0,0.0,0.0,0.0,0.0,0.0,0.0,0.0,0.0,0.0,0.0,0.0,0.0,0.0,0.0,0.0,0.0,0.0,0.0,0.0,0.0,0.0,0.0,0.0,0.0,0.0,0.0,0.0,0.0,0.0,0.0,0.0,0.0,0.0,0.0,0.0,0.0,0.0,0.0,0.0,0.0,0.0,0.0,0.0,0.0,0.0,0.0,0.0,0.0,0.0,0.0,0.0,0.0,0.0,0.0,0.0,0.0,0.0,0.0,0.0,0.0,0.0,0.0,0.0,0.0,0.0,0.0,0.0,0.0,0.0,0.0,0.0,0.0,0.0,0.0,0.0,0.0,0.0,0.0,0.0,0.0,0.0,0.0,0.0,0.0,0.0,0.0,0.0,0.0,0.0,0.0,0.0,0.0,0.0,0.0,0.0,0.0,0.0,0.0,0.0,0.0,0.0,0.0,0.0,0.0,0.0,0.0,0.0,0.0,0.0,0.0,0.0,0.0,0.0,0.0,0.0,0.0,0.0,0.0,0.0,0.0,0.0,0.0,0.0,0.0,0.0,0.0,0.0,0.0,0.0,0.0,0.0,0.0,0.0,0.0,0.0,0.0,0.0,0.0,0.0,0.0,0.0,0.0,0.0,0.0,0.0,0.0,0.0,0.0,0.0,0.0,0.0,0.0,0.0,0.0,0.0,0.0,0.0,0.0,0.0,0.0,0.0,0.0,0.0,0.0,0.0,0.0,0.0,0.0,0.0,0.0,0.0,0.0,0.0,0.0,0.0,0.0,0.0,0.0,0.0,0.0,0.0,0.0,0.0,0.0,0.0,0.0,0.0,0.0,0.0,0.0,0.0,0.0,0.0,0.0,0.0,0.0,0.0,0.0,0.0,0.0,0.0,0.0,0.0,0.0,0.0,0.0,0.0,0.0,0.0,0.0,0.0,0.0,0.0,0.0,0.0,0.0,0.0,0.0,0.0,0.0,0.0,0.0,0.0,0.0,0.0,0.0,0.0,0.0,0.0,0.0,0.0,0.0,0.0,0.0,0.0,0.0,0.0,0.0,0.0,0.0,0.0,0.0,0.0,0.0,0.0,0.0,0.0,0.0,0.0,0.0,0.0,0.0,0.0,0.0,0.0,0.0,0.0,0.0,0.0,0.0,0.0,0.0,0.0,0.0,0.0,0.0,0.0,0.0,0.0,0.0,0.0,0.0,0.0,0.0,0.0,0.0,0.0,0.0,0.0,0.0,0.0,0.0,0.0,0.0,0.0,0.0,0.0,0.0,0.0,0.0,0.0,0.0,0.0,0.0,0.0,0.0,0.0,0.0,0.0,0.0,0.0,0.0,0.0,0.0,0.0,0.0,0.0,0.0,0.0,0.0,0.0,0.0,0.0,0.0,0.0,0.0,0.0,0.0,0.0,0.0,0.0,0.0,0.0,0.0,0.0,0.0,0.0,0.0,0.0,0.0,0.0,0.0,0.0,0.0,0.0,0.0,0.0,0.0,0.0,0.0,0.0,0.0,0.0,0.0,0.0,0.0,0.0,0.0,0.0,0.0,0.0,0.0,0.0,0.0,0.0,0.0,0.0,0.0,0.0,0.0,0.0,0.0,0.0,0.0,0.0,0.0,0.0,0.0,0.0,0.0,0.0,0.0,0.0,0.0,0.0,0.0,0.0,0.0,0.0,0.0,0.0,0.0,0.0,0.0,0.0,0.0,0.0,0.0,0.0,0.0,0.0,0.0,0.0,0.0,0.0,0.0,0.0,0.0,0.0,0.0,0.0,0.0,0.0,0.0,0.0,0.0,0.0,0.0,0.0,0.0,0.0,0.0,0.0,0.0,0.0,0.0,0.0,0.0,0.0,0.0,0.0,0.0,0.0,0.0,0.0,0.0,0.0,0.0,0.0,0.0,0.0,0.0,0.0,0.0,0.0,0.0,0.0,0.0,0.0,0.0,0.0,0.0,0.0,0.0,0.0,0.0,0.0,0.0,0.0,0.0,0.0,0.0,0.0,0.0,0.0,0.0,0.0,0.0,0.0,0.0,0.0,0.0,0.0,0.0,0.0,0.0,0.0,0.0,0.0,0.0,0.0,0.0,0.0,0.0,0.0,0.0,0.0,0.0,0.0,0.0,0.0,0.0,0.0,0.0,0.0,0.0,0.0,0.0,0.0,0.0,0.0,0.0,0.0,0.0,0.0,0.0,0.0,0.0,0.0,0.0,0.0,0.0,0.0,0.0,0.0,0.0,0.0,0.0,0.0,0.0,0.0,0.0,0.0,0.0,0.0,0.0,0.0,0.0,0.0,0.0,0.0,0.0,0.0,0.0,0.0,0.0,0.0,0.0,0.0,0.0,0.0,0.0,0.0,0.0,0.0,0.0,0.0,0.0,0.0,0.0,0.0,0.0,0.0,0.0,0.0,0.0,0.0,0.0,0.0,0.0,0.0,0.0,0.0,0.0,0.0,0.0,0.0,0.0,0.0,0.0,0.0,0.0,0.0,0.0,0.0,0.0,0.0,0.0,0.0,0.0,0.0,0.0,0.0,0.0,0.0,0.0,0.0,0.0,0.0,0.0,0.0,0.0,0.0,0.0,0.0,0.0,0.0,0.0,0.0,0.0,0.0,0.0,0.0,0.0,0.0,0.0,0.0,0.0,0.0,0.0,0.0,0.0,0.0,0.0,0.0,0.0,0.0,0.0,0.0,0.0,0.0,0.0,0.0,0.0,0.0,0.0,0.0,0.0,0.0,0.0,0.0,0.0,0.0,0.0,0.0,0.0,0.0,0.0,0.0,0.0,0.0,0.0,0.0,0.0,0.0,0.0,0.0,0.0,0.0,0.0,0.0,0.0,0.0,0.0,0.0,0.0,0.0,0.0,0.0,0.0,0.0,0.0,0.0,0.0,0.0,0.0,0.0,0.0,0.0,0.0,0.0,0.0,0.0,0.0,0.0,0.0,0.0,0.0,0.0,0.0,0.0,0.0,0.0,0.0,0.0,0.0,0.0,0.0,0.0,0.0,0.0,0.0,0.0,0.0,0.0,0.0,0.0,0.0,0.0,0.0,0.0,0.0,0.0,0.0,0.0,0.0,0.0,0.0,0.0,0.0,0.0,0.0,0.0,0.0,0.0,0.0,0.0,0.0,0.0,0.0,0.0,0.0,0.0,0.0,0.0,0.0,0.0,0.0,0.0,0.0,0.0,0.0,0.0,0.0,0.0,0.0,0.0,0.0,0.0,0.0,0.0,0.0,0.0,0.0,0.0,0.0,0.0,0.0,0.0,0.0,0.0,0.0,0.0,0.0,0.0,0.0,0.0,0.0,0.0,0.0,0.0,0.0,0.0,0.0,0.0,0.0,0.0,0.0,0.0,0.0,0.0,0.0,0.0,0.0,0.0,0.0,0.0,0.0,0.0,0.0,0.0,0.0,0.0,0.0,0.0,0.0,0.0,0.0,0.0,0.0,0.0,0.0,0.0,0.0,0.0,0.0,0.0,0.0,0.0,0.0,0.0,0.0,0.0,0.0,0.0,0.0,0.0,0.0,0.0,0.0,0.0,0.0,0.0,0.0,0.0,0.0,0.0,0.0,0.0,0.0,0.0,0.0,0.0,0.0,0.0,0.0,0.0,0.0,0.0,0.0,0.0,0.0,0.0,0.0,0.0,0.0,0.0,0.0,0.0,0.0,0.0,0.0,0.0,0.0,0.0,0.0,0.0,0.0,0.0,0.0,0.0,0.0,0.0,0.0,0.0,0.0,0.0,0.0,0.0,0.0,0.0,0.0,0.0,0.0,0.0,0.0,0.0,0.0,0.0,0.0,0.0,0.0,0.0,0.0,0.0,0.0,0.0,0.0,0.0,0.0,0.0,0.0,0.0,0.0,0.0,0.0,0.0,0.0,0.0,0.0,0.0,0.0,0.0,0.0,0.0,0.0,0.0,0.0,0.0,0.0,0.0,0.0,0.0,0.0,0.0,0.0,0.0,0.0,0.0,0.0,0.0,0.0,0.0,0.0,0.0,0.0,0.0,0.0,0.0,0.0,0.0,0.0,0.0,0.0,0.0,0.0,0.0,0.0,0.0,0.0,0.0,0.0,0.0,0.0,0.0,0.0,0.0,0.0,0.0,0.0,0.0,0.0,0.0,0.0,0.0,0.0,0.0,0.0,0.0,0.0,0.0,0.0,0.0,0.0,0.0,0.0,0.0,0.0,0.0,0.0,0.0,0.0,0.0,0.0,0.0,0.0,0.0,0.0,0.0,0.0,0.0,0.0,0.0,0.0,0.0,0.0,0.0,0.0,0.0,0.0,0.0,0.0,0.0,0.0,0.0,0.0,0.0,0.0,0.0,0.0,0.0,0.0,0.0,0.0,0.0,0.0,0.0,0.0,0.0,0.0,0.0,0.0,0.0,0.0,0.0,0.0,0.0,0.0,0.0,0.0,0.0,0.0,0.0,0.0,0.0,0.0,0.0,0.0,0.0,0.0,0.0,0.0,0.0,0.0,0.0,0.0,0.0,0.0,0.0,0.0,0.0,0.0,0.0,0.0,0.0,0.0,0.0,0.0,0.0,0.0,0.0,0.0,0.0,0.0,0.0,0.0,0.0,0.0,0.0,0.0,0.0,0.0,0.0,0.0,0.0,0.0,0.0,0.0,0.0,0.0,0.0,0.0,0.0,0.0,0.0,0.0,0.0,0.0,0.0,0.0,0.0,0.0,0.0,0.0,0.0,-1.1223,0.0,0.0,0.0,0.0,0.0,0.0,0.0,0.0,0.0,0.0,0.0,0.0,0.0,0.0,0.0,0.0,0.0,0.0,0.0,0.0,0.0,0.0,0.0,0.0,0.0,0.0,0.0,0.0,0.0,0.0,0.0,0.0,0.0,0.0,0.0,0.0,0.0,0.0,0.0,0.0,0.0,0.0,0.0,0.0,0.0,0.0,0.0,0.0,0.0,0.0,0.0,0.0,0.0,0.0,0.0,0.0,0.0,0.0,0.0,0.0,0.0,0.0,0.0,0.0,0.0,0.0,0.0,0.0,0.0,0.0,0.0,0.0,0.0,0.0,0.0,0.0,0.0,0.0,0.0,0.0,0.0,0.0,0.0,0.0,0.0,0.0,0.0,0.0,0.0,0.0,0.0,0.0,0.0,0.0,0.0,0.0,0.0,0.0,0.0,0.0,0.0,0.0,0.0,0.0,0.0,0.0,0.0,0.0,0.0,0.0,0.0,0.0,0.0,0.0,0.0,0.0,-1.404,0.0,0.0,0.0,0.0,0.0,0.0,0.0,0.0,0.0,0.0,0.0,0.0,0.0,0.0,0.0,0.0,0.0,0.0,0.0,0.0,0.0,0.0,0.0,0.0,0.0,0.0,0.0,0.0,0.0,0.0,0.0,0.0,0.0,0.0,0.0,0.0,0.0,0.0,0.0,0.0,0.0,0.0,0.0,0.0,0.0,0.0,0.0,0.0,0.0,0.0,0.0,0.0,0.0,0.0,0.0,0.0,0.0,0.0,0.0,0.0,0.0,0.0,0.0,0.0,0.0,0.0,0.0,0.0,0.0,0.0,0.0,0.0,0.0,0.0,0.0,0.0,0.0,0.0,0.0,0.0,0.0,0.0,0.0,0.0,0.0,0.0,0.0,0.0,0.0,0.0,0.0,0.0,0.0,0.0,0.0,0.0,0.0,0.0,0.0,0.0,0.0,0.0,0.0,0.0,0.0,0.0,0.0,0.0,-0.8244,-0.8903,-0.9789,-1.0444,-1.1158,-1.1998,-1.3676,-1.4968,-1.5974,-1.6296,0.0,0.0,0.0,0.0,0.0,0.0,0.0,0.0,0.0,0.0,0.0,0.0,0.0,0.0,0.0,0.0,0.0,0.0,0.0,0.0,0.0,0.0,0.0,0.0,0.0,0.0,0.0,0.0,0.0,0.0,0.0,0.0,0.0,0.0,0.0,0.0,0.0,0.0,-0.8955,-1.0257,-1.1361,-1.221,-1.2002,0.0,0.0,0.0,0.0,0.0,0.0,0.0,0.0,0.0,0.0,0.0,0.0,0.0,0.0,0.0,0.0,0.0,0.0,0.0,0.0,0.0,0.0,0.0,0.0,0.0,0.0,0.0,0.0,0.0,0.0,0.0,0.0,0.0,0.0,0.0,0.0,0.0,0.0,0.0,0.0,0.0,0.0,0.0,-0.3473,-0.4798,0.0,0.0,0.0,0.0,0.0,0.0,0.0,0.0,0.0,0.0,0.0,0.0,0.0,-0.5225,-0.5526,-0.8119,-0.9544,-0.9686,-1.1085,-1.2323,-1.3437,-1.3113,-1.364,-1.4889,-1.5842,0.0,-1.5316,-1.5518,0.0,0.0,0.0,0.0,0.0,0.0,0.0,0.0,0.0,0.0,0.0,0.0,0.0,0.0,0.0,0.0,0.0,0.0,0.0,0.0,0.0,0.0,0.0,0.0,0.0,0.0,0.0,0.0,0.0,0.0,0.0,0.0,0.0,0.0,0.0,0.0,-1.2109,-1.1041,-1.0581,-1.134,-1.1978,-1.2593,-1.2963,-1.3673,-1.4687,-1.6599,0.0,0.0,0.0,0.0,0.0,0.0,0.0,0.0,0.0,0.0,0.0,0.0,0.0,0.0,0.0,0.0,0.0,0.0,0.0,0.0,0.0,0.0,0.0,0.0,0.0,0.0,0.0,0.0,0.0,0.0,0.0,0.0,0.0,0.0,0.0,0.0,0.0,0.0,0.0,-0.3485,-0.4828,-0.5989,-0.6235,-0.6017,0.0,0.0,0.0,0.0,0.0,0.0,0.0,0.0,0.0,-0.5504,-0.7405,-0.8637,-0.8899,-1.1802,-1.3083,-1.2962,-1.3683,-1.4093,-1.4193,-1.3972,-1.413,-1.4666,-1.5663,-1.5857,-1.5351,-1.5991,-1.6141,-1.606,0.0,0.0,0.0,0.0,-1.8291,-1.8555,0.0,0.0,0.0,0.0,0.0,0.0,0.0,0.0,0.0,0.0,0.0,0.0,0.0,0.0,0.0,-2.3408,0.0,0.0,0.0,0.0,0.0,0.0,0.0,0.0,0.0,0.0,0.0,0.0,-1.3206,-1.2889,-1.2212,-1.23,-1.2704,-1.3367,-1.3955,-1.4905,-1.6157,-1.7863,-1.8758,0.0,0.0,0.0,0.0,0.0,0.0,0.0,0.0,0.0,0.0,0.0,0.0,0.0,0.0,0.0,0.0,0.0,0.0,0.0,0.0,0.0,0.0,0.0,0.0,0.0,0.0,0.0,0.0,0.0,0.0,0.0,0.0,0.0,0.0,0.0,0.0,0.0,0.0,-0.4843,-0.5652,-0.6872,-0.686,-0.6576,0.0,0.0,0.0,0.0,0.0,0.0,-0.5229,-0.607,-0.6675,-0.7161,-0.9542,-1.1019,-1.1259,-1.4229,-1.5606,-1.5352,-1.5706,-1.5493,-1.4961,-1.4961,-1.468,-1.4465,-1.5517,-1.5778,-1.553,-1.6152,-1.6319,-1.6196,-1.6368,-1.6805,-1.7445,-1.8658,-1.9454,-1.9922,0.0,0.0,0.0,0.0,0.0,0.0,0.0,0.0,0.0,0.0,0.0,0.0,0.0,0.0,-2.0705,-2.1628,-2.2028,-2.2395,0.0,0.0,0.0,0.0,0.0,0.0,0.0,0.0,0.0,-1.5435,-1.5113,-1.4432,-1.333,-1.2859,-1.333,-1.4457,-1.4585,-1.6101,-1.8571,-1.8979,-2.0211,-2.1891,0.0,0.0,0.0,0.0,0.0,0.0,0.0,0.0,0.0,0.0,0.0,0.0,0.0,0.0,0.0,0.0,0.0,0.0,0.0,0.0,0.0,0.0,0.0,0.0,0.0,0.0,0.0,0.0,0.0,0.0,0.0,0.0,0.0,0.0,0.0,0.0,0.0,0.0,0.0,-0.6654,-0.718,0.0,0.0,0.0,0.0,-0.7108,-0.6534,-0.6831,-0.8173,-0.8317,-0.8632,-0.9083,-1.0655,-1.153,-1.174,-1.4789,-1.6133,-1.5878,-1.6932,-1.7145,-1.658,-1.658,-1.6268,-1.575,-1.6126,-1.6079,-1.5758,-1.5255,-1.542,-1.593,-1.568,-1.6839,-1.8611,-1.8708,-1.9706,-2.1143,0.0,0.0,0.0,0.0,0.0,0.0,0.0,0.0,0.0,0.0,0.0,0.0,0.0,-1.871,-1.9667,-1.9991,-2.1272,-2.2199,-2.2503,0.0,0.0,0.0,0.0,0.0,0.0,0.0,-1.7436,-1.7053,-1.6356,-1.5615,-1.493,-1.4297,-1.4315,-1.5002,-1.5068,-1.6507,-1.9,-1.9819,-2.0608,-2.1379,-2.2149,-2.2579,0.0,0.0,0.0,0.0,0.0,0.0,0.0,0.0,0.0,0.0,0.0,0.0,0.0,0.0,0.0,0.0,0.0,0.0,0.0,0.0,0.0,0.0,0.0,0.0,0.0,0.0,0.0,0.0,0.0,0.0,0.0,0.0,0.0,0.0,0.0,0.0,0.0,-0.8414,-0.8189,0.0,-0.7668,-0.7442,-0.7576,-0.8072,-0.8004,-0.8268,-0.8899,-0.8913,-0.963,-1.0921,-1.2538,-1.3904,-1.5173,-1.6996,-1.7808,-1.7533,-1.78,-1.7468,-1.6714,-1.6907,-1.6567,-1.5845,-1.6146,-1.6106,-1.5812,-1.5605,-1.5636,-1.586,-1.6337,-1.7423,-1.8897,-1.9662,-2.0876,-2.206,0.0,0.0,0.0,0.0,0.0,0.0,0.0,0.0,0.0,0.0,0.0,-1.8402,-1.7343,-1.81,-1.8754,-1.8856,-2.0275,-2.1345,-2.1739,0.0,0.0,0.0,0.0,0.0,0.0,-1.835,-1.8277,-1.8222,-1.7379,-1.6517,-1.5563,-1.4758,-1.4634,-1.5109,-1.4852,-1.6013,-1.8291,-1.968,-2.0702,-2.1439,-2.2566,-2.3284,-2.3647,0.0,0.0,0.0,0.0,0.0,0.0,0.0,0.0,0.0,0.0,0.0,0.0,0.0,0.0,0.0,0.0,0.0,0.0,0.0,0.0,0.0,0.0,0.0,0.0,0.0,0.0,0.0,0.0,0.0,0.0,0.0,0.0,0.0,0.0,0.0,-0.8785,-0.8871,-0.865,-0.8414,-0.8208,-0.8418,-0.8628,-0.8774,-0.9022,-0.9228,-0.9371,-0.995,-1.074,-1.2018,-1.3673,-1.5269,-1.6962,-1.7771,-1.8194,-1.849,-1.819,-1.7629,-1.686,-1.7061,-1.672,-1.5985,-1.6186,-1.6106,-1.5832,-1.5832,-1.5832,-1.5805,-1.6422,-1.734,-1.8611,-1.9847,-2.1016,-2.195,0.0,0.0,0.0,0.0,0.0,0.0,0.0,0.0,0.0,0.0,-2.0146,-1.8968,-1.894,-1.8072,-1.7686,-1.8319,-1.8933,-1.9641,-2.0472,-1.8943,0.0,0.0,0.0,0.0,-1.9086,-1.9009,-1.8995,-1.892,-1.8234,-1.6968,-1.5154,-1.4265,-1.4179,-1.4756,-1.3959,-1.4677,-1.6539,-1.8504,-2.0425,-2.2214,-2.3096,-2.4007,-2.475,0.0,0.0,0.0,0.0,0.0,0.0,0.0,0.0,0.0,0.0,0.0,0.0,0.0,0.0,0.0,0.0,0.0,0.0,0.0,0.0,0.0,0.0,0.0,0.0,0.0,0.0,0.0,0.0,0.0,0.0,0.0,0.0,0.0,-0.8621,-0.8174,-0.7938,-0.7949,-0.8506,-0.8845,-0.8554,-0.8916,-0.9235,-0.9384,-0.9534,-0.9676,-0.9815,-1.1378,-1.2213,-1.2213,-1.376,-1.5419,-1.6956,-1.6691,-1.7239,-1.847,-1.8176,-1.7716,-1.7134,-1.725,-1.6827,-1.6259,-1.6273,-1.6106,-1.5832,-1.5832,-1.5832,-1.5832,-1.5832,-1.6567,-1.7855,-1.9023,-2.0047,-2.0807,0.0,0.0,0.0,0.0,0.0,0.0,0.0,0.0,0.0,0.0,-1.9665,-1.8232,-1.7369,-1.6857,-1.681,-1.7393,-1.8125,-1.8809,-1.935,0.0,0.0,0.0,0.0,0.0,-1.8999,-1.8994,-1.9196,-1.9547,-1.8428,-1.7655,-1.7105,-1.5499,-1.4818,-1.5004,-1.4307,-1.4841,-1.6332,-1.7735,-1.9149,-2.0737,-2.3204,-2.4761,-2.56,0.0,0.0,0.0,0.0,0.0,0.0,0.0,0.0,0.0,0.0,0.0,0.0,0.0,0.0,0.0,0.0,0.0,0.0,0.0,0.0,0.0,0.0,0.0,0.0,0.0,0.0,0.0,0.0,0.0,0.0,0.0,0.0,-0.9908,-0.9306,-1.0414,-1.1037,-1.025,-0.9723,-0.9432,-0.9452,-0.9564,-0.9652,-0.9696,-0.9737,-0.9781,-0.9819,-1.1378,-1.2213,-1.2213,-1.4667,-1.6217,-1.6686,-1.7272,-1.7792,-1.8163,-1.7856,-1.7395,-1.6834,-1.7048,-1.6707,-1.5965,-1.6179,-1.6106,-1.5832,-1.5832,-1.5832,-1.5832,-1.5832,-1.6886,-1.8571,-1.8832,-1.9843,-2.1087,0.0,0.0,0.0,0.0,0.0,0.0,0.0,0.0,0.0,0.0,-2.044,-1.9125,-1.7881,-1.7449,-1.7327,-1.7555,-1.8369,-1.8727,-1.8333,0.0,0.0,0.0,0.0,-1.7897,-1.8522,-1.8859,-1.9144,-1.9453,-1.8482,-1.7797,-1.7266,-1.6145,-1.5246,-1.4547,-1.4437,-1.4825,-1.5657,-1.7343,-1.8732,-2.0142,-2.302,-2.4676,-2.5442,-2.5401,-2.6007,-2.6845,-2.6792,-2.6599,-2.6313,-2.6218,0.0,0.0,0.0,0.0,0.0,0.0,0.0,0.0,0.0,0.0,0.0,0.0,0.0,0.0,0.0,0.0,0.0,0.0,0.0,0.0,0.0,0.0,0.0,0.0,-0.9345,-1.0074,-0.9427,-1.0858,-1.1869,-1.1558,-1.0427,-0.9666,-0.9805,-0.9822,-0.9822,-0.9822,-0.9822,-1.0061,-1.0781,-1.2333,-1.3172,-1.3172,-1.5311,-1.6465,-1.6465,-1.6864,-1.738,-1.8043,-1.7609,-1.7221,-1.6894,-1.6814,-1.65,0.0,-1.6066,-1.5985,-1.5832,-1.5832,-1.5832,0.0,0.0,0.0,0.0,0.0,-1.9687,-2.0859,0.0,0.0,0.0,0.0,0.0,0.0,0.0,0.0,0.0,0.0,0.0,-2.0849,-1.9391,-1.8934,-1.8598,-1.8257,-1.9008,-1.8903,0.0,0.0,0.0,-1.5367,-1.6857,-1.7787,-1.7909,-1.8561,-1.891,-1.8989,-1.8455,-1.7661,-1.668,-1.6502,-1.5584,-1.4133,-1.4514,-1.4789,-1.5028,-1.7204,-1.8782,-2.0091,-2.2433,-2.3935,-2.4763,-2.4696,-2.5693,-2.7114,-2.6854,-2.6527,-2.6265,-2.6657,0.0,0.0,0.0,0.0,0.0,0.0,0.0,0.0,0.0,0.0,0.0,0.0,0.0,0.0,0.0,0.0,0.0,0.0,0.0,0.0,0.0,0.0,0.0,0.0,-0.9587,-1.0582,-0.9606,-1.0639,-1.1492,-1.1762,-1.0439,-0.9683,-0.9808,-0.9822,-0.9822,-0.9822,-0.9822,-1.0539,-1.2093,0.0,0.0,0.0,0.0,-1.6695,-1.6465,-1.6186,-1.6599,-1.8036,-1.7468,-1.7161,-1.7081,-1.656,-1.6286,-1.6206,-1.5945,-1.5832,-1.5832,-1.5832,-1.5832,-1.5818,-1.6035,-1.6465,-1.7257,-1.8447,-1.9562,-2.0381,0.0,0.0,0.0,0.0,0.0,0.0,0.0,0.0,0.0,-2.2598,-2.2133,-2.113,-1.896,-1.8897,-1.8837,-1.8385,-1.8422,-1.7684,0.0,0.0,-1.5094,-1.5463,-1.6231,-1.7135,-1.8138,-1.8259,-1.8576,-1.8989,-1.8455,-1.8259,-1.8382,-1.7008,-1.6207,-1.586,-1.505,-1.5219,-1.6133,-1.7005,-1.8293,-1.975,-2.1015,-2.2732,-2.4618,-2.5865,-2.6561,-2.6952,-2.7469,-2.7602,-2.7497,-2.7392,-2.6557,-2.5449,-2.5009,0.0,0.0,0.0,0.0,0.0,0.0,0.0,0.0,0.0,0.0,0.0,0.0,0.0,0.0,0.0,0.0,0.0,0.0,0.0,0.0,-0.8119,-0.9941,-1.1285,-1.1429,-1.2712,-1.2735,-1.0295,-0.9827,-0.9791,-0.9819,-0.9822,-0.9822,-0.9822,-0.9822,-1.0539,-1.2093,-1.377,-1.4604,-1.4604,-1.708,-1.7862,-1.6465,-1.7202,-1.7711,-1.8043,0.0,0.0,-1.6787,-1.6673,-1.6366,-1.5912,-1.5852,-1.5832,-1.5832,-1.5832,-1.5832,-1.5967,-1.7266,-1.7802,-1.8164,-1.9675,-2.0178,-1.9971,0.0,0.0,0.0,0.0,0.0,0.0,0.0,0.0,0.0,0.0,-2.278,-2.1774,-2.0205,-1.9654,-1.9246,-1.8846,-1.7709,0.0,0.0,-1.4926,-1.4473,-1.5367,-1.5953,-1.6557,-1.7193,-1.7843,-1.8435,-1.897,-1.8658,-1.8683,-1.8869,-1.8043,-1.7369,-1.6777,-1.6524,-1.6566,-1.686,-1.7956,-1.8867,-1.9713,-2.0862,-2.1977,-2.316,-2.4806,-2.5612,-2.6026,-2.657,-2.6876,-2.7046,-2.7027,-2.5983,-2.46,-2.3934,-2.161,-1.86,0.0,0.0,0.0,0.0,0.0,0.0,0.0,0.0,0.0,0.0,0.0,0.0,0.0,0.0,-0.647,0.0,0.0,-0.769,-0.8517,-0.9574,-1.0488,-1.0856,-1.1478,-1.1717,-1.1017,-1.097,-1.066,-0.9819,-0.9822,-0.9822,-0.9822,-0.9822,-1.0539,-1.2093,-1.2933,-1.377,-1.4604,-1.6483,-1.7083,-1.6273,-1.7322,-1.7816,-1.7809,-1.7508,-1.7215,-1.6914,-1.6627,-1.6326,-1.6046,-1.5892,-1.5832,-1.5832,-1.5832,-1.5832,-1.5954,-1.6937,-1.7723,-1.8283,-1.8882,-1.9325,-1.9512,0.0,0.0,0.0,0.0,0.0,0.0,0.0,0.0,0.0,0.0,-2.3492,-2.2495,-2.1623,-2.0607,-1.9826,0.0,0.0,0.0,0.0,-1.5105,-1.4244,-1.5311,-1.5811,-1.6135,-1.6275,-1.7435,-1.8309,-1.8906,-1.8906,-1.8968,-1.9043,-1.8968,-1.843,-1.7558,-1.792,-1.7866,-1.7625,-1.903,-1.9728,-1.9958,-2.1133,-2.1658,-2.1873,-2.3185,-2.4112,-2.4826,-2.5234,-2.5464,-2.5609,-2.5799,-2.4524,-2.2747,-2.1851,-1.9093,-1.5586,-1.2937,-1.1777,0.0,0.0,0.0,0.0,0.0,0.0,0.0,0.0,0.0,-0.8254,-0.6955,-0.6668,-0.6659,-0.7149,-0.7382,-0.7776,-0.8842,-0.9308,-0.9566,-0.9805,-0.9798,-1.0254,-1.1547,-1.1679,-1.1343,-1.0418,-0.9913,-0.9791,-0.9819,-0.9822,-1.0525,-1.2042,-1.2162,-1.2971,-1.4826,-1.5727,-1.631,-1.654,-1.7277,-1.7669,-1.7669,-1.7375,-1.7201,-1.7134,-1.66,-1.6326,-1.6259,-1.5959,-1.5832,-1.5832,-1.5832,-1.5832,-1.5859,-1.6145,-1.7026,-1.8173,-1.7987,-1.8518,-1.9189,0.0,0.0,0.0,0.0,0.0,0.0,0.0,0.0,0.0,0.0,0.0,0.0,0.0,0.0,0.0,0.0,0.0,0.0,-1.7917,-1.5828,-1.4879,-1.5558,-1.5644,-1.5922,-1.6451,-1.7098,-1.7882,-1.8917,-1.8884,-1.9132,-1.9603,-1.9132,-1.8841,-1.8688,-1.8288,-1.8327,-1.875,-1.9368,-2.0078,-2.0894,-2.1399,-2.1853,-2.2254,-2.2423,-2.2954,-2.3684,-2.4373,-2.4039,-2.3303,-2.357,-2.185,-1.9374,-1.8148,-1.6018,-1.3331,-1.0098,0.0,-1.009,-0.7683,-0.8256,-0.9474,-0.9259,-0.99,-1.0363,0.0,0.0,-0.8416,-0.7608,-0.7423,-0.7512,-0.7839,-0.8327,-0.882,-0.9284,-0.958,-0.9802,-0.9819,-0.9834,-0.9853,-1.0023,-0.9951,-1.039,-1.184,-1.0535,-0.9686,-0.9812,-0.9822,-1.0477,-1.1972,-1.1963,-1.3273,-1.6055,-1.6216,-1.6875,-1.8262,-1.8048,-1.7996,-1.7989,-1.7682,-1.7402,-1.7141,-1.6807,-1.652,-1.6259,-1.5959,-1.5832,-1.5832,-1.5832,-1.5832,-1.5772,-1.5366,-1.6433,-1.823,-1.8663,-1.9012,-1.9277,0.0,0.0,0.0,0.0,0.0,0.0,0.0,0.0,0.0,0.0,0.0,0.0,0.0,0.0,0.0,0.0,0.0,0.0,-1.846,-1.6309,-1.5455,-1.6321,-1.6109,-1.6079,-1.6336,-1.7566,-1.8598,-1.931,-1.96,-1.9969,-2.0447,-2.023,-2.0112,-2.0112,-1.9606,-1.9656,-2.0112,-2.0333,-2.0765,-2.1399,-2.2017,-2.2368,-2.2485,-2.2237,-2.2322,-2.2635,-2.3079,-2.2638,0.0,0.0,-1.9076,-1.7076,-1.4476,-1.1848,-0.9401,-0.7414,-0.6754,0.0,-0.6184,-0.7606,0.0,0.0,-1.0152,-1.073,-0.9643,-0.9224,-0.8717,-0.7756,-0.7763,-0.7872,-0.8025,-0.8749,-0.9428,0.0,-0.9717,-0.9852,-0.9814,-0.9844,-1.1192,-1.4919,-1.4735,-1.3192,-1.0658,-0.9831,-0.95,-0.9561,-0.9564,-0.9887,-1.0398,-1.051,-1.1851,-1.4832,-1.4702,-1.5864,-1.823,-1.7929,-1.7776,-1.7769,-1.7475,-1.7268,-1.7134,-1.6667,-1.6293,-1.6005,-1.5885,-1.5832,-1.5832,-1.5832,-1.5832,-1.5772,-1.519,-1.6352,-1.8136,-1.7764,-1.8321,-1.9248,0.0,0.0,0.0,0.0,0.0,0.0,0.0,0.0,0.0,0.0,0.0,0.0,0.0,0.0,0.0,0.0,0.0,0.0,0.0,-1.7047,-1.6286,-1.6789,-1.6692,-1.6642,-1.6794,-1.8201,-1.934,-2.0119,-2.0454,-2.0863,-2.1256,-2.1256,-2.121,-2.1118,-2.0782,-2.0765,-2.0991,-2.1228,-2.1486,-2.1893,-2.2608,-2.2972,-2.2979,-2.2353,-2.2123,-2.2089,-2.1941,-2.1028,0.0,0.0,-1.5913,-1.3739,-1.0654,-0.8086,-0.5998,-0.5058,-0.4388,-0.4145,-0.5204,0.0,0.0,-0.8423,-0.9823,-1.0706,-0.9041,-0.8826,-0.8742,-0.7834,-0.7882,-0.7956,-0.7976,-0.8971,-0.9853,-0.9781,-0.9933,-0.9943,-0.9838,-0.9703,-1.1832,-1.8159,-1.667,-1.3547,-0.937,-0.9201,-0.9334,-0.9378,-0.9381,-0.9364,-0.932,-0.9317,-1.0543,-1.3077,-1.3372,-1.4718,-1.7257,-1.7397,-1.7462,-1.7462,-1.7168,-1.7027,-1.7007,-1.65,-1.6112,-1.5832,-1.5832,-1.5832,-1.5832,-1.5832,-1.5785,-1.5658,-1.5506,-1.655,-1.7981,-1.7384,-1.8024,-1.9238,0.0,0.0,0.0,0.0,0.0,0.0,0.0,0.0,0.0,0.0,0.0,0.0,0.0,0.0,0.0,0.0,0.0,0.0,0.0,-1.8209,-1.7522,-1.6635,-1.721,-1.7776,-1.8223,-1.881,-1.9878,-2.1437,-2.1467,-2.1595,-2.1866,-2.1866,-2.1719,-2.1467,-2.1467,-2.1303,-2.1055,-2.1753,-2.2187,-2.2461,-2.3178,-2.3631,-2.3754,-2.2845,-2.244,-2.2258,-2.1292,0.0,0.0,0.0,-1.2188,-0.8646,-0.652,-0.5033,0.0,-0.3218,-0.3278,-0.3881,-0.4983,0.0,-0.5953,-0.6347,-0.8348,-0.9703,-0.7647,-0.7606,-0.8028,-0.7959,-0.7968,-0.8004,-0.7957,-0.8981,-0.9853,-0.9827,-1.0255,-1.0531,-0.9933,-0.9264,-1.1069,-1.701,-1.2496,-0.8821,0.0,-0.8749,-0.9101,-0.9371,-0.9381,-0.9317,-0.9167,-0.9161,-0.976,-1.1131,-1.2526,-1.403,-1.5429,-1.6665,-1.7161,-1.7161,-1.686,-1.672,-1.6707,-1.6413,-1.6112,-1.5832,-1.5832,-1.5832,-1.5832,-1.5832,-1.5665,-1.547,-1.6291,-1.7094,-1.7813,-1.8101,-1.8732,-1.9287,0.0,0.0,0.0,0.0,0.0,0.0,0.0,0.0,0.0,0.0,0.0,0.0,0.0,0.0,0.0,0.0,0.0,0.0,0.0,-1.8269,-1.7574,-1.7716,-1.7989,-1.8292,-1.8611,-1.9884,-2.0968,-2.1831,-2.237,-2.2817,-2.3159,-2.3159,-2.3115,-2.3003,-2.2747,-2.27,-2.2864,-2.2829,-2.3035,-2.3435,-2.3912,-2.4154,-2.4153,-2.3385,-2.2718,-2.1848,0.0,0.0,0.0,-1.1764,-0.8516,-0.5305,-0.3284,-0.2047,-0.1278,-0.1058,-0.1109,-0.1305,-0.1655,-0.3204,-0.5099,-0.6956,-0.8074,-0.8527,-0.7897,-0.7851,-0.7966,-0.7976,-0.8038,-0.7969,-0.8042,-0.8681,-0.9354,-0.9683,-0.9982,-1.0063,-0.9814,-1.1507,-1.2458,-1.1902,-1.1568,0.0,0.0,0.0,0.0,-0.8923,-0.8937,-0.8957,-0.9008,-0.8916,-0.9911,-1.2195,-1.2585,-1.3969,-1.6266,-1.6698,-1.6854,-1.6847,-1.656,-1.6313,-1.6119,-1.6025,-1.5925,-1.5832,-1.5832,-1.5832,-1.5812,-1.5618,-1.5927,-1.649,-1.6308,-1.7294,-1.8815,-1.8789,-1.8965,-1.9248,0.0,0.0,0.0,0.0,0.0,0.0,0.0,0.0,0.0,0.0,0.0,0.0,0.0,0.0,0.0,0.0,0.0,0.0,0.0,0.0,-1.8489,-1.851,-1.9206,-1.9745,-2.0103,-2.1141,-2.1989,-2.2585,-2.2844,-2.3182,-2.3577,-2.361,-2.3643,-2.3687,-2.3642,-2.3687,-2.3786,-2.3677,-2.3852,-2.4223,-2.452,-2.4705,-2.4704,-2.3884,-2.2862,0.0,0.0,0.0,0.0,-0.8385,-0.5279,-0.2366,-0.0783,-0.0173,0.0,0.0,0.0,0.0,0.0,-0.1278,-0.3409,-0.7086,-0.7997,-0.8004,-0.799,-0.7842,-0.7658,-0.7684,-0.7709,-0.7523,-0.6908,-0.7234,-0.7903,-0.8677,-0.8794,-0.9091,-0.9666,-1.1197,-1.2325,-1.2565,-1.1993,-1.1133,0.0,0.0,0.0,-0.8625,-0.873,-0.8811,-0.8855,-0.919,-1.0194,-1.1986,-1.2997,-1.4225,-1.5884,-1.65,-1.66,-1.6393,-1.6206,-1.6012,-1.5832,-1.5832,-1.5832,-1.5832,-1.5832,-1.5772,-1.5658,-1.5471,-1.5889,-1.6684,-1.669,-1.7788,-1.9282,-1.9289,-1.9345,-1.9248,0.0,0.0,0.0,0.0,0.0,0.0,0.0,0.0,0.0,0.0,0.0,0.0,0.0,0.0,0.0,0.0,0.0,0.0,0.0,0.0,0.0,-1.8996,-2.0733,-2.1972,-2.2495,-2.2482,-2.284,-2.3597,-2.3005,-2.289,-2.3261,-2.3316,-2.3433,-2.3615,-2.4191,-2.4244,-2.3912,-2.4289,-2.4559,-2.4752,-2.5013,-2.5267,-2.539,-2.4321,0.0,0.0,0.0,0.0,0.0,-0.5019,-0.244,0.039,0.1054,0.0806,0.0198,0.0139,0.0147,0.0156,0.0,0.0,-0.1308,-0.6657,-0.8045,-0.7997,-0.7945,-0.7705,-0.7434,-0.7492,-0.7408,-0.6783,0.0,0.0,-0.5801,-0.6845,-0.7073,-0.7714,-0.9535,-0.8819,-1.0822,0.0,0.0,0.0,0.0,0.0,0.0,-0.8496,0.0,-0.8866,-0.873,-0.998,-1.0715,-1.0818,-1.3524,-1.4859,-1.4618,-1.5946,-1.638,-1.5832,-1.5832,-1.5832,-1.5832,-1.5812,-1.5805,-1.5805,-1.5792,-1.5625,-1.5378,-1.5357,-1.5714,-1.6267,-1.7359,-1.8305,-1.9149,-1.9707,-1.9678,-1.9316,0.0,0.0,0.0,0.0,0.0,0.0,0.0,0.0,0.0,0.0,0.0,0.0,0.0,0.0,0.0,0.0,0.0,0.0,0.0,0.0,0.0,0.0,0.0,0.0,0.0,0.0,0.0,0.0,0.0,-2.4075,-2.4015,-2.4042,-2.4326,-2.4853,-2.4993,-2.5079,-2.5066,-2.5068,-2.5156,-2.5305,0.0,-2.5438,-2.5427,0.0,0.0,0.0,0.0,0.0,0.0,0.0,0.0,0.0,0.3862,0.3319,0.2712,0.2161,0.2024,0.17,0.0361,0.0,-0.1259,-0.6708,-0.7963,-0.7901,-0.7469,-0.992,-1.2352,-1.2326,-1.1617,-0.9615,0.0,0.0,0.0,-0.6403,-0.719,0.0,-0.8712,-0.9069,0.0,-1.1791,0.0,-1.5004,-1.0515,-1.0683,0.0,0.0,-0.8659,-0.8801,-0.8876,-0.9929,-1.0932,-1.1968,-1.3368,-1.4637,-1.5461,-1.5853,-1.5979,-1.5832,-1.5832,-1.5832,-1.5818,-1.5605,-1.5504,-1.5491,-1.5277,-1.5144,-1.5057,-1.4836,-1.5763,-1.7351,-1.7417,-1.8558,-2.0226,-2.0362,-2.0127,-1.9707,0.0,0.0,0.0,0.0,0.0,0.0,0.0,0.0,0.0,0.0,0.0,0.0,0.0,0.0,0.0,0.0,0.0,0.0,0.0,0.0,0.0,0.0,0.0,0.0,0.0,0.0,0.0,0.0,0.0,0.0,0.0,-2.3593,-2.4011,-2.4435,-2.4575,-2.4681,-2.4764,0.0,0.0,0.0,0.0,0.0,0.0,0.0,0.0,0.0,0.0,0.0,0.0,0.0,0.0,0.544,0.5214,0.4555,0.3828,0.3427,0.0,0.126,0.0281,0.0,-0.0694,-0.3706,-0.6251,-0.7839,-0.7242,-0.9165,-1.095,-1.0697,-0.9723,0.0,-0.5029,-0.496,0.0,0.0,0.0,0.0,-0.7981,-0.8256,-0.9913,0.0,-1.6631,0.0,-1.3727,-1.176,-1.0595,0.0,-0.9284,-0.8818,-0.8835,-1.0391,-1.1573,-1.2402,-1.4063,-1.5332,-1.6025,-1.5892,-1.5832,-1.5832,-1.5832,-1.5765,-1.5631,-1.5471,-1.5331,-1.5197,0.0,-1.489,-1.4756,-1.4589,-1.5704,-1.754,-1.7335,-1.8621,-2.0566,-2.0566,-2.0283,-1.9853,0.0,0.0,0.0,0.0,0.0,0.0,0.0,0.0,0.0,0.0,0.0,0.0,0.0,0.0,0.0,0.0,0.0,0.0,0.0,0.0,0.0,0.0,0.0,0.0,0.0,0.0,0.0,0.0,0.0,0.0,0.0,0.0,0.0,0.0,0.0,0.0,0.0,0.0,0.0,0.0,0.0,0.0,0.0,0.0,0.0,0.0,0.0,0.0,0.0,0.0,0.8621,0.6402,0.6045,0.5266,0.4499,0.4506,0.2862,0.0945,0.0196,0.0,0.0,0.0,-0.4055,-0.7837,-0.7311,-0.7278,-0.707,-0.6245,0.0,-0.4589,-0.4511,-0.4977,-0.5935,-0.7693,0.0,-0.847,-0.7449,-0.7388,-1.0433,-1.8423,-1.8281,-1.7802,-1.8339,-1.3643,-1.083,-1.1864,-1.049,-0.9483,-0.9248,-1.1481,-1.2782,-1.2822,-1.5041,-1.6213,-1.6213,-1.5959,-1.5832,-1.5832,-1.5832,-1.5678,-1.5398,-1.5357,-1.5177,-1.4903,-1.4863,0.0,-1.4462,-1.4502,-1.5683,-1.7334,-1.7365,-1.8708,-2.0488,-2.0547,-2.0254,-1.9775,0.0,0.0,0.0,0.0,0.0,0.0,0.0,0.0,0.0,0.0,-2.2189,0.0,0.0,0.0,0.0,0.0,0.0,0.0,0.0,0.0,0.0,0.0,0.0,0.0,0.0,0.0,0.0,0.0,0.0,0.0,0.0,0.0,0.0,0.0,0.0,0.0,0.0,0.0,0.0,0.0,0.0,0.0,0.0,0.0,0.0,0.0,0.0,0.0,0.0,0.0,1.0354,1.1277,0.7942,0.6963,0.7052,0.7223,0.6997,0.5618,0.125,0.0,0.0,0.0,-0.406,-0.793,-0.7884,-0.8187,0.0,0.0,-0.5013,-0.5065,-0.4565,-0.4979,-0.5937,-0.7745,-0.8084,-0.8217,-0.8589,-0.9062,-1.179,0.0,0.0,0.0,0.0,0.0,0.0,0.0,0.0,-1.285,-1.2087,-1.3447,-1.456,-1.521,-1.5639,-1.5905,-1.5905,-1.5852,-1.5832,-1.5832,-1.5832,-1.5678,-1.5391,-1.515,-1.4877,-1.4583,-1.4342,0.0,-1.4226,-1.4778,-1.5917,-1.739,-1.7883,-1.8923,-2.0068,-2.0439,-2.0068,-1.9385,0.0,0.0,0.0,0.0,0.0,0.0,0.0,0.0,0.0,-2.4091,-2.3479,-2.3158,0.0,0.0,0.0,0.0,0.0,0.0,0.0,0.0,0.0,0.0,0.0,0.0,0.0,0.0,0.0,0.0,0.0,0.0,0.0,0.0,0.0,0.0,0.0,0.0,0.0,0.0,0.0,0.0,0.0,0.0,0.0,0.0,0.0,0.0,0.0,0.0,0.0,0.0,1.1907,1.3754,0.944,0.7928,0.7826,0.8011,0.825,0.7276,0.1586,0.0,0.0,0.0,-0.3992,-0.7941,-0.7579,0.0,0.0,0.0,-0.4961,-0.5293,-0.5011,-0.5176,0.0,-0.809,-0.8185,0.0,0.0,0.0,0.0,0.0,0.0,0.0,0.0,0.0,0.0,0.0,0.0,-1.427,-1.2655,-1.3672,-1.4783,-1.5743,-1.5832,-1.5832,-1.5832,-1.5832,-1.5832,-1.5832,-1.5832,-1.5598,-1.5164,-1.503,-1.4716,-1.4282,-1.4148,0.0,-1.4963,-1.5293,-1.6532,-1.8186,-1.8282,-1.8984,-1.9912,-1.9902,-1.9639,-1.9258,0.0,0.0,0.0,0.0,0.0,0.0,0.0,-2.3723,-2.3864,-2.5087,-2.4654,-2.4216,-2.4178,-2.4147,-2.4481,0.0,0.0,0.0,0.0,0.0,0.0,0.0,0.0,0.0,0.0,0.0,0.0,0.0,0.0,0.0,0.0,0.0,0.0,0.0,0.0,0.0,0.0,0.0,0.0,0.0,0.0,0.0,0.0,0.0,0.0,0.0,0.0,0.0,0.0,0.0,1.239,1.4117,1.0729,0.8894,0.8031,0.8041,0.8409,0.7581,0.1595,0.0,0.0,0.0,-0.4019,-0.7837,-0.7114,-0.743,0.0,-0.497,-0.5546,-0.6542,-0.6492,-0.5885,-0.6209,0.0,-0.8184,-0.7487,0.0,0.0,0.0,0.0,0.0,0.0,0.0,0.0,0.0,0.0,0.0,0.0,-1.3351,-1.4027,-1.488,-1.5737,-1.5832,-1.5832,-1.5832,-1.5832,-1.5798,-1.5732,-1.5732,-1.5431,-1.487,-1.487,-1.4583,-1.4088,-1.4328,0.0,0.0,-1.6006,-1.7174,-1.8668,-1.8501,-1.8873,-1.9609,-1.9375,-1.917,-1.8975,0.0,0.0,0.0,0.0,0.0,0.0,0.0,-2.3593,-2.4471,-2.529,-2.5321,-2.5273,-2.5332,-2.5294,-2.5303,0.0,0.0,0.0,0.0,0.0,0.0,0.0,0.0,0.0,0.0,0.0,0.0,0.0,0.0,0.0,0.0,0.0,0.0,0.0,0.0,0.0,0.0,0.0,0.0,0.0,0.0,0.0,0.0,0.0,0.0,0.0,0.0,0.0,0.0,0.0,0.0,1.1211,1.1769,1.0173,0.8016,0.7995,0.0,0.0,0.1619,0.0,0.0,0.0,-0.4019,-0.77,-0.6596,0.0,-0.4827,-0.4578,-0.7493,-1.0134,-1.0104,-0.7565,-0.6505,0.0,0.0,-0.5829,0.0,0.0,0.0,0.0,0.0,0.0,0.0,0.0,0.0,0.0,0.0,0.0,-1.5895,-1.5737,-1.5662,-1.5832,-1.5832,-1.5832,-1.5832,-1.5832,-1.5698,-1.5438,-1.5438,-1.513,-1.4563,-1.4563,-1.4389,-1.4166,-1.5137,0.0,0.0,-1.6877,-1.7658,-1.7848,-1.8404,-1.8608,-1.8799,-1.916,-1.8799,-1.8174,0.0,0.0,0.0,0.0,0.0,0.0,0.0,-2.2792,-2.3748,-2.4895,-2.5175,-2.5336,-2.5471,-2.5506,-2.5505,0.0,0.0,0.0,0.0,0.0,0.0,0.0,0.0,0.0,0.0,0.0,0.0,0.0,0.0,0.0,0.0,0.0,0.0,0.0,0.0,0.0,0.0,0.0,0.0,0.0,0.0,0.0,0.0,0.0,0.0,0.0,0.0,0.0,0.0,0.0,0.0,0.0,1.1142,0.8783,0.0,0.0,0.8137,0.7175,0.1482,0.0,0.0,0.0,-0.4011,-0.7716,-0.6576,0.0,-0.4486,-0.4508,-0.7767,-1.0609,-1.0597,-0.9439,-0.9006,0.0,0.0,0.0,-0.8516,0.0,0.0,0.0,0.0,0.0,0.0,0.0,0.0,0.0,0.0,0.0,-1.5999,-1.5892,-1.5832,-1.5832,-1.5832,-1.5832,-1.5832,-1.5832,-1.5685,-1.5398,-1.5398,-1.509,-1.4522,-1.4522,-1.4692,-1.5054,-1.5538,0.0,0.0,-1.7569,-1.7992,-1.7897,-1.8371,-1.8562,-1.8623,-1.8545,-1.8301,-1.8037,0.0,0.0,0.0,0.0,0.0,0.0,-2.0333,-2.1322,-2.242,-2.366,-2.414,-2.4512,-2.4993,-2.5157,-2.5297,-2.5485,0.0,0.0,0.0,0.0,0.0,0.0,0.0,0.0,0.0,0.0,0.0,0.0,0.0,0.0,0.0,0.0,0.0,0.0,0.0,0.0,0.0,0.0,0.0,0.0,0.0,0.0,0.0,0.0,0.0,0.0,0.0,0.0,0.0,0.0,0.0,0.0,0.0,0.0,0.0,0.0,0.7574,0.6873,0.1408,0.0,-0.0427,-0.1972,-0.5202,-0.7661,0.0,0.0,-0.4874,-0.6042,-0.8569,-1.0595,-1.0608,-1.0601,-1.0601,0.0,0.0,-0.7782,-1.0232,0.0,0.0,0.0,0.0,0.0,0.0,0.0,0.0,0.0,0.0,0.0,-1.5832,-1.5832,-1.5832,-1.5832,-1.5832,-1.5832,-1.5832,-1.5832,-1.5645,-1.5271,-1.5271,-1.4963,-1.4396,-1.4396,-1.4689,-1.5296,-1.5755,0.0,0.0,-1.7819,-1.8008,-1.7615,-1.8203,-1.8447,-1.8418,-1.8115,-1.8008,-1.8008,0.0,0.0,0.0,0.0,0.0,0.0,0.0,-1.9141,-2.0619,-2.1424,-2.2004,-2.2755,-2.3893,-2.4191,-2.4627,-2.543,0.0,0.0,0.0,0.0,0.0,0.0,0.0,0.0,0.0,0.0,0.0,0.0,0.0,0.0,0.0,0.0,0.0,0.0,0.0,0.0,0.0,0.0,0.0,0.0,0.0,0.0,0.0,0.0,0.0,0.0,0.0,0.0,0.0,0.0,0.0,0.0,0.0,0.0,0.0,0.0,0.6655,0.6793,0.1468,0.0,-0.1245,-0.6643,-0.7959,-0.7526,0.0,0.0,-0.5628,-0.9692,-1.0574,-1.0581,-1.0591,-1.0624,-1.0588,-1.0611,0.0,0.0,-1.0604,0.0,0.0,0.0,0.0,0.0,0.0,0.0,0.0,0.0,0.0,0.0,-1.5832,-1.5832,-1.5832,-1.5832,-1.5832,-1.5832,-1.5832,-1.5832,-1.5538,-1.497,-1.497,-1.4663,-1.4088,-1.4088,-1.4088,0.0,0.0,0.0,0.0,-1.7488,-1.7811,-1.6715,-1.7657,-1.8018,-1.8018,-1.8008,-1.8008,-1.8008,0.0,0.0,0.0,0.0,0.0,0.0,0.0,-1.8095,-1.9144,-2.0492,-2.1195,-2.2092,-2.3565,-2.3946,-2.4475,-2.5418,0.0,0.0,0.0,0.0,0.0,0.0,0.0,0.0,0.0,0.0,0.0,0.0,0.0,0.0,0.0,0.0,0.0,0.0,0.0,0.0,0.0,0.0,0.0,0.0,0.0,0.0,0.0,0.0,0.0,0.0,0.0,0.0,0.0,0.0,0.0,0.0,0.0,0.0,0.0,0.0,0.0,0.0,0.0995,0.0,-0.0442,-0.2149,-0.527,-0.7556,-0.58,-0.7103,-0.9011,-1.0314,-1.0629,-1.0613,-1.0611,-1.0624,-1.0568,-1.0595,-1.0599,0.0,0.0,0.0,0.0,0.0,0.0,0.0,0.0,0.0,0.0,0.0,0.0,0.0,-1.5832,-1.5832,-1.5832,-1.5832,-1.5832,-1.5732,-1.5538,-1.5531,-1.5237,-1.4663,-1.4663,-1.4462,-1.4082,-1.3874,-1.4494,0.0,0.0,0.0,0.0,-1.7729,-1.7441,-1.5799,-1.7364,-1.8008,-1.8008,-1.8008,-1.8008,-1.8008,0.0,0.0,0.0,0.0,0.0,0.0,0.0,-1.7085,-1.7743,-1.8967,-1.9959,-2.1184,-2.2825,-2.3562,-2.4377,-2.5369,0.0,0.0,0.0,0.0,0.0,0.0,0.0,0.0,0.0,0.0,0.0,0.0,0.0,0.0,0.0,0.0,0.0,0.0,0.0,0.0,0.0,0.0,0.0,0.0,0.0,0.0,-0.4973,0.0,0.0,0.0,0.0,0.0,0.0,0.0,0.0,0.0,0.0,0.0,0.0,0.0,0.3126,0.2417,0.0,0.0,0.0,0.0,-0.3526,0.0,0.0,-0.8088,-1.0581,-1.0601,-1.06,-1.0624,-1.0624,-1.0624,-1.0624,-1.0624,-1.0631,0.0,0.0,0.0,0.0,0.0,0.0,0.0,0.0,0.0,0.0,0.0,0.0,0.0,-1.5832,-1.5832,-1.5785,-1.5779,-1.5671,-1.5524,-1.5237,-1.5237,-1.499,-1.4522,-1.4522,-1.4369,-1.4075,-1.3781,-1.4508,0.0,0.0,0.0,0.0,-1.7656,-1.7311,-1.5877,-1.7442,-1.8008,-1.8008,-1.8008,-1.8008,-1.8008,0.0,0.0,0.0,0.0,0.0,0.0,0.0,0.0,0.0,0.0,-1.8633,-2.021,-2.1898,-2.3176,-2.4303,0.0,0.0,0.0,0.0,0.0,0.0,0.0,0.0,0.0,0.0,0.0,0.0,-2.5335,-2.428,-2.4823,-2.6794,0.0,0.0,0.0,0.0,0.0,0.0,0.0,0.0,0.0,0.0,0.0,0.0,0.0,0.0,0.0,0.0,0.0,0.0,0.0,0.0,0.0,0.0,0.0,0.0,0.0,0.0,0.0,0.0,0.0,-0.0078,-0.0317,-0.2885,0.0,0.0,0.0,0.0,-1.0604,-1.0624,-1.0631,-1.0581,-1.0588,-1.0595,-1.0615,0.0,0.0,0.0,0.0,0.0,0.0,0.0,0.0,0.0,0.0,0.0,0.0,0.0,0.0,-1.5832,-1.5812,-1.5779,-1.5793,-1.5548,-1.5211,-1.4937,-1.5019,-1.4783,-1.4489,-1.4489,-1.4349,-1.4075,-1.3781,-1.4184,0.0,0.0,0.0,0.0,-1.7376,-1.7442,-1.6673,-1.7657,-1.7988,-1.7969,-1.7969,-1.7949,-1.792,0.0,0.0,0.0,0.0,0.0,0.0,0.0,0.0,0.0,0.0,-1.9621,-2.1077,-2.2738,-2.3461,-2.4262,0.0,0.0,0.0,0.0,0.0,0.0,0.0,0.0,0.0,0.0,0.0,0.0,-2.366,-2.2905,-2.2501,-2.2501,-2.2358,0.0,0.0,0.0,0.0,0.0,0.0,0.0,0.0,0.0,0.0,0.0,0.0,0.0,0.0,1.0594,1.0571,0.0,0.0,0.0,0.0,0.0,0.0,0.0,0.0,0.1285,0.0,0.0,0.0,-0.068,-0.3426,-0.4792,-0.5261,0.0,0.0,0.0,0.0,0.0,0.0,0.0,0.0,0.0,0.0,0.0,0.0,0.0,0.0,0.0,0.0,0.0,0.0,0.0,0.0,0.0,0.0,0.0,-1.5832,-1.5832,-1.5832,-1.5787,-1.5791,-1.5349,-1.4994,-1.473,-1.473,-1.4576,-1.4188,-1.4188,-1.4155,-1.4075,-1.3781,-1.4372,0.0,0.0,0.0,-1.6483,-1.7548,-1.7432,-1.6715,-1.7647,-1.7812,-1.7529,-1.7529,-1.7314,-1.7031,0.0,0.0,0.0,0.0,0.0,0.0,0.0,0.0,0.0,0.0,0.0,0.0,0.0,0.0,0.0,0.0,0.0,0.0,0.0,0.0,0.0,0.0,0.0,0.0,0.0,0.0,0.0,0.0,0.0,-2.0738,0.0,0.0,0.0,0.0,0.0,0.0,0.0,0.0,0.0,0.0,-0.626,0.0,0.0,0.0,0.0,0.0,1.0575,1.0586,0.0,1.0606,0.8939,0.6534,0.0,0.0,0.0,0.0,0.1416,0.0,0.0,0.0,-0.0841,-0.4472,-0.5372,-0.5286,-0.5005,0.0,0.0,0.0,0.0,0.0,0.0,0.0,0.0,0.0,-1.1383,0.0,0.0,0.0,0.0,0.0,0.0,0.0,0.0,0.0,0.0,0.0,0.0,-1.5819,-1.5769,-1.5828,-1.5518,-1.5069,-1.477,-1.4545,-1.4409,-1.422,-1.4065,-1.3783,-1.3687,-1.3687,-1.3674,-1.3839,-1.4595,0.0,0.0,0.0,-1.7285,-1.7794,-1.7716,-1.7267,-1.7581,-1.7578,-1.7363,-1.7158,-1.6934,-1.6665,0.0,0.0,0.0,0.0,0.0,0.0,0.0,0.0,0.0,0.0,0.0,0.0,0.0,0.0,0.0,0.0,0.0,0.0,0.0,0.0,0.0,0.0,0.0,0.0,0.0,0.0,0.0,0.0,0.0,0.0,0.0,0.0,-1.9914,0.0,0.0,0.0,0.0,0.0,0.0,0.0,-0.5817,0.0,0.0,0.0,0.0,0.0,0.0,0.0,0.0,1.0593,0.8296,0.5383,0.5384,0.0,0.0,0.0,0.0,0.0,-0.1036,-0.1331,-0.2094,-0.4383,-0.5624,-0.6125,-0.5836,0.0,0.0,0.0,0.0,0.0,0.0,-1.1395,0.0,0.0,0.0,0.0,0.0,0.0,0.0,0.0,0.0,0.0,0.0,0.0,0.0,0.0,0.0,-1.5591,-1.5805,-1.5665,-1.5113,-1.4169,-1.4077,-1.4041,-1.3797,-1.3466,-1.3366,-1.3478,-1.3299,-1.3213,-1.32,-1.3921,-1.4726,-1.5601,0.0,0.0,-1.792,-1.7978,-1.793,-1.7783,-1.75,-1.7305,-1.7139,-1.6768,-1.6592,-1.6533,0.0,0.0,0.0,0.0,0.0,0.0,0.0,0.0,0.0,0.0,0.0,0.0,0.0,0.0,0.0,0.0,0.0,0.0,0.0,0.0,0.0,0.0,0.0,0.0,0.0,0.0,0.0,0.0,0.0,0.0,-1.7169,-1.7305,-1.8446,-2.0294,0.0,0.0,-1.6325,-1.3909,-1.2665,-1.1843,-0.6584,0.0,0.0,0.0,0.0,0.0,0.0,0.0,0.0,1.0611,0.827,0.5427,0.5371,0.0,0.0,0.0,0.0,0.0,-0.5678,-0.7499,-0.7734,-0.4061,-0.6502,-0.9445,-0.7921,0.0,0.0,0.0,0.0,0.0,0.0,-1.0753,-1.15,0.0,0.0,0.0,0.0,0.0,0.0,0.0,0.0,0.0,0.0,0.0,0.0,0.0,0.0,-1.4753,-1.5777,-1.4872,-1.4302,-1.407,-1.4061,-1.3628,-1.2621,-1.2523,-1.2724,-1.322,-1.3213,-1.3213,-1.3206,-1.4144,-1.4942,-1.5618,0.0,-1.7139,-1.751,-1.7861,-1.7578,-1.6963,-1.7266,-1.6924,-1.6321,-1.6191,-1.5928,-1.5615,0.0,0.0,0.0,0.0,0.0,0.0,0.0,0.0,0.0,0.0,0.0,0.0,0.0,0.0,0.0,0.0,0.0,0.0,0.0,0.0,0.0,0.0,0.0,0.0,0.0,0.0,0.0,0.0,0.0,-1.6417,-1.5553,-1.67,-1.7522,-1.8013,0.0,-1.8489,-1.6349,-1.3906,-1.292,-1.2272,0.0,0.0,0.0,0.0,0.0,0.0,0.0,0.0,0.0,0.0,0.8891,0.6459,0.4549,0.0,0.0,0.0,0.0,0.0,-0.7859,-1.025,-1.1059,-0.8203,-0.8814,-0.9845,-0.8752,0.0,0.0,0.0,0.0,0.0,0.0,0.0,0.0,0.0,0.0,0.0,0.0,0.0,0.0,0.0,0.0,0.0,0.0,0.0,0.0,0.0,0.0,0.0,-1.4857,-1.4422,-1.4143,-1.4097,-1.348,-1.268,-1.1834,-1.1815,-1.2136,-1.2719,-1.2398,-1.2331,-1.2553,-1.3745,-1.4593,-1.5184,0.0,-1.7377,-1.7715,-1.7686,-1.7441,-1.7061,-1.6777,-1.6478,-1.6096,-1.5801,-1.5586,-1.541,0.0,0.0,0.0,0.0,0.0,0.0,0.0,0.0,0.0,0.0,0.0,0.0,0.0,0.0,0.0,0.0,0.0,0.0,0.0,0.0,0.0,0.0,0.0,0.0,0.0,0.0,-1.7231,-1.5683,-1.547,-1.5257,-1.5054,-1.6486,-1.7133,0.0,0.0,0.0,-1.6315,-1.3558,-1.2351,-1.1722,0.0,0.0,0.0,0.0,0.0,0.0,0.0,0.0,0.0,0.0,0.0,0.0,0.0,0.0,0.0,-0.1407,-0.3271,-0.5596,-0.9144,-1.1776,-1.3273,-1.2535,0.0,-0.9653,-0.8604,-0.8565,0.0,0.0,0.0,0.0,0.0,0.0,0.0,0.0,0.0,0.0,0.0,0.0,0.0,0.0,0.0,0.0,0.0,0.0,0.0,0.0,0.0,0.0,-1.3675,-1.369,-1.3778,-1.3845,-1.2838,-1.2037,-1.1468,-1.1352,-1.1559,-1.2091,-1.1643,-1.1612,-1.2109,-1.3478,-1.4363,-1.4959,-1.6543,-1.7353,-1.7539,-1.7324,-1.7109,-1.6865,-1.6351,-1.6056,-1.5869,-1.5537,-1.5352,-1.5283,0.0,0.0,0.0,0.0,0.0,0.0,0.0,0.0,0.0,0.0,0.0,0.0,0.0,0.0,0.0,0.0,0.0,0.0,0.0,0.0,0.0,0.0,0.0,0.0,0.0,-1.5688,-1.5233,-1.5859,-1.4488,-1.4743,-1.6618,-1.6777,-1.7461,-1.8481,0.0,0.0,-1.627,-1.2413,-1.0763,-1.0509,-0.7366,0.0,0.0,0.0,0.0,0.0,0.0,0.0,0.0,0.0,0.0,0.0,0.0,0.0,0.2638,-0.0295,-0.3432,-0.6649,-0.9871,-1.2781,-1.4827,-1.4528,-1.2437,0.0,-0.7261,-0.7706,0.0,-0.7948,0.0,0.0,0.0,0.0,0.0,0.0,0.0,0.0,0.0,0.0,0.0,0.0,0.0,0.0,0.0,0.0,0.0,0.0,0.0,0.0,-1.2441,-1.2393,-1.27,-1.3223,-1.2606,-1.2071,-1.1663,-1.1292,-1.1237,-1.149,-1.145,-1.1847,-1.2683,-1.3643,-1.4493,-1.5301,-1.6313,-1.6562,-1.623,-1.6621,-1.6299,-1.5586,-1.5928,-1.5811,-1.5459,-1.542,-1.5166,-1.4893,0.0,0.0,0.0,0.0,0.0,0.0,0.0,0.0,0.0,0.0,0.0,0.0,0.0,0.0,0.0,0.0,0.0,0.0,0.0,0.0,0.0,0.0,0.0,-1.5415,-1.494,-1.4401,-1.3854,-1.3418,-1.3816,-1.5032,-1.7048,-1.7048,0.0,0.0,0.0,0.0,0.0,-1.2087,-1.0604,-1.0298,-0.7087,-0.4336,0.0,0.0,0.0,0.0,0.0,0.0,0.0,0.0,0.9872,0.9715,0.0,0.5907,0.2854,0.0,-0.577,-0.9535,-1.348,-1.5646,-1.6555,-1.5685,-1.3316,0.0,0.0,-0.733,-0.7234,-0.6836,-0.7282,0.0,0.0,0.0,0.0,0.0,0.0,0.0,0.0,0.0,0.0,0.0,0.0,0.0,0.0,0.0,0.0,0.0,0.0,0.0,-1.1217,-1.1544,-1.1838,-1.2094,-1.1854,-1.1508,-1.1018,-1.084,-1.0745,-1.0615,-1.0802,-1.1428,-1.2379,-1.3068,-1.4042,-1.5088,-1.5928,-1.6377,-1.6475,-1.6357,-1.6113,-1.5811,-1.5703,-1.5557,-1.541,-1.541,-1.5146,-1.4805,0.0,0.0,0.0,0.0,0.0,0.0,0.0,0.0,0.0,0.0,0.0,0.0,0.0,0.0,0.0,0.0,0.0,0.0,0.0,0.0,0.0,0.0,0.0,-1.4669,-1.3858,-1.3877,-1.3547,-1.2805,-1.3996,-1.5273,-1.6636,0.0,0.0,0.0,0.0,0.0,0.0,-1.2388,-1.0624,-1.0368,-0.7589,-0.5695,0.0,0.0,0.0,0.0,0.0,0.0,0.0,0.0,0.9762,0.0,0.0,0.0,0.0,0.0,0.0,-1.3789,-1.6975,-1.8289,-1.8159,0.0,0.0,0.0,-0.7469,-0.6348,-0.5775,-0.5029,-0.5858,0.0,0.0,0.0,0.0,0.0,0.0,0.0,0.0,0.0,0.0,0.0,0.0,0.0,0.0,0.0,0.0,0.0,0.0,0.0,0.0,-1.1134,-1.132,-1.1154,-1.1175,-1.0924,-1.0431,-1.0425,-1.026,-0.998,-1.0417,-1.1164,-1.2143,-1.2462,-1.339,-1.4666,-1.5215,-1.5703,-1.6094,-1.5781,-1.5732,-1.5811,-1.5381,-1.5215,-1.5195,-1.5059,-1.4746,-1.4404,0.0,0.0,0.0,0.0,0.0,0.0,0.0,0.0,0.0,0.0,0.0,0.0,0.0,0.0,0.0,0.0,0.0,0.0,0.0,0.0,0.0,0.0,0.0,-1.3259,-1.4076,-1.4116,-1.4316,-1.4775,-1.5205,-1.5418,-1.5412,-1.6252,0.0,0.0,0.0,0.0,0.0,-1.3191,-1.0574,-1.0533,-0.9432,-0.8041,-0.641,0.0,0.0,0.0,0.0,0.0,0.0,0.0,0.9811,1.1137,0.0,0.0,0.0,-0.4803,-1.231,-1.9538,-2.0083,-2.0279,-1.9468,0.0,0.0,0.0,-0.5427,-0.4567,-0.4173,-0.2358,0.0,-0.7191,0.0,0.0,0.0,0.0,0.0,0.0,0.0,0.0,0.0,0.0,0.0,0.0,0.0,0.0,0.0,0.0,0.0,0.0,0.0,-1.1109,-1.1134,-1.062,-1.0607,-1.0412,-1.0114,-1.0114,-0.9967,-0.9737,-1.0401,-1.1118,-1.1894,-1.1894,-1.2731,-1.4077,-1.4077,-1.4375,-1.4775,-1.4775,-1.5029,-1.5361,-1.4941,-1.4775,-1.4727,-1.4297,-1.3867,-1.3564,0.0,0.0,0.0,0.0,0.0,0.0,0.0,0.0,0.0,0.0,0.0,0.0,0.0,0.0,0.0,0.0,0.0,0.0,0.0,0.0,0.0,0.0,0.0,0.0,0.0,0.0,-1.3886,-1.3507,-1.4768,-1.5385,0.0,0.0,0.0,-1.8295,0.0,0.0,0.0,-1.2353,-1.0574,-1.0492,-0.8931,-0.7949,-0.715,0.0,0.0,0.0,0.0,0.0,0.0,0.0,0.0,0.0,0.0,0.0,0.0,-1.0524,-1.6033,-2.0412,-2.0747,-1.9503,0.0,-1.441,0.0,0.0,0.0,-0.4142,0.0,0.0,0.0,0.0,0.0,0.0,0.0,0.0,0.0,0.0,0.0,0.0,0.0,0.0,0.0,0.0,0.0,0.0,0.0,0.0,0.0,0.0,0.0,-1.0762,-1.0733,-1.0625,-1.0208,-0.9854,-0.961,-0.961,-0.9755,-1.0132,-1.0346,-1.0949,-1.1894,-1.2401,-1.3132,-1.4077,-1.4077,-1.4209,-1.4326,-1.4326,-1.4404,-1.4447,-1.4375,-1.4326,-1.4307,-1.4126,-1.3867,-1.3567,0.0,0.0,0.0,0.0,0.0,0.0,0.0,0.0,0.0,0.0,0.0,0.0,0.0,0.0,0.0,0.0,0.0,0.0,0.0,0.0,0.0,0.0,0.0,0.0,0.0,-1.4347,-1.4378,0.0,0.0,0.0,0.0,0.0,0.0,-1.7994,0.0,-1.6364,0.0,0.0,-1.1791,-1.0498,-0.9479,-0.8546,-0.7676,0.0,0.0,0.0,0.0,0.0,0.0,0.0,0.0,0.0,0.0,0.0,0.0,-1.2589,-1.7247,-2.0644,-1.9869,-1.8013,0.0,-1.2641,-1.0662,-0.8624,-0.5593,0.0,0.0,0.0,0.0,0.0,0.0,0.0,0.0,0.0,0.0,0.0,0.0,0.0,0.0,0.0,0.0,0.0,0.0,0.0,0.0,0.0,0.0,0.0,0.0,-1.0174,-0.9879,-0.9902,-0.9512,-0.9262,-0.9151,-0.9535,-0.9885,-1.0242,-1.0688,-1.1259,-1.1884,-1.2272,-1.2878,-1.3643,-1.3818,-1.3887,-1.3844,-1.4009,-1.4077,-1.4058,-1.3902,-1.3887,-1.3867,-1.3691,-1.3477,-1.3302,0.0,0.0,0.0,0.0,0.0,0.0,0.0,0.0,0.0,0.0,0.0,0.0,0.0,0.0,0.0,0.0,0.0,0.0,0.0,0.0,0.0,0.0,0.0,0.0,0.0,0.0,0.0,0.0,0.0,0.0,0.0,0.0,-1.6748,-1.8394,0.0,-1.5532,-1.5396,-1.5425,-1.3735,-1.1029,-1.0698,-0.968,-0.821,-0.7661,0.0,0.0,0.0,0.0,0.0,0.0,0.0,0.0,-0.0245,-0.4876,-1.0061,-1.2419,-1.6653,-2.0124,-1.7764,0.0,0.0,-1.0498,-0.894,0.0,-0.567,-0.2545,-0.0301,-0.1599,0.0,0.0,0.0,0.0,0.0,0.0,0.0,0.0,0.0,0.0,0.0,0.0,0.0,0.0,0.0,0.0,0.0,0.0,0.0,0.0,0.0,-0.9375,-0.8801,-0.8779,-0.8773,-0.8773,-0.8811,-0.9762,-1.0296,-1.034,-1.1342,-1.1814,-1.1913,-1.1913,-1.2295,-1.29,-1.3281,-1.3447,-1.3477,-1.3857,-1.397,-1.3922,-1.3603,-1.3447,-1.3408,-1.3018,-1.2881,-1.2929,0.0,0.0,0.0,0.0,0.0,0.0,0.0,0.0,0.0,0.0,0.0,0.0,0.0,0.0,0.0,0.0,0.0,0.0,0.0,0.0,0.0,0.0,0.0,0.0,0.0,0.0,0.0,0.0,0.0,0.0,0.0,0.0,0.0,-2.1895,0.0,-1.6693,-1.5391,-1.5428,-1.4976,-1.4145,-1.16,-1.0378,-0.9722,-0.6983,-0.5653,0.0,0.0,0.0,0.0,0.0,0.0,0.0,-0.6022,-0.9302,-1.2559,-1.5237,-1.6769,-1.7163,-1.5089,-1.238,0.0,0.0,-0.7353,-0.5754,-0.4544,-0.2028,-0.0096,0.0,0.0,0.0,0.0,0.0,0.0,0.0,0.0,0.0,0.0,0.0,0.0,0.0,0.0,0.0,0.0,0.0,0.0,0.0,0.0,0.0,-0.9205,-0.8912,-0.8773,-0.8791,-0.8784,-0.8811,-0.8804,-1.0015,-1.0867,0.0,-1.1601,-1.208,-1.2666,-1.2666,-1.2764,-1.2881,-1.2978,-1.3018,-1.3027,-1.3115,-1.3154,-1.3145,-1.3047,-1.3018,-1.3008,-1.291,-1.2881,-1.2978,0.0,0.0,0.0,0.0,0.0,0.0,0.0,0.0,0.0,0.0,0.0,0.0,0.0,0.0,0.0,0.0,0.0,0.0,0.0,0.0,0.0,0.0,0.0,0.0,0.0,0.0,0.0,0.0,0.0,0.0,0.0,0.0,0.0,-2.1466,0.0,-1.7592,-1.5414,-1.54,-1.5381,-1.5122,-1.1897,-1.0608,-1.0296,-0.7352,-0.5879,-0.542,-0.5391,0.0,0.0,0.0,0.0,0.0,0.0,0.0,-1.2663,-1.4497,-1.4694,-1.4061,-1.2656,0.0,0.0,-0.8136,0.0,-0.6438,-0.5885,-0.4557,0.0,0.0,0.0,0.0,0.0,0.0,0.0,0.0,0.0,0.0,0.0,0.0,0.0,0.0,0.0,0.0,0.0,0.0,0.0,0.0,0.0,-1.0169,-0.8884,-0.8816,-0.8784,-0.8811,-0.8804,-0.8784,-0.8783,-0.9489,-1.0618,-1.2145,-1.2292,-1.251,-1.2881,-1.2881,-1.2881,-1.2881,-1.2881,-1.2881,-1.2881,-1.2881,-1.2881,-1.2881,-1.2881,-1.2881,-1.2881,-1.2881,-1.3055,-1.3372,0.0,0.0,0.0,0.0,0.0,0.0,0.0,0.0,0.0,0.0,0.0,0.0,0.0,0.0,0.0,0.0,0.0,0.0,0.0,0.0,0.0,0.0,0.0,0.0,0.0,0.0,0.0,0.0,0.0,0.0,0.0,0.0,0.0,-1.9775,0.0,-1.844,-1.6151,-1.6177,-1.6038,-1.5496,-1.2571,-1.1413,-1.1121,-0.8633,-0.6994,-0.5956,-0.5738,-0.6301,-0.7351,-0.7871,0.0,0.0,0.0,0.0,-1.195,-1.2458,-1.1974,-1.1142,-1.064,0.0,-0.8706,-0.8163,-0.7914,0.0,-0.7927,-0.7404,0.0,0.0,0.0,0.0,0.0,0.0,0.0,0.0,0.0,0.0,0.0,0.0,0.0,0.0,0.0,0.0,0.0,0.0,0.0,0.0,0.0,-1.1179,-0.8949,-0.8798,-0.8804,-0.8804,-0.8804,-0.881,-0.8799,-0.9264,-1.0672,-1.2908,-1.289,-1.2881,-1.2881,-1.2881,-1.2881,-1.2881,-1.2881,-1.2881,-1.2881,-1.2881,-1.2881,-1.2881,-1.2881,-1.2881,-1.2881,-1.2881,-1.3286,-1.3815,0.0,0.0,0.0,0.0,0.0,0.0,0.0,0.0,0.0,0.0,0.0,0.0,0.0,0.0,0.0,0.0,0.0,0.0,-1.8897,0.0,0.0,-1.293,-1.3121,-1.5087,0.0,0.0,0.0,0.0,0.0,0.0,0.0,0.0,0.0,-1.9793,0.0,0.0,-1.9198,-1.9195,-1.8462,-1.7162,-1.5476,-1.4737,-1.4412,-1.1238,-0.9325,-0.8076,-0.6915,-0.7129,-0.7902,-0.8256,-0.9988,0.0,0.0,0.0,-1.1826,-1.1108,-1.0099,-0.9313,0.0,0.0,-0.8804,0.0,-0.8516,-0.7616,0.0,0.0,0.0,0.0,0.0,0.0,0.0,0.0,0.0,0.0,0.0,0.0,0.0,0.0,0.0,0.0,0.0,0.0,0.0,0.0,0.0,0.0,-1.071,-0.9165,-0.8826,-0.881,-0.8804,-0.8804,-0.8804,-0.881,-0.8799,-1.115,-1.2566,-1.2908,-1.289,-1.2881,-1.2881,-1.2881,-1.2881,-1.2881,-1.2881,-1.2881,-1.2881,-1.2881,-1.2881,-1.2881,-1.2881,-1.2881,-1.2881,-1.2881,-1.3286,-1.3815,0.0,0.0,0.0,0.0,0.0,0.0,0.0,0.0,0.0,0.0,0.0,0.0,0.0,0.0,0.0,-1.6763,-1.8104,-1.861,-1.7929,-1.6306,-1.4656,-1.2979,-1.2922,-1.5078,-1.9697,0.0,0.0,0.0,0.0,0.0,0.0,-2.1091,-2.1639,0.0,0.0,0.0,0.0,0.0,0.0,-1.8787,-1.8148,-1.6874,-1.5176,-1.298,-1.1145,-0.9539,-0.85,-0.8559,-0.9142,-0.9114,-1.084,-1.2766,-1.1927,0.0,0.0,0.0,-1.1236,0.0,-1.0449,-1.0268,-1.0126,0.0,-0.9018,-0.8107,-1.0077,0.0,0.0,0.0,0.0,0.0,0.0,0.0,0.0,0.0,0.0,0.0,0.0,0.0,0.0,0.0,0.0,0.0,0.0,0.0,0.0,0.0,-0.9504,-0.8775,-0.8783,-0.8784,-0.8804,-0.8804,-0.8803,-0.882,-0.8813,-1.1512,-1.2888,-1.291,-1.291,-1.2881,-1.2881,-1.2881,-1.3055,-1.342,-1.342,-1.361,-1.3931,-1.3931,-1.3695,-1.342,-1.342,-1.342,-1.3372,-1.3017,-1.3695,-1.4767,0.0,0.0,0.0,0.0,0.0,0.0,0.0,0.0,0.0,0.0,0.0,0.0,0.0,0.0,0.0,0.0,-1.9081,-1.8121,-1.7001,-1.6797,-1.5774,-1.3636,-1.3539,-1.5224,-1.8895,0.0,0.0,0.0,0.0,0.0,-1.9858,-2.1511,-2.2386,0.0,-2.1787,0.0,0.0,0.0,0.0,0.0,0.0,0.0,0.0,0.0,-1.3033,-1.1236,-1.0401,-1.038,-1.0634,-1.0501,-1.2069,-1.3829,-1.2953,-1.2842,0.0,0.0,0.0,0.0,0.0,0.0,-1.1659,-1.1511,-1.0018,-0.9266,0.0,0.0,0.0,0.0,0.0,0.0,0.0,0.0,0.0,0.0,0.0,0.0,0.0,0.0,0.0,0.0,0.0,0.0,0.0,0.0,0.0,0.0,-0.8775,-0.8776,-0.8804,-0.8804,-0.8804,-0.8804,-0.8783,-0.913,-0.9845,-1.1868,-1.292,-1.2881,-1.2881,-1.2881,-1.2881,-1.2881,-1.315,-1.3596,-1.3737,-1.4143,-1.4698,-1.4698,-1.4422,-1.405,-1.405,-1.3956,-1.3779,-1.3478,-1.4201,-1.532,0.0,0.0,0.0,0.0,0.0,0.0,0.0,0.0,0.0,0.0,0.0,0.0,0.0,-1.849,-1.9798,-1.9798,-1.9749,-1.9296,-1.8378,-1.7832,-1.6877,-1.5362,-1.5268,0.0,-1.6638,0.0,0.0,0.0,0.0,0.0,-1.9797,-1.9924,-2.0335,-2.1014,-2.1375,-2.1259,-2.0851,0.0,0.0,0.0,0.0,0.0,0.0,0.0,0.0,0.0,0.0,-1.246,-1.2235,-1.2534,-1.4105,-1.5757,-1.4437,-1.4461,-1.4727,0.0,0.0,0.0,0.0,-1.3129,0.0,-1.356,0.0,0.0,0.0,0.0,0.0,0.0,0.0,0.0,0.0,0.0,0.0,0.0,0.0,0.0,0.0,0.0,0.0,0.0,0.0,0.0,0.0,0.0,0.0,0.0,-0.879,-0.8798,-0.8804,-0.8804,-0.8804,-0.8804,-0.8798,-1.0067,-1.2669,-1.2801,-1.2881,-1.2881,-1.2881,-1.2881,-1.2881,-1.2881,-1.2924,-1.2966,-1.3528,-1.4143,-1.4698,-1.4698,-1.4698,-1.4652,-1.4652,-1.4283,-1.3873,-1.4422,-1.4652,-1.4835,0.0,0.0,0.0,0.0,0.0,0.0,0.0,0.0,0.0,0.0,0.0,0.0,0.0,-1.9339,-1.9794,-1.9824,-1.9808,-1.968,-1.9312,-1.9115,-1.8797,-1.8272,-1.8203,-1.837,-1.8634,0.0,0.0,0.0,0.0,-1.9812,-1.983,-2.0282,-2.0582,-2.0782,-2.1305,-2.1247,-2.0784,-2.0794,0.0,0.0,0.0,0.0,0.0,0.0,0.0,0.0,0.0,0.0,0.0,-1.5478,-1.615,-1.6702,-1.5964,-1.534,-1.4805,-1.3815,0.0,0.0,0.0,0.0,0.0,-1.2913,-1.0882,0.0,0.0,0.0,0.0,0.0,0.0,0.0,0.0,0.0,0.0,0.0,0.0,0.0,0.0,0.0,0.0,0.0,0.0,0.0,0.0,0.0,0.0,0.0,0.0,-0.8824,-0.8818,-0.8778,-0.8804,-0.8804,-0.8775,-1.0117,-1.287,-1.2881,-1.2881,-1.2881,-1.2881,-1.2881,-1.2881,-1.2881,-1.2909,-1.2971,-1.396,-1.4956,-1.5844,-1.5844,-1.5872,-1.5835,-1.5424,-1.5141,-1.4949,-1.4744,-1.5209,-1.5784,0.0,0.0,0.0,0.0,0.0,0.0,0.0,0.0,0.0,0.0,0.0,0.0,0.0,0.0,-1.9784,-1.9804,-1.9816,-1.9781,-1.9788,-1.9811,-1.9826,-1.9788,-1.9813,-1.9812,-1.9812,0.0,0.0,0.0,0.0,0.0,0.0,-2.029,-2.0467,-2.0388,-2.0765,-2.0894,0.0,0.0,0.0,-1.9862,0.0,0.0,-1.9032,0.0,0.0,0.0,0.0,0.0,0.0,0.0,0.0,0.0,-1.701,0.0,0.0,0.0,0.0,0.0,-1.4671,0.0,0.0,0.0,0.0,0.0,0.0,0.0,0.0,0.0,0.0,0.0,0.0,0.0,0.0,0.0,0.0,0.0,0.0,0.0,0.0,0.0,0.0,0.0,0.0,0.0,0.0,0.0,0.0,0.0,-0.8738,-0.8811,-0.8811,-0.881,-0.9673,-1.1065,-1.289,-1.29,-1.2881,-1.2881,-1.2881,-1.2881,-1.2881,-1.2918,-1.2878,-1.2923,-1.3824,-1.506,-1.6515,-1.6515,-1.6497,-1.6423,-1.5862,-1.5512,-1.5282,-1.4931,-1.5143,-1.5573,0.0,0.0,0.0,0.0,0.0,0.0,0.0,0.0,0.0,0.0,0.0,0.0,0.0,0.0,0.0,-1.9922,-1.9865,-1.986,-1.9858,-1.9821,-1.9799,-1.9786,-1.9798,-1.9798,-1.985,0.0,0.0,0.0,0.0,0.0,0.0,0.0,-1.9798,-1.9798,-1.9786,-2.0177,-2.0813,0.0,-1.9787,-1.9926,0.0,-2.0906,-1.9773,0.0,0.0,0.0,-1.9937,-1.9039,0.0,-1.9144,0.0,0.0,0.0,0.0,0.0,0.0,0.0,0.0,0.0,0.0,0.0,0.0,0.0,0.0,0.0,0.0,0.0,0.0,0.0,0.0,0.0,0.0,0.0,0.0,0.0,0.0,0.0,0.0,0.0,0.0,0.0,0.0,0.0,0.0,0.0,0.0,-0.5329,-0.5761,-0.8564,-0.8791,-0.8824,-0.8806,-1.1464,-1.2903,-1.2908,-1.289,-1.2881,-1.2881,-1.2881,-1.2881,-1.292,-1.2879,-1.2857,-1.2827,-1.3081,-1.4422,-1.6421,-1.646,-1.6501,-1.6391,-1.5906,-1.5352,-1.4809,-1.4869,-1.4514,-1.4118,0.0,0.0,0.0,0.0,0.0,0.0,0.0,0.0,0.0,0.0,0.0,0.0,0.0,0.0,-2.1561,-2.2482,-2.1732,-2.1148,-2.1179,-2.0293,-1.9799,-1.9786,-1.9798,-2.008,-2.0751,0.0,0.0,0.0,0.0,0.0,0.0,0.0,0.0,0.0,-1.9775,-1.9926,-2.008,-1.9874,0.0,0.0,-2.0165,-2.0099,0.0,0.0,0.0,0.0,0.0,-2.3802,-2.3823,0.0,-2.3497,-2.2024,0.0,0.0,0.0,0.0,0.0,0.0,-1.389,0.0,0.0,0.0,0.0,0.0,0.0,0.0,0.0,0.0,0.0,0.0,0.0,0.0,0.0,0.0,0.0,0.0,0.0,0.0,0.0,0.0,0.0,0.0,0.0,0.0,0.0,0.0,-0.5621,-0.5837,-0.6681,-0.8055,-0.8778,-0.8806,-1.1464,-1.2903,-1.2908,-1.289,-1.2881,-1.2881,-1.2881,-1.2881,-1.292,-1.2879,-1.2208,-1.108,-1.2549,-1.3553,-1.4242,-1.586,-1.6059,-1.5364,-1.5611,-1.5361,-1.4881,-1.4888,-1.4787,-1.4621,0.0,0.0,0.0,0.0,0.0,0.0,0.0,0.0,0.0,0.0,0.0,0.0,0.0,0.0,0.0,-2.2518,-2.2049,-2.1462,-2.0946,-2.0231,-1.9962,-2.0347,-1.9965,-2.0284,0.0,0.0,0.0,0.0,0.0,0.0,0.0,0.0,0.0,0.0,0.0,0.0,0.0,0.0,0.0,0.0,-2.1407,0.0,0.0,-2.2213,-2.2505,0.0,0.0,0.0,-2.6739,-2.6731,-2.4857,0.0,0.0,0.0,0.0,0.0,0.0,0.0,0.0,0.0,0.0,0.0,0.0,0.0,-0.8219,-0.8627,0.0,0.0,0.0,0.0,0.0,0.0,0.0,0.0,0.0,0.0,0.0,0.0,0.0,0.0,0.0,0.0,0.0,-0.5878,-0.555,-0.5113,-0.521,-0.5647,-0.6475,-0.799,-0.881,-0.8806,-1.0344,-1.1743,-1.2908,-1.289,-1.2881,-1.2881,-1.2881,-1.2881,-1.2861,-1.2171,-1.1284,-1.0395,-1.2425,-1.3244,-1.3366,-1.5257,-1.5602,-1.4915,-1.5001,-1.4853,-1.4538,-1.4274,-1.4186,-1.4149,0.0,0.0,0.0,0.0,0.0,0.0,0.0,0.0,0.0,0.0,0.0,0.0,0.0,0.0,0.0,0.0,-2.1684,-2.1233,-2.0211,-1.9997,0.0,0.0,-2.0461,-2.0627,0.0,0.0,0.0,0.0,0.0,0.0,0.0,0.0,0.0,0.0,0.0,0.0,0.0,0.0,0.0,-2.3612,-2.3594,-2.3714,0.0,0.0,-2.3672,-2.3726,-2.3774,-2.5355,-2.7475,-2.758,-2.4999,0.0,0.0,0.0,0.0,0.0,-1.5874,0.0,0.0,0.0,0.0,0.0,0.0,0.0,-0.8263,-0.8694,-0.9559,0.0,0.0,0.0,0.0,0.0,0.0,0.0,0.0,0.0,0.0,0.0,0.0,0.0,0.0,0.0,-0.5437,-0.4842,-0.4519,-0.4519,-0.457,-0.5344,-0.7122,-0.8121,-0.8712,-0.8781,-0.8916,-1.0156,-1.2622,-1.283,-1.289,-1.2881,-1.2881,-1.2988,-1.3055,-1.1341,-1.0547,-1.0554,-1.24,-1.3264,-1.3464,-1.4675,-1.4993,-1.465,-1.4261,-1.4047,-1.3946,-1.3421,-1.3198,-1.3198,0.0,0.0,0.0,0.0,0.0,0.0,0.0,0.0,0.0,0.0,0.0,0.0,0.0,0.0,0.0,0.0,-2.315,-2.1842,-2.2101,-2.1153,0.0,-2.0871,-2.1532,-2.2074,0.0,0.0,0.0,0.0,0.0,0.0,0.0,0.0,0.0,0.0,0.0,0.0,0.0,0.0,0.0,-2.3583,-2.361,0.0,-2.5926,-2.4236,-2.3951,-2.4506,-2.4687,-2.5526,-2.666,-2.7364,-2.5681,-2.2962,0.0,0.0,0.0,-1.6981,0.0,0.0,0.0,0.0,0.0,0.0,0.0,0.0,-0.8911,-0.9376,-1.0305,0.0,0.0,0.0,0.0,0.0,0.0,0.0,0.0,0.0,0.0,0.0,0.0,0.0,0.0,0.0,-0.4857,-0.4584,-0.4477,-0.4477,-0.5007,-0.5492,-0.5878,-0.7176,-0.8168,-0.8798,-0.9555,-1.0343,-1.12,-1.2342,-1.29,-1.2881,-1.2881,-1.3415,-1.4301,-1.2991,-1.2018,-1.1347,-1.1772,-1.2936,-1.452,-1.3833,-1.3529,-1.3558,-1.3938,-1.3808,-1.3348,-1.3235,-1.3198,-1.3198,0.0,0.0,0.0,0.0,0.0,0.0,0.0,0.0,0.0,0.0,0.0,0.0,0.0,0.0,0.0,0.0,0.0,0.0,0.0,0.0,0.0,-2.122,-2.1738,-2.239,-2.3122,-2.2818,0.0,0.0,0.0,0.0,0.0,0.0,0.0,0.0,0.0,0.0,0.0,0.0,-2.4197,-2.5045,-2.4008,0.0,-2.6513,-2.4989,-2.4322,-2.4162,-2.4292,-2.4582,-2.5072,-2.5943,-2.5034,0.0,0.0,-2.0771,-1.9741,0.0,-1.6389,-1.5886,0.0,0.0,0.0,-1.1475,0.0,0.0,0.0,-0.9686,-1.0318,-1.1325,0.0,0.0,0.0,0.0,0.0,0.0,0.0,0.0,0.0,0.0,0.0,0.0,0.0,0.0,-0.3652,-0.334,-0.3688,-0.4421,-0.4831,-0.4973,-0.4973,-0.6122,-0.723,-0.8199,-0.9058,-0.99,-1.0813,-1.1715,-1.2628,-1.3508,-1.3714,-1.4105,-1.4693,-1.4013,-1.3207,-1.2402,-1.2457,-1.2947,-1.3646,-1.3312,-1.3215,-1.3224,-1.3526,-1.3483,-1.3198,-1.3198,-1.3198,-1.3198,-2.131,0.0,0.0,0.0,0.0,0.0,0.0,0.0,0.0,0.0,0.0,0.0,0.0,0.0,0.0,0.0,0.0,0.0,0.0,0.0,0.0,0.0,0.0,-2.2552,-2.3599,-2.3599,0.0,0.0,0.0,0.0,0.0,0.0,0.0,0.0,0.0,0.0,0.0,0.0,0.0,-2.6542,0.0,-2.5189,-2.6654,-2.6438,-2.5352,-2.3888,-2.3668,-2.3926,-2.4384,-2.4447,-2.3956,-2.3053,-2.1849,-2.1055,0.0,0.0,0.0,0.0,0.0,0.0,0.0,0.0,0.0,-1.0813,0.0,0.0,0.0,-1.0991,0.0,0.0,0.0,0.0,0.0,0.0,0.0,0.0,0.0,0.0,0.0,0.0,0.0,0.0,0.0,-0.1767,-0.251,-0.4363,-0.4498,-0.4477,-0.4477,-0.5233,-0.6166,-0.7331,-0.8416,-0.9651,-1.0956,-1.1621,-1.2725,-1.4219,-1.4551,-1.4762,-1.4869,-1.464,-1.4227,-1.364,-1.3546,-1.3177,-1.2743,-1.3127,-1.3241,-1.3198,-1.3198,-1.3198,-1.3198,-1.3198,-1.3198,-1.3198,-2.5961,-2.4426,0.0,0.0,0.0,0.0,0.0,0.0,0.0,0.0,0.0,0.0,0.0,0.0,0.0,0.0,0.0,0.0,-2.6673,0.0,0.0,0.0,0.0,0.0,-2.3611,-2.3611,-2.3538,0.0,0.0,0.0,0.0,0.0,0.0,0.0,-2.3594,0.0,0.0,0.0,-2.6474,0.0,-2.6452,-2.6493,0.0,-2.9534,-2.8233,-2.4914,-2.3924,-2.5107,-2.6731,0.0,-2.295,-2.2333,0.0,-2.0501,-1.957,-1.775,0.0,0.0,0.0,0.0,0.0,0.0,-1.2561,0.0,0.0,0.0,-1.0576,-1.0066,0.0,0.0,0.0,0.0,0.0,0.0,0.0,0.0,0.0,0.0,0.0,0.0,0.0,0.0,0.0,-0.0272,-0.1445,-0.4294,-0.4525,-0.4522,-0.4512,-0.4627,-0.5101,-0.6063,-0.8664,-1.0521,-1.1612,-1.2908,-1.3899,-1.4617,-1.4686,-1.4994,-1.5499,-1.4926,-1.4937,-1.5292,-1.4268,-1.3822,-1.3776,-1.3306,-1.3155,-1.3198,-1.3198,-1.3198,-1.3198,-1.3198,-1.3198,-1.3267,-2.6695,-2.6005,0.0,0.0,0.0,0.0,0.0,0.0,0.0,0.0,0.0,0.0,0.0,0.0,0.0,0.0,0.0,-2.8625,0.0,0.0,0.0,0.0,0.0,0.0,-2.36,-2.3598,-2.3595,0.0,-2.3595,0.0,0.0,0.0,0.0,0.0,-2.4547,0.0,-2.3004,0.0,-2.6695,0.0,0.0,0.0,0.0,-3.0052,-2.8307,-2.4431,-2.5515,-2.5633,-2.5062,0.0,-2.2949,0.0,0.0,0.0,0.0,0.0,0.0,0.0,0.0,0.0,0.0,0.0,0.0,0.0,-1.2169,0.0,-1.0712,0.0,0.0,0.0,0.0,0.0,0.0,0.0,-1.7947,0.0,0.0,0.0,0.0,0.0,0.0,0.0,0.0,0.0,0.0,0.0,-0.189,-0.2393,-0.3564,-0.4146,-0.5221,-0.6854,-0.8833,-1.068,-1.2308,-1.3321,-1.4272,-1.5231,-1.5531,-1.584,-1.6139,-1.6188,-1.5813,-1.5093,-1.4339,-1.3825,-1.3439,-1.2957,-1.2914,-1.3198,-1.3198,-1.3198,-1.3198,-1.3198,-1.3198,-1.3267,-2.6708,0.0,0.0,0.0,0.0,0.0,0.0,0.0,0.0,0.0,0.0,0.0,-3.364,-3.2348,0.0,0.0,-3.2073,-3.146,0.0,0.0,-2.6703,0.0,0.0,0.0,0.0,0.0,-2.3598,0.0,0.0,0.0,0.0,0.0,0.0,0.0,0.0,-2.4814,-2.3648,0.0,0.0,-2.6637,-2.6069,-2.5844,-2.6172,-2.9091,-2.7929,-2.4908,-2.6414,-2.5675,-2.3917,-2.3417,-2.2746,0.0,-2.0998,0.0,0.0,0.0,0.0,0.0,-1.5881,0.0,0.0,0.0,0.0,0.0,0.0,0.0,0.0,0.0,0.0,0.0,0.0,0.0,0.0,0.0,0.0,-1.8303,0.0,0.0,0.0,0.0,0.0,0.0,0.0,0.0,0.0,-0.0775,-0.061,-0.1055,-0.2111,-0.3984,-0.5783,-0.7441,-0.9482,-1.1323,-1.3042,-1.4007,-1.5028,-1.6058,-1.6591,-1.6828,-1.671,-1.7105,-1.6462,-1.5037,-1.451,-1.3978,-1.3334,-1.2866,-1.2908,-1.3198,-1.3198,-1.3198,-1.3198,-1.3198,-1.3301,-1.3459,-2.6691,-2.6686,0.0,0.0,0.0,0.0,0.0,0.0,0.0,0.0,0.0,0.0,0.0,0.0,0.0,0.0,0.0,-3.4235,-3.1539,0.0,-2.7554,0.0,0.0,-2.6245,0.0,0.0,0.0,0.0,0.0,0.0,0.0,0.0,0.0,0.0,0.0,-2.6622,-2.6573,-2.6656,-2.6701,-2.6518,-2.4499,-2.3721,-2.3988,0.0,-2.7627,-2.7282,-2.5958,0.0,0.0,-2.2734,-2.194,0.0,0.0,0.0,0.0,0.0,0.0,0.0,0.0,0.0,0.0,-1.643,0.0,0.0,0.0,0.0,-1.2376,0.0,0.0,0.0,0.0,0.0,0.0,0.0,0.0,0.0,0.0,0.0,0.0,0.0,0.0,0.0,0.0,0.0,0.0,-0.2242,-0.2154,-0.1554,-0.0166,-0.4187,-0.673,-0.7175,-1.072,-1.2929,-1.3648,-1.5428,-1.6646,-1.7271,-1.7773,-1.7773,-1.7271,-1.7312,-1.6682,-1.5655,-1.5116,-1.4563,-1.4011,-1.3423,-1.3198,-1.3198,-1.3198,-1.3198,-1.3198,-1.3198,-1.348,-1.3934,0.0,0.0,0.0,0.0,0.0,0.0,0.0,-2.8731,0.0,0.0,0.0,0.0,0.0,-3.5561,-3.566,0.0,0.0,-3.5141,-3.4206,-3.0784,0.0,0.0,0.0,-2.7005,0.0,0.0,0.0,0.0,0.0,0.0,0.0,0.0,0.0,0.0,0.0,-2.6052,0.0,0.0,0.0,0.0,0.0,-2.3268,-2.2862,0.0,0.0,-2.6108,-2.4776,-2.3872,0.0,-2.116,-2.0824,-2.1036,-2.0347,-1.9962,-1.9698,-1.9183,-1.8983,0.0,0.0,0.0,-1.7956,-1.7257,0.0,0.0,0.0,0.0,0.0,0.0,0.0,0.0,0.0,0.0,0.0,0.0,0.0,0.0,0.0,0.0,0.0,0.0,0.0,0.0,0.0,0.0,0.0,-0.4302,-0.3821,-0.3437,-0.2927,-0.4794,-0.6582,-0.8155,-1.0705,-1.2783,-1.4354,-1.5728,-1.6689,-1.7312,-1.7827,-1.7827,-1.7299,-1.6916,-1.6205,-1.5155,-1.4601,-1.4047,-1.3496,-1.3273,-1.3198,-1.3198,-1.3198,-1.3391,-1.3648,-1.3648,-1.3769,-1.4,-2.9602,0.0,0.0,0.0,0.0,0.0,0.0,0.0,0.0,0.0,-3.5716,0.0,-3.9502,0.0,-3.6175,0.0,-3.6014,-3.566,-3.4763,-3.2315,0.0,-3.1182,-2.9614,0.0,0.0,0.0,0.0,0.0,0.0,-2.4074,0.0,0.0,0.0,0.0,0.0,-2.4818,-2.4798,0.0,-2.4319,0.0,0.0,-2.3289,0.0,0.0,-2.3269,-2.4835,0.0,-2.3477,-2.2639,-2.1236,-2.0927,-2.1064,-2.062,-2.0471,-2.0406,-2.0054,-1.9817,-1.9528,-1.8967,-1.8898,0.0,-1.7637,-1.7306,0.0,-1.5869,0.0,0.0,0.0,0.0,0.0,0.0,0.0,0.0,0.0,0.0,0.0,0.0,-1.7126,0.0,0.0,0.0,0.0,0.0,0.0,-0.8479,-0.6577,-0.5837,-0.5324,0.0,0.0,-0.6999,-0.8592,-1.0889,-1.2982,-1.4982,-1.6323,-1.719,-1.7585,-1.8145,-1.7894,-1.6995,-1.6835,-1.5982,-1.4568,-1.4463,-1.3923,-1.3198,-1.3198,-1.3198,-1.3232,-1.3391,-1.3648,-1.3901,-1.3901,-1.4084,-1.4406,-3.0674,0.0,0.0,0.0,-2.69,0.0,0.0,0.0,-3.1807,0.0,-3.691,-4.079,-4.2045,-3.9205,-3.7196,-3.716,-3.7037,-3.5974,-3.3639,-3.3534,0.0,0.0,-3.1234,-2.9983,-2.7347,0.0,0.0,0.0,0.0,0.0,0.0,0.0,0.0,0.0,-2.3179,0.0,-2.3106,-2.3264,-2.3815,-2.4532,-2.3815,-2.358,-2.3508,-2.2965,-2.3115,-2.3721,-2.4167,-2.4057,-2.354,-2.2791,-2.2145,-2.1697,-2.1697,-2.1697,-2.1697,-2.1697,-2.128,-2.0651,-2.0083,-1.9489,-1.8763,-1.7629,0.0,0.0,0.0,0.0,-1.5454,0.0,0.0,0.0,0.0,0.0,0.0,0.0,0.0,0.0,0.0,0.0,0.0,0.0,0.0,0.0,0.0,-1.1316,-0.9913,-0.882,-0.7937,-0.7047,0.0,0.0,-0.8112,-0.8721,-1.1358,-1.3689,-1.554,-1.7205,-1.8066,-1.8066,-1.8535,-1.7946,-1.6434,-1.6928,-1.6021,-1.4073,-1.458,-1.4237,-1.3235,-1.3245,-1.3232,-1.3301,-1.3735,-1.3934,-1.3967,-1.3967,-1.447,-1.5195,-3.024,-3.0678,-3.097,0.0,-3.0049,-3.105,0.0,0.0,0.0,0.0,-4.2503,-4.2762,-4.0871,-4.0541,-4.013,-3.9371,-3.7769,0.0,0.0,0.0,0.0,-3.2335,-3.1582,-3.0369,-2.8561,-2.8163,-2.7432,-2.6315,0.0,0.0,-2.4233,0.0,0.0,0.0,0.0,0.0,-2.1377,-2.1911,-2.254,-2.3178,-2.3017,-2.2919,0.0,0.0,-2.3201,-2.2908,-2.2569,-2.2668,-2.2833,-2.2136,-2.1835,-2.1697,-2.1697,-2.1697,-2.1697,-2.1697,-2.1266,-2.0789,-2.0598,-2.0073,-1.9253,-1.8222,-1.792,-1.7626,0.0,0.0,0.0,0.0,0.0,0.0,0.0,0.0,0.0,0.0,0.0,0.0,0.0,0.0,0.0,-1.8458,0.0,0.0,-1.4152,-1.2905,-1.1082,-0.8322,-0.8342,-0.8315,-0.8098,0.0,0.0,-1.0741,-1.2767,-1.4612,-1.6146,-1.7063,-1.7504,-1.7504,-1.7177,-1.6844,-1.6366,-1.5246,-1.4704,-1.4571,-1.3855,-1.3667,-1.3846,-1.3749,-1.3702,-1.3769,-1.4181,-1.4533,-1.4783,-1.4783,-1.5134,-1.5639,-3.0988,0.0,0.0,-3.2897,0.0,0.0,-3.4018,0.0,0.0,-4.382,-4.344,0.0,-4.0303,-4.0592,-4.0717,-4.0137,-3.8095,0.0,-3.6488,0.0,0.0,-3.1641,-3.1335,-3.0345,-2.8518,-2.8179,0.0,-2.6691,0.0,0.0,-2.4437,0.0,0.0,0.0,0.0,-2.1111,0.0,-2.1053,-2.165,-2.2278,-2.2562,0.0,0.0,-2.3063,-2.2799,-2.2192,-2.1859,-2.2134,-2.2615,-2.1945,-2.1713,-2.1756,-2.2028,-2.2128,-2.2128,-2.2128,-2.1693,-2.1147,-2.0827,-2.0226,-1.9438,-1.8412,-1.8126,-1.7827,-1.6752,-1.6522,-1.6423,0.0,0.0,0.0,0.0,0.0,0.0,0.0,0.0,0.0,0.0,0.0,0.0,0.0,-1.8644,0.0,-1.6811,-1.45,-1.2218,-1.0249,-0.9267,-0.8826,0.0,0.0,0.0,-1.1731,-1.3421,-1.4816,-1.5924,-1.6595,-1.6946,-1.6912,-1.6562,-1.599,-1.5229,-1.4574,-1.4136,-1.399,-1.3626,-1.3591,-1.373,-1.3846,-1.3901,-1.3967,-1.4533,-1.5043,-1.5418,-1.5418,-1.558,-1.5799,-3.2051,0.0,0.0,0.0,0.0,0.0,0.0,-3.488,0.0,-4.3095,0.0,-3.9649,-4.0054,-4.0098,-4.0077,-4.0087,0.0,-3.702,-3.596,-3.5514,-3.3804,-3.0395,-3.0615,-2.985,-2.7823,-2.7789,-2.7452,0.0,0.0,0.0,0.0,0.0,0.0,0.0,0.0,0.0,0.0,-2.0593,-2.1096,-2.1739,-2.2323,-2.2607,-2.2709,-2.2619,-2.2203,-2.168,-2.1605,-2.1994,-2.2499,-2.1889,-2.1695,-2.1799,-2.2368,-2.2547,-2.2547,-2.2547,-2.2083,-2.1452,-2.0852,-2.022,-1.9452,-1.8467,-1.8145,-1.7827,-1.6837,-1.6595,-1.6595,-1.6595,-1.668,-1.671,0.0,0.0,0.0,0.0,0.0,0.0,0.0,0.0,0.0,0.0,0.0,0.0,0.0,-1.6322,-1.386,-1.3387,-1.0884,-0.917,0.0,0.0,0.0,-1.2022,-1.3791,-1.5052,-1.5676,0.0,-1.649,-1.6392,-1.6269,-1.5386,-1.3935,-1.4422,-1.4027,-1.3032,-1.3732,-1.376,-1.3367,-1.3808,-1.4052,-1.4214,-1.4907,-1.5448,-1.5799,-1.5799,-1.5799,-1.5799,-3.1556,0.0,0.0,0.0,0.0,-4.3143,-4.1603,-4.1202,-4.061,-3.9242,-3.7518,-3.7331,-3.9834,-4.0104,-4.0104,-4.0084,-3.9785,0.0,0.0,0.0,0.0,-3.1072,-2.9559,-2.8443,-2.7806,-2.7789,-2.7452,0.0,0.0,0.0,0.0,0.0,0.0,0.0,0.0,0.0,-2.0326,-2.0593,0.0,-2.171,-2.1814,-2.2203,-2.2664,-2.2084,-2.1799,-2.162,-2.1081,-2.1306,-2.1859,-2.1739,-2.1695,-2.1724,-2.1829,-2.1874,-2.1874,-2.1874,-2.1391,-2.0837,-2.0729,-2.0214,-1.9553,-1.8921,-1.8419,-1.7947,-1.7312,-1.7146,-1.7146,-1.7146,-1.7504,-1.7827,-1.7827,0.0,0.0,0.0,0.0,0.0,0.0,0.0,0.0,0.0,0.0,-2.0419,0.0,0.0,-1.7825,0.0,0.0,0.0,0.0,0.0,0.0,0.0,-1.5311,0.0,0.0,0.0,-1.6502,-1.6454,-1.5464,-1.4822,-1.4507,-1.4329,-1.3737,-1.3051,-1.372,-1.3992,-1.3981,-1.4252,-1.4814,-1.5477,-1.561,-1.5741,-1.5799,-1.5799,-1.5799,-1.5799,0.0,0.0,0.0,0.0,0.0,0.0,0.0,-4.3286,0.0,-3.9409,-3.8386,-3.8472,-3.9963,-4.0084,-4.0067,-4.0092,-3.8657,-3.6808,-3.4573,-3.3772,-3.2278,-2.9759,-2.8738,-2.7891,-2.7249,-2.7232,-2.7063,-2.6691,0.0,0.0,0.0,0.0,0.0,0.0,0.0,-2.1228,0.0,0.0,0.0,-2.1806,-2.1348,-2.1506,-2.1911,-2.1368,-2.0961,-2.0602,-2.0303,-2.0378,-2.0647,-2.0647,-2.0647,-2.0707,-2.1081,-2.1186,-2.1186,-2.1186,-2.0961,-2.0632,-2.0288,-1.9944,-1.9566,-1.9043,-1.8688,-1.838,-1.7827,-1.7706,-1.7706,-1.7706,-1.7907,-1.8106,-1.8106,-1.8106,0.0,0.0,0.0,0.0,0.0,0.0,0.0,0.0,0.0,0.0,0.0,0.0,0.0,0.0,0.0,0.0,0.0,0.0,0.0,0.0,0.0,0.0,0.0,0.0,0.0,-1.5556,-1.4987,-1.4388,-1.3721,-1.3114,-1.319,-1.387,-1.3591,-1.3729,-1.4145,-1.4594,-1.5195,-1.5799,-1.5799,-1.5799,-1.5799,-1.5799,-1.5799,-1.5799,0.0,-3.6773,0.0,0.0,-3.8153,0.0,-4.2853,-4.3483,-4.2757,-4.0739,-4.0215,-3.9976,-3.9979,-3.9363,-3.8973,-3.894,-3.6614,-3.4024,-3.1362,-3.1681,-3.0762,-2.7997,-2.8032,-2.7726,-2.6858,-2.6753,-2.6667,0.0,0.0,0.0,0.0,0.0,0.0,0.0,0.0,0.0,0.0,0.0,-2.1185,-2.1945,-2.1239,-2.1167,-2.1393,-2.0941,-2.0358,-1.9854,-1.9854,-1.9782,-1.969,-1.969,-1.969,-1.9779,-2.0318,-2.0498,-2.0498,-2.0498,-2.0498,-2.0378,-1.9824,-1.969,-1.9603,-1.9169,-1.8968,-1.8779,-1.838,-1.8263,-1.8263,-1.8263,-1.838,-1.8419,-1.8302,-1.838,0.0,0.0,0.0,0.0,0.0,0.0,0.0,0.0,0.0,0.0,-2.1102,0.0,0.0,0.0,0.0,0.0,-1.7277,0.0,0.0,0.0,0.0,-1.5722,-1.5711,0.0,-1.3398,-1.4322,-1.4322,-1.3826,-1.2887,-1.2191,-1.2796,-1.4332,-1.3679,-1.3686,-1.423,-1.4755,-1.5315,-1.5799,-1.5799,-1.5799,-1.5799,-1.5799,-1.5799,-1.5799,0.0,0.0,0.0,0.0,0.0,0.0,-4.3432,-4.27,-4.1974,-4.1704,-4.0479,-3.9631,-3.9656,-3.6974,-3.5215,-3.5205,-3.4202,-3.2904,-3.1307,-2.8759,-2.719,-2.6856,-2.7555,-2.7716,-2.7241,-2.6895,-2.6545,0.0,0.0,-2.3796,0.0,0.0,0.0,0.0,0.0,0.0,0.0,-2.1778,-2.1915,-2.1979,-2.1911,-2.1911,-2.1866,-2.1211,-2.0679,-2.0246,-2.0246,-2.0,-1.969,-1.969,-1.969,-1.969,-1.9765,-1.9779,-1.9779,-1.9779,-1.9779,-1.9765,-1.9705,-1.969,-1.969,-1.9639,-1.9244,-1.8893,-1.8855,-1.8817,-1.8817,-1.8817,-1.9207,-1.9406,-1.8893,-1.9207,-1.9016,0.0,0.0,0.0,0.0,0.0,-1.8966,-2.0169,0.0,0.0,0.0,-2.096,0.0,0.0,-2.1858,0.0,0.0,0.0,0.0,-1.6369,0.0,-1.3222,-1.3256,-1.3024,-1.2962,-1.3085,-1.3085,-1.3027,-1.2906,-1.2832,-1.2962,-1.3376,-1.4311,-1.4607,-1.447,-1.4525,-1.5051,-1.5799,-1.5799,-1.5799,-1.5799,-1.5799,-1.5799,-1.5799,0.0,0.0,0.0,0.0,0.0,0.0,0.0,-4.1882,-4.1522,-4.1833,-4.0449,-3.9211,-3.84,-3.7171,-3.5588,-3.3563,-3.3539,-3.2966,-3.1319,-2.9247,-2.7866,-2.7434,-2.7739,-2.7818,-2.7648,-2.7025,-2.6542,0.0,0.0,0.0,0.0,0.0,0.0,0.0,0.0,-2.2032,-2.202,-2.1833,-2.1902,-2.212,-2.1617,-2.1537,-2.1696,-2.1199,-2.0894,-2.0715,-2.0715,-2.0632,-2.0481,-2.0481,-2.0139,-1.969,-1.969,-1.969,-1.969,-1.969,-1.969,-1.969,-1.969,-1.969,-1.9585,-1.9196,-1.8936,-1.8691,-1.8258,-1.817,-1.8288,-1.8706,-1.9263,-1.9639,-1.9406,-1.9566,-1.9477,0.0,0.0,0.0,0.0,0.0,0.0,0.0,0.0,-2.0299,0.0,-2.0847,-2.0936,-2.1228,0.0,0.0,0.0,0.0,0.0,-1.8405,0.0,-1.2904,-1.2909,-1.2887,-1.2899,-1.2881,-1.2898,-1.2872,-1.294,-1.4382,-1.4377,-1.3216,-1.3684,-1.4409,-1.5274,-1.5285,-1.5506,-1.5799,-1.5799,-1.5799,-1.5799,-1.5799,-1.5799,-1.5799,-4.0244,0.0,-4.1636,0.0,-4.1971,-4.1368,-4.1412,-4.0569,-4.018,-4.085,-3.9659,-3.8508,-3.79,-3.7202,-3.5759,-3.3277,-3.3387,-3.2838,-3.1133,-2.9519,-2.8275,-2.7555,-2.7366,0.0,-2.7189,-2.6526,-2.5976,-2.5548,-2.4202,0.0,0.0,0.0,0.0,0.0,-2.231,-2.231,-2.2282,-2.1957,-2.2003,-2.2254,-2.1615,-2.1554,-2.1764,-2.1477,-2.1291,-2.1181,-2.1181,-2.1086,-2.0991,-2.0991,-2.0599,-2.005,-1.9909,-1.9782,-1.969,-1.969,-1.969,-1.969,-1.969,-1.954,-1.9286,-1.8822,-1.8553,-1.8298,-1.7802,-1.7697,-1.7817,-1.8328,-1.8942,-1.939,-1.939,-1.9555,-1.963,-1.9435,0.0,0.0,0.0,0.0,0.0,0.0,-1.9682,-2.0061,-2.0613,-2.0542,-2.0542,0.0,0.0,0.0,0.0,0.0,0.0,0.0,0.0,0.0,0.0,-1.2887,-1.2908,-1.2907,-1.2912,-1.3284,-1.4011,-1.5065,-1.4694,-1.3226,-1.3749,-1.4668,-1.58,-1.5801,-1.5811,-1.5792,-1.5792,-1.5803,-1.5814,-1.5805,-1.5818,-1.5829,-3.9829,-3.9918,-4.0175,-4.1001,-4.1548,-4.153,-4.0463,-3.8515,-3.7528,-3.8585,-3.7783,-3.7537,-3.8579,-3.6494,-3.4867,-3.4424,-3.3539,-3.233,-3.0707,-2.878,-2.7379,0.0,0.0,-2.5732,-2.5525,-2.5135,-2.4641,-2.4041,0.0,0.0,-2.2327,0.0,-2.231,-2.231,-2.231,-2.231,-2.231,-2.2282,-2.2282,-2.231,-2.2282,-2.2282,-2.2282,-2.2282,-2.2003,-2.1582,-2.1582,-2.1337,-2.0991,-2.0991,-2.0991,-2.0894,-2.0449,-2.0035,-1.969,-1.969,-1.969,-1.969,-1.969,-1.9211,-1.8717,-1.8702,-1.8208,-1.7697,-1.7697,-1.7697,-1.7697,-1.7697,-1.8268,-1.8717,-1.8717,-1.9241,-1.9465,-1.8822,0.0,0.0,0.0,0.0,0.0,-1.9279,-1.8763,-1.9028,-2.0814,-1.9922,0.0,0.0,0.0,0.0,0.0,0.0,0.0,-1.9735,-1.761,0.0,-1.2925,-1.2923,-1.2923,-1.2889,-1.2923,-1.4135,-1.638,-1.42,-1.322,-1.3317,-1.5017,-1.5785,-1.58,-1.5801,-1.579,-1.581,-1.581,-1.5816,-1.5794,-1.5783,-1.5805,-1.5863,-4.067,-4.0726,-4.0799,-4.1075,-4.0322,-3.9588,-3.9263,-3.8028,-3.6964,-3.6575,-3.552,-3.4989,-3.5308,-3.569,-3.5358,0.0,-3.2693,-3.0957,0.0,-2.7575,-2.668,-2.6069,-2.5901,-2.5954,-2.6236,-2.56,-2.4906,-2.4267,0.0,0.0,0.0,-2.231,-2.231,-2.231,-2.231,-2.231,-2.231,-2.231,-2.231,-2.231,-2.231,-2.231,-2.231,-2.231,-2.2209,-2.2077,-2.2077,-2.2003,-2.1886,-2.1886,-2.1493,-2.0959,-2.0829,-2.0465,-2.007,-1.9782,-1.969,-1.9585,-1.9136,-1.8867,-1.8493,-1.7548,-1.7174,-1.6906,-1.6488,-1.6742,-1.7025,-1.7025,-1.7548,-1.8179,-1.8627,-1.8867,-1.9091,-1.9331,-1.9375,0.0,0.0,0.0,0.0,-1.8595,-1.8413,-1.8636,-1.9669,-1.9611,0.0,0.0,0.0,0.0,0.0,0.0,0.0,0.0,-1.7639,0.0,-1.5374,-1.5336,-1.4525,-1.2925,-1.4575,-1.4979,-1.4216,-1.352,-1.3846,-1.4986,-1.556,-1.5787,-1.5801,-1.5803,-1.579,-1.5606,-1.3789,-1.308,-1.3184,-1.4107,-1.5027,-1.5879,-4.0378,-4.0357,-4.0234,-3.9822,-3.8909,-3.8157,-3.7845,-3.6956,-3.6111,-3.5577,-3.4165,-3.3122,-3.2912,-3.3831,0.0,-3.2705,-3.1691,-3.0192,-2.8055,-2.6891,-2.6109,-2.5687,-2.5366,-2.5301,-2.5512,-2.502,0.0,-2.3956,-2.3323,-2.2755,-2.231,-2.231,-2.231,-2.231,-2.231,-2.231,-2.231,-2.231,-2.231,-2.231,-2.231,-2.231,-2.231,-2.231,-2.231,-2.231,-2.231,-2.231,-2.231,-2.231,-2.1945,-2.1462,-2.1275,-2.0735,-2.0075,-1.9476,-1.9495,-1.954,-1.8882,-1.8523,-1.81,-1.7279,-1.6712,-1.6263,-1.5903,-1.6084,-1.6353,-1.6353,-1.6876,-1.7443,-1.7861,-1.8164,-1.8463,-1.8882,-1.8747,-1.845,-1.8052,0.0,0.0,0.0,0.0,0.0,0.0,-1.9577,-1.969,0.0,0.0,0.0,0.0,0.0,0.0,-1.9706,-1.8397,0.0,-1.653,-1.6486,-1.5727,-1.4271,-1.5758,-1.5329,-1.3216,-1.3899,-1.4764,-1.5785,-1.5787,-1.5787,-1.5812,-1.5793,-1.5221,-1.4124,-1.2448,-1.2419,-1.3463,-1.481,-1.5819,-1.6605,-3.9114,-3.8995,-3.8674,0.0,-3.7379,0.0,-3.6321,-3.5477,-3.5037,-3.534,-3.3505,-3.1986,-3.1415,-3.1274,-3.0991,-3.0427,0.0,0.0,0.0,-2.6657,-2.5647,-2.5328,-2.4593,-2.4036,-2.3735,-2.3735,-2.3566,-2.3189,-2.2855,-2.2563,-2.231,-2.231,-2.231,-2.231,-2.231,-2.231,-2.231,-2.231,-2.231,-2.231,-2.231,-2.231,-2.231,-2.231,-2.231,-2.231,-2.231,-2.231,-2.231,-2.2243,-2.2198,-2.2096,-2.1652,-2.0768,-1.9734,-1.8976,-1.9171,-1.9465,-1.8762,-1.8149,-1.7667,-1.7578,-1.6667,-1.5799,-1.5799,-1.5799,-1.5799,-1.5799,-1.6263,-1.6652,-1.6697,-1.7219,-1.7637,-1.7682,-1.7174,-1.6771,-1.6802,0.0,0.0,0.0,0.0,0.0,0.0,-1.969,-1.969,0.0,0.0,0.0,0.0,0.0,-1.9685,-1.9715,-1.9706,-1.8731,-1.6744,-1.6731,-1.6667,-1.6525,-1.6319,-1.5254,-1.3443,-1.5061,-1.5815,-1.5786,-1.5801,-1.5799,-1.5797,-1.579,-1.4232,-1.1794,-1.1788,-1.3367,-1.5774,-1.7031,-1.7521,-1.7586,0.0,0.0,-3.7899,-3.705,-3.6159,-3.555,-3.5349,-3.4614,-3.4119,-3.4174,-3.3028,-3.1832,-3.0881,-3.0045,-2.9186,-2.8252,-2.8148,-2.767,-2.649,-2.5823,-2.5173,-2.4502,-2.43,-2.417,-2.4094,-2.4074,-2.3795,-2.3189,-2.2855,-2.2563,-2.231,-2.231,-2.231,-2.231,-2.231,-2.231,-2.231,-2.231,-2.231,-2.231,-2.231,-2.231,-2.231,-2.231,-2.231,-2.231,-2.231,-2.231,-2.2226,-2.1651,-2.1206,-2.092,-2.0788,-1.9769,-1.8718,-1.9119,-1.9079,-1.8687,-1.7488,-1.7428,-1.749,-1.6488,-1.6023,-1.5799,-1.5799,-1.5799,-1.5799,-1.5799,-1.5918,-1.6144,-1.6622,-1.6831,-1.71,-1.7608,-1.7563,-1.7539,-1.7807,-1.7713,0.0,0.0,-1.8834,-1.906,-1.9651,-1.969,-1.969,0.0,0.0,0.0,0.0,-1.969,-1.972,-1.9707,-1.9678,-1.9453,-1.8932,-1.8934,-1.8121,-1.6477,-1.4807,-1.4411,-1.5202,-1.5626,-1.5817,-1.5786,-1.58,-1.5799,-1.5811,-1.5796,-1.4225,-1.1803,-1.18,-1.2697,-1.4005,-1.4314,-1.48,-1.5401,-3.8019,-3.8007,-3.7828,-3.687,-3.5752,-3.4862,-3.4523,-3.377,-3.3256,-3.3256,-3.2093,-3.1078,-3.049,-2.9253,-2.821,-2.762,-2.7574,-2.7031,-2.5709,-2.5493,-2.5054,-2.4245,-2.419,-2.419,-2.419,-2.419,-2.3955,-2.3414,-2.3093,-2.2789,-2.2473,-2.2377,-2.231,-2.231,-2.231,-2.231,-2.231,-2.231,-2.231,-2.231,-2.231,-2.231,-2.231,-2.231,-2.231,-2.231,-2.231,-2.231,-2.2192,-2.1448,-2.1009,-2.0761,-2.0383,-1.9272,-1.8147,-1.8586,-1.8468,-1.8029,-1.698,-1.698,-1.6995,-1.6053,-1.5799,-1.5799,-1.5799,-1.5799,-1.5799,-1.5799,-1.5799,-1.5903,-1.6234,-1.6293,-1.6413,-1.6772,-1.704,-1.7297,-1.7486,-1.7904,0.0,-1.8913,-1.9095,-1.9286,-1.9645,-1.969,-1.969,-1.969,-1.969,0.0,-1.9965,-1.9965,-1.9874,-1.9726,-1.9715,-1.9716,-1.9716,-1.9715,-1.8539,-1.6181,-1.4951,-1.4888,-1.5802,-1.5786,-1.5802,-1.5799,-1.5799,-1.5796,-1.5786,-1.5792,-1.4499,-1.253,-1.2525,-1.2893,-1.3437,-1.3787,-1.4043,-1.4381,-3.8381,-3.8173,-3.7731,-3.6649,-3.5621,-3.4713,-3.396,-3.3188,-3.2647,-3.2614,-3.1201,-3.021,-3.021,-2.876,-2.775,-2.7622,-2.7512,-2.6851,-2.5495,-2.5293,-2.4905,-2.4226,-2.419,-2.419,-2.419,-2.419,-2.4054,-2.3692,-2.3369,-2.3021,-2.2695,-2.2426,-2.231,-2.231,-2.231,-2.231,-2.231,-2.231,-2.231,-2.231,-2.231,-2.231,-2.231,-2.231,-2.231,-2.2293,-2.2175,-2.2141,-2.2006,-2.1126,-2.0865,-2.072,-2.0061,-1.8899,-1.7802,-1.7888,-1.7706,-1.7359,-1.6712,-1.6562,-1.6428,-1.5933,-1.5799,-1.5799,-1.5799,-1.5799,-1.5799,-1.5799,-1.5799,-1.5799,-1.5799,-1.5799,-1.5829,-1.5933,-1.6353,-1.6786,-1.698,0.0,-1.8747,-1.8837,-1.9346,-1.969,-1.969,-1.969,-1.969,-1.969,-1.969,-1.9874,-2.028,-2.0172,-2.0005,-1.9738,-1.9728,-1.9687,-1.9702,-1.9316,-1.7998,-1.5806,-1.5795,-1.5804,-1.5786,-1.5801,-1.5799,-1.5799,-1.5809,-1.5801,-1.581,-1.6015,-1.5023,-1.3399,-1.3396,-1.3407,-1.3477,-1.4093,-1.4194,-1.4124,-3.6176,-3.6351,-3.6367,-3.5494,-3.4999,-3.4614,-3.4189,-3.3459,-3.2863,-3.2621,-3.1201,-3.021,-3.021,-2.876,-2.753,-2.6851,-2.6153,-2.5678,-2.5421,-2.4759,-2.4318,-2.4208,-2.419,-2.419,-2.419,-2.419,-2.4054,-2.3692,-2.3369,-2.3021,-2.2695,-2.2426,-2.231,-2.231,-2.231,-2.231,-2.231,-2.231,-2.231,-2.231,-2.231,-2.231,-2.231,-2.231,-2.231,-2.2226,-2.1583,-2.1363,-2.1143,-1.9722,-1.9249,-1.9232,-1.9113,-1.83,-1.7453,-1.7797,-1.7231,-1.6427,-1.605,-1.5948,-1.5933,-1.5829,-1.5799,-1.5799,-1.5799,-1.5799,-1.5799,-1.5799,-1.5799,-1.5799,-1.5799,-1.5799,-1.5978,-1.6473,-1.6652,-1.71,-1.8238,0.0,-1.8912,-1.9465,-1.963,-1.969,-1.969,-1.969,-1.969,-1.969,-1.969,-1.9874,-2.028,-1.9721,-1.951,-1.9862,-1.9767,-1.9714,-1.971,-1.7495,-1.6206,-1.5804,-1.5802,-1.5816,-1.5801,-1.5785,-1.5799,-1.5812,-1.5806,-1.5809,-1.588,-1.7026,-1.5871,-1.341,-1.3385,-1.3395,-1.3405,-1.3522,-1.3921,-1.441,-3.6219,-3.6227,-3.6172,-3.581,-3.4794,-3.3954,-3.3789,-3.2702,-3.1815,-3.1707,-3.066,-2.9706,-2.9114,-2.8022,-2.6944,-2.6027,-2.5217,-2.474,-2.474,-2.441,-2.419,-2.419,-2.419,-2.419,-2.419,-2.419,-2.4113,-2.3976,-2.3631,-2.33,-2.2972,-2.2686,-2.247,-2.231,-2.231,-2.231,-2.231,-2.231,-2.231,-2.231,-2.231,-2.231,-2.226,-2.1854,-2.1701,-2.16,-2.0839,-2.0551,-2.0382,-1.9266,-1.8894,-1.8826,-1.8437,-1.7721,-1.7066,-1.7235,-1.6698,-1.6011,-1.5856,-1.5799,-1.5799,-1.5799,-1.5799,-1.5799,-1.5799,-1.5799,-1.5799,-1.5799,-1.5799,-1.5799,-1.5799,-1.5799,-1.5994,-1.6607,-1.701,0.0,0.0,-1.9016,-1.9346,-1.9645,-1.969,-1.969,-1.969,-1.9361,-1.9151,-1.9151,-1.8837,-1.8815,-1.9245,-1.9139,-1.9256,-1.9666,-1.9672,-1.9027,-1.762,-1.6408,-1.5801,-1.5785,-1.5799,-1.5799,-1.5799,-1.5799,-1.5796,-1.5801,-1.5806,-1.5303,-1.4679,-1.6891,-1.6055,-1.3404,-1.3396,-1.3413,-1.3462,-1.3849,-1.4208,-1.4474,-3.6084,-3.5795,-3.557,-3.578,-3.4426,-3.326,-3.3204,-3.1938,-3.09,-3.0621,-2.9903,-2.9004,-2.7942,-2.7084,-2.6284,-2.5478,-2.4649,-2.419,-2.419,-2.419,-2.419,-2.419,-2.419,-2.419,-2.419,-2.419,-2.419,-2.419,-2.3858,-2.3566,-2.3323,-2.3032,-2.2712,-2.2371,-2.2371,-2.2377,-2.231,-2.231,-2.231,-2.2293,-2.2124,-2.204,-2.1972,-2.1211,-2.0906,-2.0822,-2.0044,-1.9731,-1.9613,-1.8894,-1.864,-1.8555,-1.798,-1.7448,-1.6993,-1.6841,-1.6328,-1.5799,-1.5799,-1.5799,-1.5799,-1.5799,-1.5799,-1.5799,-1.5799,-1.5799,-1.5799,-1.5799,-1.5799,-1.5844,-1.5964,-1.5994,-1.6263,-1.704,0.0,0.0,0.0,-1.9375,-1.969,-1.969,-1.969,-1.9615,-1.9435,-1.8986,-1.8642,-1.8493,-1.7981,-1.794,-1.8483,-1.8607,-1.8755,-1.897,-1.9362,-1.8334,-1.583,-1.6113,-1.6108,-1.5791,-1.5811,-1.5803,-1.5818,-1.5807,-1.5786,-1.5833,-1.6133,-1.5567,-1.4601,-1.6881,-1.6603,-1.4687,-1.3948,-1.366,-1.3705,-1.4298,-1.4498,-1.45,-3.4218,-3.3724,-3.3417,-3.4205,-3.3576,-3.2842,-3.2591,-3.1832,-3.0893,-2.9829,-2.9,-2.8122,-2.7103,-2.6284,-2.569,-2.5423,-2.4649,-2.419,-2.419,-2.419,-2.419,-2.419,-2.419,-2.419,-2.419,-2.419,-2.419,-2.419,-2.3858,-2.3692,-2.3671,-2.3323,-2.2996,-2.2669,-2.2669,-2.2537,-2.231,-2.231,-2.231,-2.2243,-2.1549,-2.1288,-2.1177,-2.0399,-2.0086,-1.9985,-1.9249,-1.8978,-1.886,-1.8132,-1.7896,-1.7879,-1.7828,-1.7766,-1.7612,-1.6993,-1.6328,-1.5799,-1.5799,-1.5799,-1.5799,-1.5799,-1.5799,-1.5799,-1.5799,-1.5799,-1.5799,-1.5799,-1.5799,-1.5978,-1.6532,-1.6637,-1.7055,-1.8343,0.0,0.0,-1.9525,-1.966,-1.969,-1.969,-1.969,-1.937,-1.8584,-1.8638,-1.8448,-1.7817,-1.7712,-1.8036,-1.8837,-1.8231,-1.7765,-1.7477,-1.8493,-1.8006,-1.583,-1.7022,-1.7039,-1.5796,-1.5785,-1.5801,-1.5801,-1.5806,-1.5802,-1.5853,-1.7109,-1.7584,-1.7482,-1.7696,-1.8217,-1.8556,-1.5579,-1.442,-1.4423,-1.4472,-1.4495,-1.4496,-3.3333,-3.3122,-3.3006,-3.3333,-3.2718,-3.2116,-3.2031,-3.0829,-2.9768,-2.9344,-2.8599,-2.7693,-2.6639,-2.6265,-2.5793,-2.508,-2.4666,-2.4448,-2.4448,-2.4284,-2.419,-2.419,-2.419,-2.419,-2.419,-2.419,-2.419,-2.419,-2.4074,-2.3896,-2.3692,-2.3566,-2.3346,-2.3021,-2.3021,-2.2579,-2.1867,-2.1867,-2.1464,-2.0846,-2.0585,-2.0467,-2.0382,-1.9621,-1.9333,-1.9232,-1.8488,-1.8217,-1.8183,-1.7896,-1.7507,-1.7163,-1.7399,-1.703,-1.6459,-1.6242,-1.6011,-1.5709,-1.5304,-1.5484,-1.5799,-1.5799,-1.5799,-1.5799,-1.5799,-1.5799,-1.5799,-1.5799,-1.5799,-1.5964,-1.6592,-1.6712,-1.7145,-1.8493,0.0,-1.8927,-1.96,-1.969,-1.969,-1.969,-1.969,-1.957,-1.9235,-1.8504,-1.8067,-1.8004,-1.7273,-1.706,-1.7572,-1.7526,-1.7428,-1.7296,-1.7933,-1.765,-1.6427,-1.7339,-1.7557,-1.7028,-1.7039,-1.7027,-1.7043,-1.7029,-1.6594,-1.5878,-1.7224,-1.7796,-1.7808,-1.7809,-1.8378,-1.898,-1.577,-1.4496,-1.4724,-1.6753,-1.749,-1.7181,-3.2429,-3.2295,-3.2199,-3.2487,-3.1602,-3.0871,-3.0871,-2.964,-2.8621,-2.8352,-2.7832,-2.7067,-2.6015,-2.5888,-2.5602,-2.4856,-2.467,-2.461,-2.461,-2.4349,-2.4192,-2.4209,-2.419,-2.4209,-2.419,-2.419,-2.4043,-2.3694,-2.3694,-2.3635,-2.3474,-2.322,-2.3058,-2.2972,-2.2723,-2.2134,-2.1342,-2.1246,-2.0849,-2.0223,-1.9806,-1.9721,-1.9692,-1.8866,-1.8555,-1.8488,-1.798,-1.7659,-1.7456,-1.7456,-1.6948,-1.6382,-1.6586,-1.6021,-1.5278,-1.5301,-1.5387,-1.5349,-1.4663,-1.4989,-1.5499,-1.5499,-1.5499,-1.5544,-1.5754,-1.5799,-1.5799,-1.5799,-1.5799,-1.6039,-1.6861,-1.701,-1.7443,-1.8807,-1.9016,-1.9166,-1.963,-1.969,-1.969,-1.969,-1.969,-1.9585,-1.931,-1.8504,-1.7997,-1.7899,-1.7093,-1.6694,-1.6942,-1.7272,-1.7455,-1.7455,-1.7681,-1.7574,-1.7113,-1.7568,-1.7806,-1.7783,-1.7781,-1.779,-1.779,-1.7781,-1.7289,-1.6464,-1.7389,-1.7794,-1.7835,-1.8137,-1.8681,-1.9091,-1.6871,-1.6004,-1.6269,-1.8495,-1.9313,-1.9005,-3.1333,-3.0987,-3.066,-3.1525,-3.0237,-2.9083,-2.9083,-2.8409,-2.7582,-2.6717,-2.6601,-2.6184,-2.5118,-2.501,-2.4949,-2.4818,-2.4676,-2.4601,-2.462,-2.4351,-2.4192,-2.4172,-2.4192,-2.4211,-2.419,-2.419,-2.3675,-2.2612,-2.2594,-2.274,-2.296,-2.2189,-2.2063,-2.2463,-2.167,-2.1133,-2.0802,-2.0529,-2.0558,-2.067,-1.9384,-1.9047,-1.9186,-1.8194,-1.7811,-1.7811,-1.7772,-1.732,-1.6699,-1.6699,-1.6208,-1.5539,-1.528,-1.4776,-1.4319,-1.4296,-1.4536,-1.4648,-1.3974,-1.4274,-1.4782,-1.4797,-1.4797,-1.4989,-1.5649,-1.5799,-1.5799,-1.5799,-1.5799,-1.6203,-1.749,-1.7697,-1.8149,-1.9465,-1.969,-1.969,-1.969,-1.969,-1.969,-1.969,-1.969,-1.934,-1.8475,-1.8608,-1.8314,-1.7387,-1.7308,-1.729,-1.7305,-1.7635,-1.7811,-1.7811,-1.7789,-1.7789,-1.7789,-1.7811,-1.7811,-1.7811,-1.7811,-1.7811,-1.7789,-1.7783,-1.779,-1.7811,-1.78,-1.7795,-1.789,-1.8896,-1.9302,-1.9305,-1.9304,-1.9272,-1.9281,-1.9294,-1.9296,-1.9367,-2.9721,-2.9244,-2.8909,-2.9737,-2.8967,-2.8255,-2.8255,-2.7544,-2.689,-2.664,-2.6082,-2.5562,-2.5252,-2.5214,-2.5192,-2.5149,-2.5113,-2.5088,-2.5088,-2.5023,-2.3922,-2.1574,-2.3219,-2.4199,-2.4209,-2.4209,-2.4042,-2.371,-2.2591,-2.2079,-2.2171,-2.3065,-2.2958,-2.2009,-2.1753,-2.1607,-2.1493,-2.1416,-2.0341,-1.8678,-1.8533,-1.8379,-1.8207,-1.7917,-1.7811,-1.7743,-1.7202,-1.6902,-1.6631,-1.6086,-1.5443,-1.4742,-1.4239,-1.4149,-1.4192,-1.4004,-1.4006,-1.3959,-1.3271,-1.3226,-1.3625,-1.4558,-1.4797,-1.4989,-1.5649,-1.5799,-1.5799,-1.5799,-1.5799,-1.6203,-1.749,-1.7697,-1.8149,-1.9465,-1.969,-1.969,-1.969,-1.969,-1.969,-1.969,-1.969,-1.96,-1.9325,-1.925,-1.895,-1.8381,-1.7919,-1.7664,-1.7635,-1.8238,-1.8316,-1.783,-1.7804,-1.779,-1.779,-1.7809,-1.7811,-1.7811,-1.7811,-1.7811,-1.7811,-1.7811,-1.7793,-1.7803,-1.7803,-1.8206,-1.8895,-1.9186,-1.9305,-1.9304,-1.9292,-1.7919,-1.622,-1.8467,-1.809,-1.6457,-2.8602,-2.8349,-2.8137,-2.8621,-2.8005,-2.7428,-2.7428,-2.6659,-2.6101,-2.6101,-2.563,-2.5303,-2.5303,-2.5303,-2.5303,-2.5303,-2.529,-2.4744,-2.3403,-2.332,-2.2422,-2.0386,-2.1564,-2.2268,-2.2259,-2.2259,-2.2258,-2.2273,-2.129,-2.0818,-2.0836,-2.1814,-2.2105,-2.1763,-2.1121,-2.0814,-2.0819,-2.0806,-1.9884,-1.8396,-1.8428,-1.8252,-1.7989,-1.7859,-1.7811,-1.771,-1.6948,-1.6512,-1.6136,-1.5409,-1.4517,-1.3677,-1.3331,-1.3224,-1.3221,-1.3064,-1.3196,-1.3256,-1.2606,-1.2606,-1.3071,-1.4139,-1.4393,-1.4573,-1.5259,-1.5619,-1.5799,-1.5799,-1.5799,-1.6203,-1.749,-1.7844,-1.8346,-1.9501,-1.9839,-1.9874,-1.9711,-1.969,-1.9747,-1.9909,-1.9929,-2.0,-2.0208,-2.0106,-1.9751,-1.909,-1.8261,-1.7811,-1.7811,-1.8217,-1.8259,-1.7802,-1.7798,-1.7815,-1.7796,-1.8968,-1.8996,-1.7799,-1.78,-1.7805,-1.7808,-1.7808,-1.7807,-1.7759,-1.6879,-1.6835,-1.7498,-1.8782,-1.855,-1.7554,-1.9095,-1.8512,-1.7027,-1.8989,-1.7795,-1.5395,-2.7816,-2.793,-2.7887,-2.7979,-2.7218,-2.6582,-2.6591,-2.5841,-2.5303,-2.5303,-2.5303,-2.5303,-2.5303,-2.5303,-2.5303,-2.5303,-2.5303,-2.3879,-2.0517,-2.0304,-2.0305,-2.0297,-1.9725,-1.9375,-1.93,-1.9303,-1.9302,-1.9294,-1.9294,-1.9294,-1.9294,-1.9314,-2.0108,-2.1498,-1.9979,-1.9305,-1.9308,-1.9299,-1.9295,-1.9261,-1.8818,-1.85,-1.8225,-1.7826,-1.7676,-1.7608,-1.6779,-1.6069,-1.5392,-1.4665,-1.3615,-1.263,-1.261,-1.2256,-1.1826,-1.1805,-1.2224,-1.2591,-1.1969,-1.2239,-1.2876,-1.354,-1.3765,-1.3989,-1.4707,-1.5364,-1.5799,-1.5799,-1.5799,-1.6173,-1.7384,-1.8021,-1.8638,-1.9532,-2.0024,-2.0193,-1.9839,-1.9818,-1.9945,-2.0314,-2.0348,-2.0516,-2.0959,-2.0943,-2.0519,-1.958,-1.8458,-1.7805,-1.7805,-1.78,-1.7792,-1.7795,-1.8076,-1.8203,-1.8201,-2.0938,-2.0787,-1.7786,-1.7811,-1.7808,-1.7793,-1.7887,-1.7925,-1.7822,-1.5801,-1.4934,-1.5174,-1.81,-1.7609,-1.5355,-1.8926,-2.031,-2.0264,-1.9962,-1.8073,-1.6096,-2.6993,-2.6563,-2.6282,-2.6967,-2.6319,-2.5677,-2.5669,-2.5457,-2.5303,-2.5303,-2.5303,-2.5303,-2.5303,-2.5303,-2.5303,-2.5303,-2.5293,-2.3878,-2.0525,-2.0291,-2.0293,-2.0298,-2.0154,-1.9831,-1.9307,-1.9306,-1.9298,-1.9295,-1.9295,-1.9295,-1.9295,-1.9308,-1.9488,-1.9816,-1.9452,-1.9305,-1.9289,-1.9314,-1.9295,-1.9292,-1.9199,-1.8644,-1.7816,-1.6952,-1.6768,-1.6783,-1.5443,-1.4885,-1.4631,-1.3887,-1.3325,-1.2887,-1.2668,-1.2376,-1.2066,-1.1854,-1.1895,-1.1984,-1.1835,-1.191,-1.2179,-1.2837,-1.3406,-1.4109,-1.5319,-1.5709,-1.5799,-1.5799,-1.5799,-1.6038,-1.6771,-1.7434,-1.8212,-1.9282,-1.9922,-2.0382,-2.0665,-2.0698,-2.0764,-2.0829,-2.0862,-2.0894,-2.0991,-2.0471,-2.023,-2.0492,-1.8809,-1.7806,-1.7806,-1.7806,-1.7807,-1.7806,-2.008,-2.1332,-2.1311,-2.1951,-2.0781,-1.7786,-1.7798,-1.7803,-1.7831,-1.8608,-1.8967,-1.896,-1.8475,-1.825,-1.8313,-1.9008,-1.9207,-1.9124,-1.9971,-2.0308,-1.9978,-1.7302,-1.7539,-1.9323,-2.623,-2.593,-2.5735,-2.6194,-2.5834,-2.5489,-2.5456,-2.539,-2.5341,-2.5303,-2.5303,-2.5303,-2.5303,-2.5303,-2.5303,-2.5303,-2.5302,-2.3887,-2.0514,-2.0299,-2.0307,-2.0295,-2.0298,-2.0135,-1.9777,-1.9776,-1.9629,-1.9313,-1.9298,-1.9305,-1.9305,-1.9305,-1.9305,-1.9305,-1.9305,-1.9305,-1.9305,-1.9305,-1.9305,-1.9292,-1.9289,-1.8431,-1.7062,-1.6265,-1.6055,-1.6018,-1.4902,-1.4276,-1.3921,-1.3532,-1.3138,-1.2778,-1.2649,-1.2336,-1.1982,-1.1848,-1.1805,-1.1805,-1.1805,-1.2029,-1.2433,-1.3107,-1.378,-1.4453,-1.5169,-1.5574,-1.5888,-1.6174,-1.6234,-1.6593,-1.7775,-1.8438,-1.9092,-2.0003,-2.0591,-2.0943,-2.0991,-2.0991,-2.1055,-2.1275,-2.1275,-2.1385,-2.1584,-2.0829,-2.0655,-2.146,-1.9875,-1.8758,-1.8517,-1.8735,-1.8976,-1.9216,-2.1235,-2.2292,-2.231,-2.23,-2.1653,-2.0357,-1.8636,-1.8052,-1.8519,-1.9071,-1.9306,-1.9301,-1.9301,-1.9292,-1.9324,-1.9655,-1.99,-2.007,-2.0241,-2.0304,-2.0096,-1.8333,-1.8793,-2.0331,-2.5703,-2.5703,-2.5703,-2.5703,-2.5644,-2.5572,-2.5522,-2.5465,-2.5409,-2.5341,-2.5322,-2.5322,-2.5322,-2.5303,-2.5303,-2.5303,-2.5302,-2.3887,-2.0514,-2.0299,-2.0312,-2.0312,-2.0305,-2.0298,-2.0298,-2.0313,-1.9974,-1.9311,-1.9294,-1.9298,-1.9298,-1.9286,-1.9305,-1.9305,-1.9301,-1.9301,-1.9301,-1.9298,-1.9298,-1.9301,-1.9306,-1.8217,-1.6536,-1.5592,-1.539,-1.5488,-1.4618,-1.3922,-1.3396,-1.3396,-1.3069,-1.2649,-1.261,-1.2256,-1.1869,-1.1811,-1.1805,-1.1805,-1.1805,-1.2216,-1.2831,-1.3615,-1.4214,-1.4677,-1.4929,-1.5409,-1.5948,-1.6428,-1.6548,-1.7076,-1.878,-1.9481,-1.9994,-2.0492,-2.1122,-2.1453,-2.1082,-2.1148,-2.1354,-2.1688,-2.1718,-2.1869,-2.2254,-2.1545,-2.1407,-2.2241,-2.1113,-2.023,-1.9841,-2.017,-2.0611,-2.1032,-2.1854,-2.2307,-2.231,-2.2361,-2.2652,-2.3119,-2.0269,-1.9038,-1.929,-1.9291,-1.9459,-1.9706,-1.9415,-1.9323,-1.9438,-1.9994,-2.0085,-1.9915,-2.0192,-2.0292,-2.0311,-2.0377,-2.0389,-2.0389,-2.5703,-2.5703,-2.5703,-2.5703,-2.5644,-2.5605,-2.5599,-2.5531,-2.5486,-2.5466,-2.5466,-2.5466,-2.5466,-2.537,-2.5303,-2.5303,-2.5302,-2.3887,-2.0514,-2.0299,-2.0312,-2.0312,-2.0296,-2.0307,-2.0307,-2.0307,-1.9979,-1.9287,-1.9292,-1.9305,-1.9305,-1.9291,-1.9305,-1.9305,-1.9306,-1.9298,-1.9298,-1.9295,-1.9305,-1.9305,-1.93,-1.8629,-1.7336,-1.4692,-1.449,-1.5418,-1.4036,-1.3478,-1.3396,-1.3396,-1.3191,-1.2906,-1.2668,-1.2376,-1.2086,-1.1869,-1.1805,-1.1805,-1.1805,-1.1865,-1.2239,-1.3496,-1.387,-1.4244,-1.5409,-1.5739,-1.5829,-1.5903,-1.5911,-1.6314,-1.7694,-1.8591,-1.9088,-1.894,-2.034,-2.1378,-2.12,-2.1703,-2.2135,-2.2209,-2.2209,-2.2237,-2.2282,-2.2164,-2.2158,-2.2287,-2.2102,-2.196,-2.19,-2.196,-2.2012,-2.2097,-2.2235,-2.2304,-2.231,-2.2659,-2.2842,-2.2936,-2.3205,-2.1922,-1.9308,-1.9287,-2.0087,-2.1387,-1.9942,-1.946,-1.9744,-1.9819,-2.0012,-2.025,-2.0279,-2.0295,-2.0312,-2.0389,-2.0465,-2.057,-2.5703,-2.5703,-2.5703,-2.5703,-2.5684,-2.5644,-2.5605,-2.5578,-2.5543,-2.5505,-2.5505,-2.5505,-2.5505,-2.5376,-2.5293,-2.5293,-2.5292,-2.3876,-2.0512,-2.0307,-2.0312,-2.0312,-2.0312,-2.0312,-2.0312,-2.0301,-2.0153,-1.986,-1.9858,-1.9676,-1.93,-1.929,-1.9309,-1.929,-1.9314,-1.8292,-1.6611,-1.6616,-1.6611,-1.663,-1.6609,-1.6338,-1.5814,-1.4512,-1.4274,-1.4547,-1.3713,-1.3395,-1.3396,-1.3396,-1.3208,-1.2995,-1.2869,-1.2646,-1.2396,-1.2276,-1.2149,-1.2024,-1.2024,-1.2299,-1.2788,-1.3595,-1.4192,-1.4799,-1.5602,-1.5799,-1.5961,-1.6512,-1.6596,-1.7005,-1.8621,-1.8909,-1.8909,-1.8983,-2.0164,-2.111,-2.1194,-2.1837,-2.231,-2.231,-2.231,-2.231,-2.231,-2.231,-2.231,-2.231,-2.2309,-2.2286,-2.2286,-2.2286,-2.2286,-2.2286,-2.2287,-2.2422,-2.2623,-2.2825,-2.3045,-2.3353,-2.3739,-2.294,-2.1146,-2.1151,-2.0869,-2.0393,-2.0421,-2.0144,-1.9718,-1.9969,-2.0101,-2.0136,-2.0258,-2.031,-2.0369,-2.0389,-2.0481,-2.0604]}]]